[[{"header":{"parameterUnit":"m.s-1","parameterCategory":1,"la1":31.0,"la2":29.5877,"lo1":-88.7671,"lo2":-86.6584,"dy":0.0162,"dx":0.0185,"nx":115,"ny":88,"refTime":"2023-11-06T18:00:00:Z","depth":0,"parameterNumber":2,"parameterNumberName":"U-component_of_WINDS"},"data":[0.0,0.0,0.0,0.0,0.0,0.0,0.0,0.0,0.0,0.0,0.0,0.0,0.0,0.0,0.0,0.0,0.0,0.0,0.0,0.0,0.0,0.0,0.0,0.0,0.0,0.0,0.0,0.0,0.0,0.0,0.0,0.0,0.0,0.0,0.0,0.0,0.0,0.0,0.0,0.0,0.0,0.0,0.0,0.0,0.0,0.0,0.0,0.0,0.0,0.0,0.0,0.0,0.0,0.0,0.0,0.0,0.0,0.0,0.0,0.0,0.0,0.0,0.0,0.0,0.0,0.0,0.0,0.0,0.0,0.0,0.0,0.0,0.0,0.0,0.0,0.0,0.0,0.0,0.0,0.0,0.0,0.0,0.0,0.0,0.0,0.0,0.0,0.0,0.0,0.0,0.0,0.0,0.0,0.0,0.0,0.0,0.0,0.0,0.0,0.0,0.0,0.0,0.0,0.0,0.0,0.0,0.0,0.0,0.0,0.0,0.0,0.0,0.0,0.0,0.0,0.0,0.0,0.0,0.0,0.0,0.0,0.0,0.0,0.0,0.0,0.0,0.0,0.0,0.0,0.0,0.0,0.0,0.0,0.0,0.0,0.0,0.0,0.0,0.0,0.0,0.0,0.0,0.0,0.0,0.0,0.0,0.0,0.0,0.0,0.0,0.0,0.0,0.0,0.0,0.0,0.0,0.0,0.0,0.0,0.0,0.0,0.0,0.0,0.0,0.0,0.0,0.0,0.0,0.0,0.0,0.0,0.0,0.0,0.0,0.0,0.0,0.0,0.0,0.0,0.0,0.0,0.0,0.0,0.0,0.0,0.0,0.0,0.0,0.0,0.0,0.0,0.0,0.0,0.0,0.0,0.0,0.0,0.0,0.0,0.0,0.0,0.0,0.0,0.0,0.0,0.0,0.0,0.0,0.0,0.0,0.0,0.0,0.0,0.0,0.0,0.0,0.0,0.0,0.0,0.0,0.0,0.0,0.0,0.0,0.0,0.0,0.0,0.0,0.0,0.0,0.0,0.0,0.0,0.0,0.0,0.0,0.0,0.0,0.0,0.0,0.0,0.0,0.0,0.0,0.0,0.0,0.0,0.0,0.0,0.0,0.0,0.0,0.0,0.0,0.0,0.0,0.0,0.0,0.0,0.0,0.0,0.0,0.0,0.0,0.0,0.0,0.0,0.0,0.0,0.0,0.0,0.0,0.0,0.0,0.0,0.0,0.0,0.0,0.0,0.0,0.0,0.0,0.0,0.0,0.0,0.0,0.0,0.0,0.0,0.0,0.0,0.0,0.0,0.0,0.0,0.0,0.0,0.0,0.0,0.0,0.0,0.0,0.0,0.0,0.0,0.0,0.0,0.0,0.0,0.0,0.0,0.0,0.0,0.0,0.0,0.0,0.0,0.0,0.0,0.0,0.0,0.0,0.0,0.0,0.0,0.0,0.0,0.0,0.0,0.0,0.0,0.0,0.0,0.0,0.0,0.0,0.0,0.0,0.0,0.0,0.0,0.0,0.0,0.0,0.0,0.0,0.0,0.0,0.0,0.0,0.0,0.0,0.0,0.0,0.0,0.0,0.0,0.0,0.0,0.0,0.0,0.0,0.0,0.0,0.0,0.0,0.0,0.0,0.0,0.0,0.0,0.0,0.0,0.0,0.0,0.0,0.0,0.0,0.0,0.0,0.0,0.0,0.0,0.0,0.0,0.0,0.0,0.0,0.0,0.0,0.0,0.0,0.0,0.0,0.0,0.0,0.0,0.0,0.0,0.0,0.0,0.0,0.0,0.0,0.0,0.0,0.0,0.0,0.0,0.0,0.0,0.0,0.0,0.0,0.0,0.0,0.0,0.0,0.0,0.0,0.0,0.0,0.0,0.0,0.0,0.0,0.0,0.0,0.0,0.0,0.0,0.0,0.0,0.0,0.0,0.0,0.0,0.0,0.0,0.0,0.0,0.0,0.0,0.0,0.0,0.0,0.0,0.0,0.0,0.0,0.0,0.0,0.0,0.0,0.0,0.0,0.0,0.0,0.0,0.0,0.0,0.0,0.0,0.0,0.0,0.0,0.0,0.0,0.0,0.0,0.0,0.0,0.0,0.0,0.0,0.0,0.0,0.0,0.0,0.0,0.0,0.0,0.0,0.0,0.0,0.0,0.0,0.0,0.0,0.0,0.0,0.0,0.0,0.0,0.0,0.0,0.0,0.0,0.0,0.0,0.0,0.0,0.0,0.0,0.0,0.0,0.0,0.0,0.0,0.0,0.0,0.0,0.0,0.0,0.0,0.0,0.0,0.0,0.0,0.0,0.0,0.0,0.0,0.0,0.0,0.0,0.0,0.0,0.0,0.0,0.0,0.0,0.0,0.0,0.0,0.0,0.0,0.0,0.0,0.0,0.0,0.0,0.0,0.0,0.0,0.0,0.0,0.0,0.0,0.0,0.0,0.0,0.0,0.0,0.0,0.0,0.0,0.0,0.0,0.0,0.0,0.0,0.0,0.0,0.0,0.0,0.0,0.0,0.0,0.0,0.0,0.0,0.0,0.0,0.0,0.0,0.0,0.0,0.0,0.0,0.0,0.0,0.0,0.0,0.0,0.0,0.0,0.0,0.0,0.0,0.0,0.0,0.0,0.0,0.0,0.0,0.0,0.0,0.0,0.0,0.0,0.0,0.0,0.0,0.0,0.0,0.0,0.0,0.0,0.0,0.0,0.0,0.0,0.0,0.0,0.0,0.0,0.0,0.0,0.0,0.0,0.0,0.0,0.0,0.0,0.0,0.0,0.0,0.0,0.0,0.0,0.0,0.0,0.0,0.0,0.0,0.0,0.0,0.0,0.0,0.0,0.0,0.0,0.0,0.0,0.0,0.0,0.0,0.0,0.0,0.0,0.0,0.0,0.0,0.0,0.0,0.0,0.0,0.0,0.0,0.0,0.0,0.0,0.0,0.0,0.0,0.0,0.0,0.0,0.0,0.0,0.0,0.0,0.0,0.0,0.0,0.0,0.0,0.0,0.0,0.0,0.0,0.0,0.0,0.0,0.0,0.0,0.0,0.0,0.0,0.0,0.0,0.0,0.0,0.0,0.0,0.0,0.0,0.0,0.0,0.0,0.0,0.0,0.0,0.0,0.0,0.0,0.0,0.0,0.0,0.0,0.0,0.0,0.0,0.0,0.0,0.0,0.0,0.0,0.0,0.0,0.0,0.0,0.0,0.0,0.0,0.0,0.0,0.0,0.0,0.0,0.0,0.0,0.0,0.0,0.0,0.0,0.0,0.0,0.0,0.0,0.0,0.0,0.0,0.0,0.0,0.0,0.0,0.0,0.0,0.0,0.0,0.0,0.0,0.0,0.0,0.0,0.0,0.0,0.0,0.0,0.0,0.0,0.0,0.0,0.0,0.0,0.0,0.0,0.0,0.0,0.0,0.0,0.0,0.0,0.0,0.0,0.0,0.0,0.0,0.0,0.0,0.0,0.0,0.0,0.0,0.0,0.0,0.0,0.0,0.0,0.0,0.0,0.0,0.0,0.0,0.0,0.0,0.0,0.0,0.0,0.0,0.0,0.0,0.0,0.0,0.0,0.0,0.0,0.0,0.0,0.0,0.0,0.0,0.0,0.0,0.0,0.0,0.0,0.0,0.0,0.0,0.0,0.0,0.0,0.0,0.0,0.0,0.0,0.0,0.0,0.0,0.0,0.0,0.0,0.0,0.0,0.0,0.0,0.0,0.0,0.0,0.0,0.0,0.0,0.0,0.0,0.0,0.0,0.0,0.0,0.0,0.0,0.0,0.0,0.0,0.0,0.0,0.0,0.0,0.0,0.0,0.0,0.0,0.0,0.0,0.0,0.0,0.0,0.0,0.0,0.0,0.0,0.0,0.0,0.0,0.0,0.0,0.0,0.0,0.0,0.0,0.0,0.0,0.0,0.0,0.0,0.0,0.0,0.0,0.0,0.0,0.0,0.0,0.0,0.0,0.0,0.0,0.0,0.0,0.0,0.0,0.0,0.0,0.0,0.0,0.0,0.0,0.0,0.0,0.0,0.0,0.0,0.0,0.0,0.0,0.0,0.0,0.0,0.0,0.0,0.0,0.0,0.0,0.0,0.0,0.0,0.0,0.0,0.0,0.0,0.0,0.0,0.0,0.0,0.0,0.0,0.0,0.0,0.0,0.0,0.0,0.0,0.0,0.0,0.0,0.0,0.0,0.0,0.0,0.0,0.0,0.0,0.0,0.0,0.0,0.0,0.0,0.0,0.0,0.0,0.0,0.0,0.0,0.0,0.0,4.1463,0.0,0.0,0.0,0.0,0.0,0.0,0.0,0.0,0.0,0.0,0.0,0.0,0.0,0.0,0.0,0.0,0.0,0.0,0.0,0.0,0.0,0.0,0.0,0.0,0.0,0.0,0.0,0.0,0.0,0.0,0.0,0.0,0.0,0.0,0.0,0.0,0.0,0.0,0.0,0.0,0.0,0.0,0.0,0.0,0.0,0.0,0.0,0.0,0.0,0.0,0.0,0.0,0.0,0.0,0.0,0.0,0.0,0.0,0.0,0.0,0.0,0.0,0.0,0.0,0.0,0.0,0.0,0.0,0.0,0.0,0.0,0.0,0.0,0.0,0.0,0.0,0.0,0.0,0.0,0.0,0.0,0.0,0.0,0.0,0.0,0.0,0.0,0.0,0.0,0.0,0.0,0.0,0.0,0.0,0.0,0.0,0.0,0.0,0.0,0.0,0.0,0.0,0.0,0.0,0.0,0.0,0.0,0.0,0.0,0.0,4.1727,4.1701,4.1657,4.1373,4.0896,0.0,0.0,0.0,0.0,0.0,0.0,0.0,0.0,0.0,0.0,0.0,0.0,0.0,0.0,0.0,0.0,0.0,0.0,0.0,0.0,0.0,0.0,0.0,0.0,0.0,0.0,0.0,0.0,0.0,0.0,0.0,0.0,0.0,0.0,0.0,0.0,0.0,0.0,0.0,0.0,0.0,0.0,0.0,0.0,0.0,0.0,0.0,0.0,0.0,0.0,0.0,0.0,0.0,0.0,0.0,0.0,0.0,0.0,0.0,0.0,0.0,0.0,0.0,0.0,0.0,0.0,0.0,0.0,0.0,0.0,0.0,0.0,0.0,0.0,0.0,0.0,0.0,0.0,0.0,0.0,0.0,0.0,0.0,0.0,0.0,0.0,0.0,0.0,0.0,0.0,0.0,0.0,0.0,0.0,0.0,0.0,0.0,0.0,0.0,0.0,0.0,0.0,0.0,0.0,0.0,0.0,0.0,0.0,0.0,0.0,0.0,0.0,4.1071,4.0772,4.0153,0.0,0.0,0.0,0.0,0.0,0.0,0.0,0.0,0.0,0.0,0.0,0.0,0.0,0.0,0.0,0.0,0.0,0.0,0.0,0.0,0.0,0.0,0.0,0.0,0.0,0.0,0.0,0.0,0.0,0.0,0.0,0.0,0.0,0.0,0.0,0.0,0.0,0.0,0.0,0.0,0.0,0.0,0.0,0.0,0.0,0.0,0.0,0.0,0.0,0.0,0.0,0.0,0.0,0.0,0.0,0.0,0.0,0.0,0.0,0.0,0.0,0.0,0.0,0.0,0.0,0.0,0.0,0.0,0.0,0.0,0.0,0.0,0.0,0.0,0.0,0.0,0.0,0.0,0.0,0.0,0.0,0.0,0.0,0.0,0.0,0.0,0.0,0.0,0.0,0.0,0.0,0.0,0.0,0.0,0.0,0.0,0.0,0.0,0.0,0.0,0.0,0.0,0.0,0.0,0.0,0.0,0.0,0.0,0.0,0.0,4.0982,4.1093,4.0728,0.0,3.9365,0.0,0.0,0.0,0.0,0.0,0.0,0.0,0.0,0.0,0.0,0.0,0.0,0.0,0.0,0.0,0.0,0.0,0.0,0.0,0.0,0.0,0.0,0.0,0.0,0.0,0.0,0.0,0.0,0.0,0.0,0.0,0.0,0.0,0.0,0.0,0.0,0.0,0.0,0.0,0.0,0.0,0.0,0.0,0.0,0.0,0.0,0.0,0.0,0.0,0.0,0.0,0.0,0.0,0.0,0.0,0.0,0.0,0.0,0.0,0.0,0.0,0.0,0.0,0.0,0.0,0.0,0.0,0.0,0.0,0.0,0.0,0.0,0.0,0.0,0.0,0.0,0.0,0.0,0.0,0.0,0.0,0.0,0.0,0.0,0.0,0.0,0.0,0.0,0.0,0.0,0.0,0.0,0.0,0.0,0.0,0.0,0.0,0.0,0.0,0.0,0.0,0.0,0.0,0.0,0.0,0.0,0.0,0.0,0.0,0.0,4.0697,4.0551,3.985,3.9259,0.0,0.0,0.0,0.0,0.0,0.0,0.0,0.0,0.0,0.0,0.0,0.0,0.0,0.0,0.0,0.0,0.0,0.0,0.0,0.0,0.0,0.0,0.0,0.0,0.0,0.0,0.0,0.0,0.0,0.0,0.0,0.0,0.0,0.0,0.0,0.0,0.0,0.0,0.0,0.0,0.0,0.0,0.0,0.0,0.0,0.0,0.0,0.0,0.0,0.0,0.0,0.0,0.0,0.0,0.0,0.0,0.0,0.0,0.0,0.0,0.0,0.0,0.0,0.0,0.0,0.0,0.0,0.0,0.0,0.0,0.0,0.0,0.0,0.0,0.0,0.0,0.0,0.0,0.0,0.0,0.0,0.0,0.0,0.0,0.0,0.0,0.0,0.0,0.0,0.0,0.0,0.0,0.0,0.0,0.0,0.0,0.0,0.0,0.0,0.0,0.0,0.0,0.0,0.0,0.0,0.0,0.0,0.0,0.0,0.0,4.0697,4.0337,3.9816,3.9007,3.8383,3.7994,0.0,0.0,0.0,0.0,0.0,0.0,0.0,0.0,0.0,0.0,0.0,0.0,0.0,0.0,0.0,0.0,0.0,0.0,0.0,0.0,0.0,0.0,0.0,0.0,0.0,0.0,0.0,0.0,0.0,0.0,0.0,0.0,0.0,0.0,0.0,0.0,0.0,0.0,0.0,0.0,0.0,0.0,0.0,0.0,0.0,0.0,0.0,0.0,0.0,0.0,0.0,0.0,0.0,0.0,0.0,0.0,0.0,0.0,0.0,0.0,0.0,0.0,0.0,0.0,0.0,0.0,0.0,0.0,0.0,0.0,0.0,0.0,0.0,0.0,0.0,0.0,0.0,0.0,0.0,0.0,0.0,0.0,0.0,0.0,0.0,0.0,0.0,0.0,0.0,0.0,0.0,0.0,0.0,0.0,0.0,0.0,0.0,0.0,0.0,0.0,0.0,0.0,0.0,0.0,0.0,0.0,0.0,0.0,4.0697,4.0453,3.9935,3.9061,3.8455,3.7796,0.0,0.0,0.0,0.0,0.0,0.0,0.0,0.0,0.0,0.0,0.0,0.0,0.0,0.0,0.0,0.0,0.0,0.0,0.0,0.0,0.0,0.0,0.0,0.0,0.0,0.0,0.0,0.0,0.0,0.0,0.0,0.0,0.0,0.0,0.0,0.0,0.0,0.0,0.0,0.0,0.0,0.0,0.0,0.0,0.0,0.0,0.0,0.0,0.0,0.0,0.0,0.0,0.0,0.0,0.0,0.0,0.0,0.0,0.0,0.0,0.0,0.0,0.0,0.0,0.0,0.0,0.0,0.0,0.0,0.0,0.0,0.0,0.0,0.0,0.0,0.0,0.0,0.0,0.0,0.0,0.0,0.0,0.0,0.0,0.0,0.0,0.0,0.0,0.0,0.0,0.0,0.0,0.0,0.0,0.0,0.0,0.0,0.0,0.0,0.0,0.0,0.0,0.0,0.0,0.0,0.0,0.0,0.0,0.0,4.0453,3.9833,3.9115,3.8439,3.7738,3.6951,0.0,0.0,0.0,0.0,0.0,0.0,0.0,0.0,0.0,0.0,0.0,0.0,0.0,0.0,0.0,0.0,0.0,0.0,0.0,0.0,0.0,0.0,0.0,0.0,0.0,0.0,0.0,0.0,0.0,0.0,0.0,0.0,0.0,0.0,0.0,0.0,0.0,0.0,0.0,0.0,0.0,0.0,0.0,0.0,0.0,0.0,0.0,0.0,0.0,0.0,0.0,0.0,0.0,0.0,0.0,0.0,0.0,0.0,0.0,0.0,0.0,0.0,0.0,0.0,0.0,0.0,0.0,0.0,0.0,0.0,0.0,0.0,0.0,0.0,0.0,0.0,0.0,0.0,0.0,0.0,0.0,0.0,0.0,0.0,0.0,0.0,0.0,0.0,0.0,0.0,0.0,0.0,0.0,0.0,0.0,0.0,0.0,0.0,0.0,0.0,0.0,0.0,0.0,0.0,0.0,0.0,0.0,0.0,0.0,3.9918,0.0,3.8383,3.7738,3.6966,3.6165,0.0,0.0,0.0,0.0,0.0,0.0,0.0,0.0,0.0,0.0,0.0,0.0,0.0,0.0,0.0,0.0,0.0,0.0,0.0,0.0,0.0,0.0,0.0,0.0,0.0,0.0,0.0,0.0,0.0,0.0,0.0,0.0,0.0,0.0,0.0,0.0,0.0,0.0,0.0,0.0,0.0,0.0,0.0,0.0,0.0,0.0,0.0,0.0,0.0,0.0,0.0,0.0,0.0,0.0,0.0,0.0,0.0,0.0,0.0,0.0,0.0,0.0,0.0,0.0,0.0,0.0,0.0,0.0,0.0,0.0,0.0,0.0,0.0,0.0,0.0,0.0,0.0,0.0,0.0,0.0,0.0,0.0,0.0,0.0,0.0,0.0,0.0,0.0,0.0,0.0,0.0,0.0,0.0,0.0,0.0,0.0,0.0,0.0,0.0,0.0,0.0,0.0,0.0,0.0,0.0,0.0,0.0,0.0,4.0203,3.9028,3.8383,3.7679,3.689,3.6117,3.5415,0.0,0.0,0.0,0.0,0.0,0.0,0.0,0.0,0.0,0.0,0.0,0.0,0.0,0.0,0.0,0.0,0.0,0.0,0.0,0.0,0.0,0.0,0.0,0.0,0.0,0.0,0.0,0.0,0.0,0.0,0.0,0.0,0.0,0.0,0.0,0.0,0.0,0.0,0.0,0.0,0.0,0.0,0.0,0.0,0.0,0.0,0.0,0.0,0.0,0.0,0.0,0.0,0.0,0.0,0.0,0.0,0.0,0.0,0.0,0.0,0.0,0.0,0.0,0.0,0.0,0.0,0.0,0.0,0.0,0.0,0.0,0.0,0.0,0.0,0.0,0.0,0.0,0.0,0.0,0.0,0.0,0.0,0.0,0.0,0.0,0.0,0.0,0.0,0.0,0.0,0.0,0.0,0.0,0.0,0.0,0.0,0.0,0.0,0.0,0.0,0.0,0.0,0.0,0.0,0.0,0.0,0.0,0.0,0.0,3.8383,3.7679,3.689,3.6102,3.519,3.4543,0.0,0.0,0.0,0.0,0.0,0.0,0.0,0.0,0.0,0.0,0.0,0.0,0.0,0.0,0.0,0.0,0.0,0.0,0.0,0.0,0.0,0.0,0.0,0.0,0.0,0.0,0.0,0.0,0.0,0.0,0.0,0.0,0.0,0.0,0.0,0.0,0.0,0.0,0.0,0.0,0.0,0.0,0.0,0.0,0.0,0.0,0.0,0.0,0.0,0.0,0.0,0.0,0.0,0.0,0.0,0.0,0.0,0.0,0.0,0.0,0.0,0.0,0.0,0.0,0.0,0.0,0.0,0.0,0.0,0.0,0.0,0.0,0.0,0.0,0.0,0.0,0.0,0.0,0.0,0.0,0.0,0.0,0.0,0.0,0.0,0.0,0.0,0.0,0.0,0.0,0.0,0.0,0.0,0.0,0.0,0.0,0.0,0.0,0.0,0.0,0.0,0.0,0.0,0.0,0.0,0.0,0.0,0.0,0.0,3.7115,3.6707,3.6024,3.5139,3.4409,3.3879,3.3409,0.0,0.0,0.0,0.0,0.0,0.0,0.0,0.0,0.0,0.0,0.0,0.0,0.0,0.0,0.0,0.0,0.0,0.0,0.0,0.0,0.0,0.0,0.0,0.0,0.0,0.0,0.0,0.0,0.0,0.0,0.0,0.0,0.0,0.0,0.0,0.0,0.0,0.0,0.0,0.0,0.0,0.0,0.0,0.0,0.0,0.0,0.0,0.0,0.0,0.0,0.0,0.0,0.0,0.0,0.0,0.0,0.0,0.0,0.0,0.0,0.0,0.0,0.0,0.0,0.0,0.0,0.0,0.0,0.0,0.0,0.0,0.0,0.0,0.0,0.0,0.0,0.0,0.0,0.0,0.0,0.0,0.0,0.0,0.0,0.0,0.0,0.0,0.0,0.0,0.0,0.0,0.0,0.0,0.0,0.0,0.0,0.0,0.0,0.0,0.0,0.0,0.0,0.0,0.0,0.0,0.0,0.0,0.0,3.5335,3.5479,3.5073,3.4138,3.3756,3.3339,0.0,0.0,0.0,0.0,0.0,0.0,0.0,0.0,0.0,0.0,0.0,0.0,0.0,0.0,0.0,0.0,0.0,0.0,0.0,0.0,0.0,0.0,0.0,0.0,0.0,0.0,0.0,0.0,0.0,0.0,0.0,0.0,0.0,0.0,0.0,0.0,0.0,0.0,0.0,0.0,0.0,0.0,0.0,0.0,0.0,0.0,0.0,0.0,0.0,0.0,0.0,0.0,0.0,0.0,0.0,0.0,0.0,0.0,0.0,0.0,0.0,0.0,0.0,0.0,0.0,0.0,0.0,0.0,0.0,0.0,0.0,0.0,0.0,0.0,0.0,0.0,0.0,0.0,0.0,0.0,0.0,0.0,0.0,0.0,0.0,0.0,0.0,0.0,0.0,0.0,0.0,0.0,0.0,0.0,0.0,0.0,0.0,0.0,0.0,0.0,0.0,0.0,0.0,0.0,0.0,0.0,0.0,0.0,0.0,3.4259,3.4002,3.3879,3.3687,3.3044,3.2632,0.0,0.0,0.0,0.0,0.0,0.0,0.0,0.0,0.0,0.0,0.0,0.0,0.0,0.0,0.0,0.0,0.0,0.0,0.0,0.0,0.0,0.0,0.0,0.0,0.0,0.0,0.0,0.0,0.0,0.0,0.0,0.0,0.0,0.0,0.0,0.0,0.0,0.0,0.0,0.0,0.0,0.0,0.0,0.0,0.0,0.0,0.0,0.0,0.0,0.0,0.0,0.0,0.0,0.0,0.0,0.0,0.0,0.0,0.0,0.0,0.0,0.0,0.0,0.0,0.0,0.0,0.0,0.0,0.0,0.0,0.0,0.0,0.0,0.0,0.0,0.0,0.0,0.0,0.0,0.0,0.0,0.0,0.0,0.0,0.0,0.0,0.0,0.0,0.0,0.0,0.0,0.0,0.0,0.0,0.0,0.0,0.0,0.0,0.0,0.0,0.0,0.0,0.0,0.0,0.0,0.0,0.0,0.0,3.4274,3.3381,3.2917,3.2717,3.2775,3.2345,3.2069,0.0,0.0,0.0,0.0,0.0,0.0,0.0,0.0,0.0,0.0,0.0,0.0,0.0,0.0,0.0,0.0,0.0,0.0,0.0,0.0,0.0,0.0,0.0,0.0,0.0,0.0,0.0,0.0,0.0,0.0,0.0,0.0,0.0,0.0,0.0,0.0,0.0,0.0,0.0,0.0,0.0,0.0,0.0,0.0,0.0,0.0,0.0,0.0,0.0,0.0,0.0,0.0,0.0,0.0,0.0,0.0,0.0,0.0,0.0,0.0,0.0,0.0,0.0,0.0,0.0,0.0,0.0,0.0,0.0,0.0,0.0,0.0,0.0,0.0,0.0,0.0,0.0,0.0,0.0,0.0,0.0,0.0,0.0,0.0,0.0,0.0,0.0,0.0,0.0,0.0,0.0,0.0,0.0,0.0,0.0,0.0,0.0,0.0,0.0,0.0,0.0,0.0,0.0,0.0,0.0,0.0,0.0,0.0,3.3311,3.2618,3.2096,3.173,3.1482,3.1616,3.1556,0.0,0.0,0.0,0.0,0.0,0.0,0.0,0.0,0.0,0.0,0.0,0.0,0.0,0.0,0.0,0.0,0.0,0.0,0.0,0.0,0.0,0.0,0.0,0.0,0.0,0.0,0.0,0.0,0.0,0.0,0.0,0.0,0.0,0.0,0.0,0.0,0.0,0.0,0.0,0.0,0.0,0.0,0.0,0.0,0.0,0.0,0.0,0.0,0.0,0.0,0.0,0.0,0.0,0.0,0.0,0.0,0.0,0.0,0.0,0.0,0.0,0.0,0.0,0.0,0.0,0.0,0.0,0.0,0.0,0.0,0.0,0.0,0.0,0.0,0.0,0.0,0.0,0.0,0.0,0.0,0.0,0.0,0.0,0.0,0.0,0.0,0.0,0.0,0.0,0.0,0.0,0.0,0.0,0.0,0.0,0.0,0.0,0.0,0.0,0.0,0.0,0.0,0.0,0.0,0.0,0.0,0.0,0.0,3.2417,3.1836,3.1421,3.1048,3.0659,3.0973,3.0885,0.0,0.0,0.0,0.0,0.0,0.0,0.0,0.0,0.0,0.0,0.0,0.0,0.0,0.0,0.0,0.0,0.0,0.0,0.0,0.0,0.0,0.0,0.0,0.0,0.0,0.0,0.0,0.0,0.0,0.0,0.0,0.0,0.0,0.0,0.0,0.0,0.0,0.0,0.0,0.0,0.0,0.0,0.0,0.0,0.0,0.0,0.0,0.0,-0.2687,0.0,0.0,0.0,0.0,0.0,0.0,0.0,0.0,0.0,0.0,0.0,0.0,0.0,0.0,0.0,0.0,0.0,0.0,0.0,0.0,0.0,0.0,0.0,0.0,0.0,0.0,0.0,0.0,0.0,0.0,0.0,0.0,0.0,0.0,0.0,0.0,0.0,0.0,0.0,0.0,0.0,0.0,0.0,0.0,0.0,0.0,0.0,0.0,0.0,0.0,0.0,0.0,0.0,0.0,0.0,0.0,0.0,0.0,0.0,3.1529,3.1022,3.0583,3.019,2.9831,2.9896,2.9819,0.0,0.0,0.0,0.0,0.0,0.0,0.0,0.0,0.0,0.0,0.0,0.0,0.0,0.0,0.0,0.0,0.0,0.0,0.0,0.0,0.0,0.0,0.0,0.0,0.0,0.0,0.0,0.0,0.0,0.0,0.0,0.0,0.0,0.0,0.0,0.0,0.0,0.0,0.0,0.0,0.0,0.0,0.0,0.0,0.0,0.0,0.0,0.0,0.0,0.0,0.0,0.0,0.0,0.0,0.0,0.0,0.0,0.0,0.0,0.0,0.0,0.0,0.0,0.0,0.0,0.0,0.0,0.0,0.0,0.0,0.0,0.0,0.0,0.0,0.0,0.0,0.0,0.0,0.0,0.0,0.0,0.0,0.0,0.0,0.0,0.0,0.0,0.0,0.0,0.0,0.0,0.0,0.0,0.0,0.0,0.0,0.0,0.0,0.0,0.0,0.0,0.0,0.0,0.0,0.0,0.0,0.0,3.1796,3.0784,3.0279,2.9793,2.9341,2.8973,2.8816,2.8724,2.8803,0.0,0.0,0.0,0.0,0.0,0.0,0.0,0.0,0.0,0.0,0.0,0.0,0.0,0.0,0.0,0.0,0.0,0.0,0.0,0.0,0.0,0.0,0.0,0.0,0.0,0.0,0.0,0.0,0.0,0.0,0.0,0.0,0.0,0.0,0.0,0.0,0.0,0.0,0.545,0.286,0.0,0.0,0.0,0.0,0.0,0.0,0.0,0.0,-0.4032,0.0,0.0,0.0,0.0,0.0,0.0,0.0,0.0,0.0,0.0,0.0,0.0,0.0,0.0,0.0,0.0,0.0,0.0,0.0,0.0,0.0,0.0,0.0,0.0,0.0,0.0,0.0,0.0,0.0,0.0,0.0,0.0,0.0,0.0,0.0,0.0,0.0,0.0,0.0,0.0,0.0,0.0,0.0,0.0,0.0,0.0,0.0,0.0,0.0,0.0,0.0,0.0,0.0,0.0,0.0,0.0,3.2761,3.1206,3.0177,2.9574,2.8961,2.8566,2.8339,2.8191,2.7869,2.751,0.0,0.0,0.0,0.0,0.0,0.0,0.0,0.0,0.0,0.0,0.0,0.0,0.0,0.0,0.0,0.0,0.0,0.0,0.0,0.0,0.0,0.0,0.0,0.0,0.0,0.0,0.0,0.0,0.0,0.0,0.0,0.0,0.0,0.0,0.0,0.0,0.0,0.0,0.0,0.1251,-0.0716,0.0,0.0,0.0,0.0,0.0,0.0,0.0,0.0,-0.5435,0.0,0.0,0.0,0.0,0.0,0.0,0.0,0.0,0.0,0.0,0.0,0.0,0.0,0.0,0.0,0.0,0.0,0.0,0.0,0.0,0.0,0.0,0.0,0.0,0.0,0.0,0.0,0.0,0.0,0.0,0.0,0.0,0.0,0.0,0.0,0.0,0.0,0.0,0.0,0.0,0.0,0.0,0.0,0.0,0.0,0.0,0.0,0.0,0.0,0.0,0.0,0.0,0.0,0.0,0.0,3.1928,3.0506,2.9459,2.8609,2.8075,2.7765,2.7534,2.7534,2.7371,0.0,0.0,0.0,0.0,0.0,0.0,0.0,0.0,0.0,0.0,0.0,0.0,0.0,0.0,0.0,0.0,0.0,0.0,0.0,0.0,0.0,0.0,0.0,0.0,0.0,0.0,0.0,0.0,0.0,0.0,0.0,0.0,0.0,0.0,0.0,0.0,0.0,0.0,0.0,0.0,0.0,-0.1789,-0.2774,0.0,0.0,0.0,0.0,0.0,0.0,-0.5805,-0.6593,0.0,0.0,0.0,0.0,0.0,0.0,0.0,0.0,0.0,0.0,0.0,0.0,0.0,0.0,0.0,0.0,0.0,0.0,0.0,0.0,0.0,0.0,0.0,0.0,0.0,0.0,0.0,0.0,0.0,0.0,0.0,0.0,0.0,0.0,0.0,0.0,0.0,0.0,0.0,0.0,0.0,0.0,0.0,0.0,0.0,0.0,0.0,0.0,0.0,0.0,0.0,0.0,0.0,0.0,0.0,3.1093,2.982,2.8664,2.7637,2.7162,2.6951,2.6798,2.7033,2.6951,0.0,0.0,0.0,0.0,0.0,0.0,0.0,0.0,0.0,0.0,0.0,0.0,0.0,0.0,0.0,0.0,0.0,0.0,0.0,0.0,0.0,0.0,0.0,0.0,0.0,0.0,0.0,0.0,0.0,0.0,0.0,0.0,0.0,0.0,0.0,0.0,0.0,0.0,0.0,0.0,0.0,-0.2774,-0.3757,-0.465,0.0,0.0,0.0,0.0,-0.5985,-0.6861,0.0,0.0,0.0,0.0,0.0,0.0,0.0,0.0,0.0,0.0,0.0,0.0,0.0,0.0,0.0,0.0,0.0,0.0,0.0,0.0,0.0,0.0,0.0,0.0,0.0,0.0,0.0,0.0,0.0,0.0,0.0,0.0,0.0,0.0,0.0,0.0,0.0,0.0,0.0,0.0,0.0,0.0,0.0,0.0,0.0,0.0,0.0,0.0,0.0,0.0,0.0,0.0,0.0,0.0,0.0,0.0,3.0693,2.9098,2.7867,2.701,2.6528,2.6279,2.6279,2.6715,2.6727,0.0,0.0,0.0,0.0,0.0,0.0,0.0,0.0,0.0,0.0,0.0,0.0,0.0,0.0,0.0,0.0,0.0,0.0,0.0,0.0,0.0,0.0,0.0,0.0,0.0,0.0,0.0,0.0,0.0,0.0,0.0,0.0,0.0,0.0,0.0,0.0,0.0,0.0,0.0,0.0,0.0,-0.3939,-0.4741,-0.5633,-0.6251,0.0,0.0,-0.6962,-0.7224,-0.8185,0.0,0.0,0.0,0.0,0.0,0.0,0.0,0.0,0.0,0.0,0.0,0.0,0.0,0.0,0.0,0.0,0.0,0.0,0.0,0.0,0.0,0.0,0.0,0.0,0.0,0.0,0.0,0.0,0.0,0.0,0.0,0.0,0.0,0.0,0.0,0.0,0.0,0.0,0.0,0.0,0.0,0.0,0.0,0.0,0.0,0.0,0.0,0.0,0.0,0.0,0.0,0.0,0.0,0.0,0.0,3.1847,2.991,2.8469,2.7313,2.6373,2.6041,2.5874,2.6052,2.6467,2.6479,0.0,0.0,0.0,0.0,0.0,0.0,0.0,0.0,0.0,0.0,0.0,0.0,0.0,0.0,0.0,0.0,0.0,0.0,0.0,0.0,0.0,0.0,0.0,0.0,0.0,0.0,0.0,0.0,0.0,0.0,0.0,0.0,0.0,0.0,0.0,0.0,0.0,0.0,0.0,0.0,0.0,0.0,-0.6065,-0.6868,0.0,0.0,0.0,-0.8623,-0.9056,0.0,0.0,0.0,0.0,0.0,0.0,0.0,0.0,0.0,0.0,0.0,0.0,0.0,0.0,0.0,0.0,0.0,0.0,0.0,0.0,0.0,0.0,0.0,0.0,0.0,0.0,0.0,0.0,0.0,0.0,0.0,0.0,0.0,0.0,0.0,0.0,0.0,0.0,0.0,0.0,0.0,0.0,0.0,0.0,0.0,0.0,0.0,0.0,0.0,0.0,0.0,0.0,0.0,0.0,0.0,0.0,0.0,2.9127,2.7936,2.6846,2.5812,2.5654,2.5644,2.5812,2.6229,0.0,0.0,0.0,0.0,0.0,0.0,0.0,0.0,0.0,0.0,0.0,0.0,0.0,0.0,0.0,0.0,0.0,0.0,0.0,0.0,0.0,0.0,0.0,0.0,0.0,0.0,0.0,1.0393,0.0,0.0,0.0,0.0,0.0,0.0,0.0,0.0,0.0,0.0,0.0,0.0,0.0,0.0,-0.6413,-0.7471,-0.8269,-0.8803,0.0,0.0,-1.0438,-1.0859,-1.206,-1.3165,0.0,0.0,0.0,0.0,0.0,0.0,0.0,0.0,0.0,0.0,0.0,0.0,0.0,0.0,0.0,0.0,0.0,0.0,0.0,0.0,0.0,0.0,0.0,0.0,0.0,0.0,0.0,0.0,0.0,0.0,0.0,0.0,0.0,0.0,0.0,0.0,0.0,0.0,0.0,0.0,0.0,0.0,0.0,0.0,0.0,0.0,0.0,0.0,0.0,0.0,0.0,0.0,0.0,0.0,3.0716,2.8524,2.7487,2.6385,2.5285,2.5475,2.557,2.5644,2.5979,2.6157,0.0,0.0,0.0,0.0,0.0,0.0,0.0,0.0,0.0,0.0,0.0,0.0,0.0,0.0,0.0,0.0,0.0,0.0,0.0,0.0,0.0,0.0,0.0,0.0,0.0,0.0,0.0,0.0,0.0,0.0,0.0,0.0,0.0,0.0,0.0,0.0,0.0,0.0,0.0,0.0,0.0,-0.7986,-0.8952,-0.9653,-1.0265,0.0,-1.1536,-1.2298,-1.2729,-1.3911,-1.5011,-1.5455,0.0,0.0,0.0,0.0,0.0,0.0,0.0,0.0,0.0,0.0,0.0,0.0,0.0,0.0,0.0,0.0,0.0,0.0,0.0,0.0,0.0,0.0,0.0,0.0,0.0,0.0,0.0,0.0,0.0,0.0,0.0,0.0,0.0,0.0,0.0,0.0,0.0,0.0,0.0,0.0,0.0,0.0,0.0,0.0,0.0,0.0,0.0,0.0,0.0,0.0,0.0,0.0,0.0,3.0641,2.8457,2.7418,2.6479,2.5633,2.5654,2.5728,2.5979,2.6146,2.6074,0.0,0.0,0.0,0.0,0.0,0.0,0.0,0.0,0.0,0.0,0.0,0.0,0.0,0.0,0.0,0.0,0.0,0.0,0.0,0.0,0.0,0.0,0.0,0.0,0.0,0.0,0.0,0.0,0.6022,0.4687,0.321,0.0,0.0,0.0,0.0,0.0,0.0,0.0,0.0,0.0,0.0,-1.0307,-1.1353,-1.2219,0.0,0.0,-1.3917,-1.4497,-1.5004,-1.6085,-1.6993,-1.756,-1.8443,0.0,0.0,0.0,0.0,0.0,0.0,0.0,0.0,0.0,0.0,0.0,0.0,0.0,0.0,0.0,0.0,0.0,0.0,0.0,0.0,0.0,0.0,0.0,0.0,0.0,0.0,0.0,0.0,0.0,0.0,0.0,0.0,0.0,0.0,0.0,0.0,0.0,0.0,0.0,0.0,0.0,0.0,0.0,0.0,0.0,0.0,0.0,0.0,0.0,0.0,0.0,0.0,3.0517,2.8299,2.7418,2.655,2.5812,2.5728,2.5822,2.6063,2.6063,2.5895,0.0,0.0,0.0,0.0,0.0,0.0,0.0,0.0,0.0,0.0,0.0,0.0,0.0,0.0,0.0,0.0,0.0,0.0,0.0,0.0,0.0,0.0,0.0,0.0,0.0,0.0,0.0,0.0,0.4289,0.2772,0.0985,0.0,0.0,0.0,0.0,0.0,0.0,0.0,0.0,0.0,0.0,-1.2614,-1.373,-1.4504,-1.5177,-1.5523,-1.6343,-1.6974,-1.7474,-1.8554,-1.9533,-2.0165,0.0,0.0,0.0,0.0,0.0,0.0,0.0,0.0,0.0,0.0,0.0,0.0,0.0,0.0,0.0,0.0,0.0,0.0,0.0,0.0,0.0,0.0,0.0,0.0,0.0,0.0,0.0,0.0,0.0,0.0,4.3754,0.0,0.0,0.0,0.0,0.0,0.0,0.0,0.0,0.0,0.0,0.0,0.0,0.0,0.0,0.0,0.0,0.0,0.0,0.0,0.0,0.0,0.0,3.0177,2.8164,2.7487,2.6693,2.5644,2.5822,2.5895,2.5906,2.5728,2.5654,2.557,0.0,0.0,0.0,0.0,0.0,0.0,0.0,0.0,0.0,0.0,0.0,0.0,0.0,0.0,0.0,0.0,0.0,0.0,0.0,0.0,0.0,0.0,0.0,0.0,0.0,0.0,0.4026,0.2059,0.0448,0.0,0.0,0.0,0.0,0.0,0.0,0.0,0.0,0.0,0.0,-1.338,-1.465,-1.5831,-1.6413,-1.6919,-1.7585,-1.8679,-1.9652,-2.0158,-2.1475,-2.2676,0.0,0.0,0.0,0.0,0.0,0.0,0.0,0.0,0.0,0.0,0.0,0.0,0.0,0.0,0.0,0.0,0.0,0.0,0.0,0.0,0.0,0.0,0.0,0.0,0.0,0.0,0.0,4.4263,4.4175,0.0,0.0,0.0,0.0,0.0,0.0,0.0,0.0,0.0,0.0,0.0,3.9023,3.8772,0.0,0.0,0.0,0.0,0.0,0.0,0.0,0.0,0.0,0.0,0.0,0.0,2.9884,2.8359,2.7441,2.6715,2.6313,2.5979,2.5895,2.5895,2.5738,2.5221,2.4433,0.0,0.0,0.0,0.0,0.0,0.0,0.0,0.0,0.0,0.0,0.0,0.0,0.0,0.0,0.0,0.0,0.0,0.0,0.0,0.0,0.0,0.0,0.0,0.0,0.0,0.3217,0.0,0.0,0.0,0.0,0.0,0.0,0.0,0.0,0.0,0.0,0.0,-1.2862,-1.4282,-1.6024,-1.7446,-1.8257,-1.9297,-2.0033,0.0,0.0,0.0,0.0,0.0,0.0,0.0,0.0,0.0,0.0,0.0,0.0,0.0,0.0,-3.0744,-2.9929,-3.0591,-3.1438,-3.1947,0.0,0.0,0.0,0.0,0.0,0.0,0.0,0.0,0.0,0.0,0.0,0.0,0.0,0.0,4.4578,0.0,4.4158,0.0,0.0,0.0,0.0,0.0,0.0,0.0,0.0,3.9135,3.8701,3.8343,3.7943,3.7519,0.0,3.6585,3.6197,0.0,0.0,0.0,0.0,0.0,0.0,0.0,0.0,2.9447,2.8143,2.7371,2.6727,2.6396,2.599,2.5812,2.5822,2.5391,2.4711,2.357,2.2599,2.1704,0.0,0.0,0.0,0.0,0.0,0.0,0.0,0.0,0.0,0.0,0.0,0.0,0.0,0.0,0.0,0.0,0.0,0.0,0.0,0.0,0.0,0.0,0.0,0.0893,0.0,0.0,0.0,0.0,0.0,0.0,0.0,0.0,0.0,-1.1605,-1.3374,-1.5202,-1.6668,-1.8434,-1.9846,-2.0703,0.0,0.0,0.0,0.0,0.0,0.0,0.0,-2.7424,-2.8176,-2.9181,-3.0197,-3.091,-3.1623,-3.2449,-3.366,0.0,0.0,-3.2998,-3.3416,-3.4164,-3.4547,-3.5056,-3.5582,-3.6286,-3.6777,-3.7204,0.0,0.0,0.0,0.0,0.0,0.0,0.0,0.0,4.4712,4.443,0.0,4.3955,0.0,0.0,0.0,0.0,0.0,4.0203,0.0,0.0,3.8551,3.8157,3.7812,3.7417,3.6921,3.6322,3.5706,3.4912,3.4027,3.4528,0.0,0.0,0.0,0.0,0.0,0.0,2.8924,2.751,2.7126,2.6561,2.5895,2.5728,2.557,2.557,2.4882,2.4013,2.3144,2.2413,2.1615,2.0628,2.0102,0.0,0.0,0.0,0.0,0.0,0.0,0.0,0.0,0.0,0.0,0.0,0.0,0.0,0.0,0.0,0.0,0.0,0.0,0.0,0.0,0.0179,0.0,0.0,0.0,0.0,0.0,0.0,0.0,0.0,0.0,0.0,-1.4483,-1.5741,-1.7382,-1.9061,0.0,0.0,0.0,0.0,-2.4904,-2.5731,-2.6983,-2.8008,-2.8625,-2.9717,-3.0813,-3.1343,0.0,0.0,-3.4714,-3.5044,-3.5389,-3.6244,-3.6706,-3.6859,-3.6012,-3.6384,-3.6993,-3.7467,-3.7882,-3.839,-3.8772,-3.8983,-3.9385,4.5233,0.0,0.0,0.0,0.0,4.517,4.5014,4.4895,4.4549,4.4221,4.3918,4.3612,0.0,0.0,0.0,0.0,0.0,0.0,3.9189,3.8733,3.8132,3.7594,3.7147,3.6677,3.6102,3.532,3.4728,3.3988,3.3101,3.2777,3.2648,3.2605,0.0,0.0,0.0,0.0,2.8211,2.7522,2.6809,2.624,2.5906,2.5738,2.5391,2.4796,2.411,2.3319,2.2413,2.1356,2.0464,1.9646,1.9112,0.0,0.0,0.0,0.0,0.0,0.0,0.0,0.0,0.0,0.0,0.0,0.0,0.0,0.0,0.0,0.0,0.0,0.0,0.0,-0.1158,-0.2853,-0.437,0.0,0.0,0.0,0.0,0.0,0.0,0.0,0.0,0.0,-1.9691,-1.9746,-2.0193,0.0,0.0,-2.4537,-2.5306,-2.6564,-2.7648,-2.8176,-2.9438,0.0,-3.0983,-3.1973,-3.2947,-3.3378,-3.4455,-3.5434,-3.6054,-3.629,-3.6569,-3.7131,-3.7562,-3.7838,-3.8051,-3.8181,-3.8311,-3.8551,-3.8898,-3.9185,-3.9398,-3.9625,-3.9798,4.5235,4.5277,4.5277,4.5277,4.5297,4.5192,4.5057,4.487,4.4503,4.4114,4.3693,4.3373,4.2958,4.2436,4.1753,0.0,0.0,0.0,3.8733,3.8205,3.7743,3.727,3.6738,3.6117,3.54,3.461,3.3865,3.303,3.1969,3.1355,3.0996,3.0934,0.0,0.0,2.9394,2.8371,2.7672,2.7126,2.6479,2.599,2.5822,2.5475,2.5041,2.4378,2.3677,2.2882,2.1961,2.0808,1.982,1.9096,1.8558,1.8381,0.0,0.0,0.0,0.0,0.0,0.0,0.0,0.0,0.0,0.0,0.0,0.8197,0.669,0.0,0.0,0.0,0.0625,-0.1694,-0.4094,-0.5601,0.0,0.0,0.0,0.0,0.0,0.0,0.0,-1.8034,-1.9905,-2.169,-2.3377,-2.3627,-2.377,-2.4172,-2.5424,-2.6671,-2.7642,0.0,-3.0025,-3.0685,-3.1762,-3.2707,-3.3185,-3.3955,-3.4787,-3.5374,-3.6134,-3.6799,-3.7178,-3.7326,-3.7605,-3.7985,-3.8327,-3.8717,-3.9185,-3.9239,-3.9239,-3.9345,-3.9537,-3.9694,-3.9833,-3.9918,-3.9986,4.5235,4.5277,4.5277,4.5277,4.5297,4.5233,4.508,4.487,4.453,4.4084,4.3579,4.3286,4.2729,4.1959,4.0861,0.0,3.9332,3.8772,3.8262,3.7642,3.7314,3.6892,3.6429,3.5737,3.4876,3.4002,3.3115,3.2042,3.0872,3.0254,2.9664,2.9052,2.9406,2.9184,2.8431,2.7765,2.7196,2.6644,2.6146,2.5728,2.5559,2.5126,2.4615,2.411,2.3493,2.2599,2.1606,2.0439,1.9446,1.8735,1.8272,1.8087,1.8087,0.0,0.0,0.0,0.0,0.0,0.0,0.0,0.0,0.0,0.0,0.0,0.0,0.0,0.0,0.0,-0.2236,0.0,-0.6602,-0.8101,0.0,0.0,0.0,-1.3776,-1.5475,-1.7287,-1.9185,-2.1313,0.0,0.0,-2.5789,-2.709,-2.773,-2.7019,-2.7521,-2.851,-2.9839,-3.1017,-3.2105,-3.3087,-3.3959,-3.4647,-3.5029,-3.5627,-3.629,-3.7087,-3.7401,-3.7695,-3.81,-3.827,-3.8495,-3.8805,-3.9044,-3.9329,-3.9661,-3.9781,-3.9901,-3.9901,-3.9884,-3.9952,-4.0037,-4.007,-4.007,4.5297,4.5277,4.5277,4.5277,4.5297,4.5189,4.5038,4.487,4.4421,4.3943,4.3406,4.3087,4.2378,4.1373,4.0383,3.9629,3.9082,3.8303,3.7743,3.7433,3.6907,3.6476,3.61,3.5379,3.4505,3.3479,3.2632,3.169,3.0508,2.9883,2.9275,2.8657,2.8419,2.8271,2.8042,2.7383,2.688,2.6644,2.5979,2.5475,2.5126,2.4786,2.4282,2.3677,2.3144,2.2167,2.0736,1.9812,1.8904,1.8001,1.7815,1.7721,1.752,1.7721,0.0,0.0,0.0,0.0,0.0,0.0,0.0,0.0,0.0,0.5384,0.3305,0.0,0.0187,0.0,-0.5008,-0.8035,-1.0067,-1.161,0.0,0.0,-1.5987,-1.7483,-1.8938,-2.0559,-2.2089,-2.3578,-2.5262,-2.6776,-2.8037,-2.949,-3.0594,-3.101,-3.0824,-3.1003,-3.2031,-3.2975,-3.3876,-3.4566,-3.534,-3.5946,-3.618,-3.6769,-3.7476,-3.8124,-3.8407,-3.8684,-3.8865,-3.9028,-3.9169,-3.9309,-3.9468,-3.9677,-3.9833,-3.9935,-4.0037,-4.0037,-4.002,-4.0087,-4.0087,-4.0087,-4.0087,4.5277,4.5277,4.5277,4.5297,4.5254,4.517,4.5014,4.477,4.4393,4.3899,4.332,4.2616,4.1839,4.099,4.0086,3.9332,3.8678,3.8033,3.7449,3.7074,3.6677,3.6241,3.5733,3.5067,3.4085,3.2974,3.2042,3.0947,2.9819,2.9275,2.8645,2.7926,2.7696,2.7464,2.7301,2.6974,2.6561,2.6313,2.5633,2.5126,2.47,2.4444,2.4024,2.3319,2.2696,2.1624,2.0184,1.9363,1.855,1.7721,1.7542,1.7254,1.7052,1.677,1.6292,0.0,0.0,0.0,0.0,0.0,0.0,0.0,0.0,0.0,0.0,0.0,-0.2565,-0.548,-0.8227,-1.0739,-1.2864,-1.4391,-1.581,-1.7218,-1.8846,-2.0438,-2.1899,-2.341,-2.4886,-2.6221,-2.7675,-2.9037,-3.0128,-3.1349,-3.2478,-3.338,-3.3435,-3.3407,-3.3711,-3.4485,-3.5225,-3.5755,-3.6384,-3.6951,-3.7238,-3.7727,-3.8303,-3.881,-3.9135,-3.9382,-3.9575,-3.9627,-3.9696,-3.9781,-3.9833,-3.9884,-3.9986,-4.002,-4.0087,-4.0138,-4.0138,-4.0171,-4.0121,-4.0121,-4.0188,4.5621,4.5602,4.5507,4.5407,4.5322,4.5208,4.4986,4.4667,4.4365,4.3849,4.316,4.2068,4.13,4.0754,3.9902,3.9098,3.8335,3.7817,3.727,3.6662,3.6492,3.6067,3.5439,3.4654,3.3673,3.2547,3.1368,3.019,2.9052,2.8578,2.8018,2.7185,2.7196,2.6951,2.655,2.6479,2.6218,2.5812,2.52,2.4775,2.4454,2.4196,2.3764,2.296,2.2059,2.0979,1.9795,1.8896,1.8079,1.7527,1.7073,1.669,1.6393,1.5622,1.4949,0.0,1.3108,0.0,0.0,0.0,0.0,0.0,0.0,0.0,0.0,-0.2634,-0.5686,-0.9744,-1.1477,-1.3211,-1.5432,-1.6934,-1.8333,-1.9718,-2.1406,-2.3053,-2.4506,-2.596,-2.7415,-2.8814,-3.0114,-3.1193,-3.1901,-3.2847,-3.3837,-3.4699,-3.5355,-3.5597,-3.5389,-3.5788,-3.6306,-3.6784,-3.7222,-3.7754,-3.8214,-3.8567,-3.8898,-3.9382,-3.9644,-3.9867,-4.0121,-4.0121,-4.0121,-4.0121,-4.007,-4.0087,-4.0087,-4.0138,-4.0121,-4.0188,-4.0288,-4.0288,-4.0188,-4.0288,-4.0355,4.7341,4.7264,4.6557,4.6244,4.6115,4.5314,4.4821,4.4605,4.4248,4.3612,4.2842,4.1977,4.13,4.0754,3.9749,3.8865,3.8116,3.7254,3.6785,3.6476,3.594,3.5424,3.4935,3.4085,3.3087,3.1942,3.0908,2.9871,2.8803,2.8087,2.751,2.7185,2.6869,2.6467,2.6074,0.0,0.0,0.0,2.4956,2.469,2.4282,2.3851,2.3232,2.2325,2.1347,0.0,1.8796,1.8156,1.7412,1.6567,1.6204,0.0,0.0,0.0,0.0,0.0,0.0,0.0,0.0,0.0,0.0,0.0,-0.01,-0.1606,-0.2297,-0.6071,-0.9714,-1.2443,-1.4167,-1.5972,-1.8154,-1.9796,-2.1383,-2.2793,-2.4577,-2.6051,-2.7025,-2.8246,-2.9489,-3.0405,-3.1509,-3.2536,-3.3255,-3.4298,-3.524,-3.593,-3.6646,-3.7147,-3.7413,-3.7294,-3.7385,-3.7653,-3.8042,-3.8455,-3.8805,-3.9115,-3.9435,-3.985,-4.0171,-4.037,-4.0534,-4.0483,-4.0385,-4.0288,-4.0171,-4.0121,-4.0138,-4.0188,-4.0288,-4.0387,-4.0534,-4.0551,-4.0337,-4.0436,-4.0648,4.7799,0.0,4.7322,4.7102,0.0,4.5867,4.5278,4.5002,4.4246,4.3495,4.2745,4.1934,4.13,4.0754,3.9749,3.8865,3.8042,3.7222,3.6569,3.6226,3.5763,3.5162,3.4452,3.3589,3.2563,3.1341,3.0317,2.9238,2.8155,2.7592,2.7103,2.6539,2.6385,2.6063,2.5549,2.5295,2.5041,2.47,2.4615,2.4272,2.3667,2.3222,2.2403,2.123,2.0339,0.0,0.0,0.0,0.0,0.0,0.0,0.0,0.0,1.2818,0.0,1.048,0.9197,0.7809,0.6323,0.4214,0.2209,0.0301,-0.3404,-0.5705,-0.6098,-0.9372,-1.2369,-1.4797,-1.6465,-1.8268,-2.0352,-2.1887,-2.3461,-2.4946,-2.6532,-2.7844,-2.8942,-3.0037,-3.1031,-3.1974,-3.2961,-3.3876,-3.4537,-3.5419,-3.6275,-3.689,-3.7504,-3.8042,-3.8439,-3.8327,-3.827,-3.8495,-3.8772,-3.9115,-3.9398,-3.9592,-3.9901,-4.0288,-4.0502,-4.0631,-4.0776,-4.071,-4.0549,-4.0485,-4.0387,-4.032,-4.0387,-4.0436,-4.0551,-4.071,-4.0853,-4.0965,-4.0901,-4.0948,-4.0948,4.8258,4.8239,4.8105,4.7961,4.7743,4.6651,4.5857,4.5295,0.0,0.0,0.0,4.1934,4.13,4.0689,3.9732,3.8865,3.8001,3.7207,3.6492,3.591,3.5554,3.4883,3.3962,3.3087,3.2001,3.0745,2.9691,2.8621,2.7429,2.7103,2.6622,2.5979,2.5812,2.5549,2.5031,2.4625,2.4272,2.4282,2.411,2.3764,2.295,2.2403,2.1498,2.0051,1.933,1.8326,1.7138,1.6676,1.6109,1.5439,1.4465,1.3596,1.263,1.1165,0.9891,0.8704,0.722,0.5827,0.4524,0.2409,0.0201,-0.2002,-0.6677,-0.9669,-1.0168,-1.2308,-1.4613,-1.6814,-1.8656,-2.0468,-2.224,-2.373,-2.5189,-2.6719,-2.8084,-2.9422,-3.0493,-3.1623,-3.2577,-3.3422,-3.4312,-3.5109,-3.574,-3.6523,-3.7147,-3.7738,-3.8214,-3.8662,-3.9082,-3.9115,-3.9061,-3.9312,-3.947,-3.9644,-3.9884,-4.0104,-4.0337,-4.06,-4.0697,-4.0793,-4.084,-4.0776,-4.0728,-4.0697,-4.0614,-4.0614,-4.0662,-4.0728,-4.0853,-4.1053,-4.1237,-4.1391,-4.1631,-4.1542,-4.1436,4.9939,4.9901,4.9213,4.8838,4.8637,4.7451,4.6162,4.4841,4.3705,4.2994,4.257,4.1909,4.1255,4.0594,3.9525,3.8606,3.7685,3.6907,3.6289,3.5688,3.5067,3.4399,3.3589,3.2434,3.1341,3.0139,2.8912,2.7903,2.7267,2.6456,2.5979,2.5895,2.5454,2.5031,2.4615,2.3927,2.3493,2.3319,2.3493,2.3222,2.2492,2.1606,2.0619,1.9422,1.8419,1.7404,1.6379,1.5818,1.5051,1.3896,1.3017,1.2042,1.0877,0.9497,0.8209,0.6819,0.5527,0.3822,0.191,0.0101,-0.2706,-0.6979,-1.0325,-1.2297,-1.2603,-1.4696,-1.6872,-1.894,-2.0828,-2.2513,-2.3988,-2.5441,-2.6942,-2.8299,-2.9859,-3.1167,-3.206,-3.3059,-3.3988,-3.4595,-3.5464,-3.6165,-3.6814,-3.7504,-3.8026,-3.8551,-3.899,-3.9418,-3.9867,-3.9901,-3.9816,-3.9969,-4.007,-4.0188,-4.0238,-4.0453,-4.0583,-4.0697,-4.0793,-4.0888,-4.0935,-4.0836,-4.0772,-4.0728,-4.0724,-4.0737,-4.0802,-4.096,-4.1237,-4.1534,-4.1727,-4.1874,-4.2103,-4.2103,-4.2061,5.0236,5.0217,4.9806,4.9562,4.9333,4.805,4.6717,4.5493,4.4748,4.3754,4.2588,4.1892,4.1192,4.0449,3.9437,3.8495,3.7642,3.6862,3.6148,3.5544,3.4935,3.4182,3.3171,3.216,3.0895,2.9537,2.8291,2.7336,2.6456,2.5801,2.538,2.5137,2.47,2.4176,2.3754,2.3406,2.3067,2.2627,2.2794,2.2422,2.1436,2.0619,1.9438,1.8041,1.721,1.6379,1.5439,1.4758,1.3896,1.2926,1.176,1.048,0.9402,0.7915,0.6523,0.5122,0.3519,0.181,0.0,-0.3104,-0.6481,-1.0232,-1.2844,-1.4956,-1.6282,-1.7409,-1.8883,-2.0882,-2.2669,-2.432,-2.5898,-2.7233,-2.8615,-3.0075,-3.1288,-3.2393,-3.3478,-3.4312,-3.5073,-3.5785,-3.6415,-3.7087,-3.7679,-3.8254,-3.8772,-3.9239,-3.9696,-4.0104,-4.0453,-4.0485,-4.0387,-4.0337,-4.0436,-4.0502,-4.0502,-4.068,-4.0793,-4.0793,-4.0871,-4.0918,-4.1,-4.0948,-4.0995,-4.1059,-4.1071,-4.1174,-4.1328,-4.1507,-4.1744,-4.1984,-4.211,-4.2269,-4.2391,-4.2409,-4.2305,5.0163,5.0158,5.0108,4.9959,4.9684,4.8546,4.7411,4.6394,4.6029,4.4826,4.318,4.2271,4.1366,4.0334,3.9437,3.8495,3.7626,3.6862,3.61,3.535,3.4787,3.3977,3.2832,3.1796,3.0532,2.9003,2.7914,2.6787,2.5884,2.5295,2.4786,2.4282,2.3841,2.3309,2.296,2.2784,2.2432,2.182,2.1731,2.1257,2.0357,1.953,1.8326,1.6842,1.6285,1.5432,1.449,1.3709,1.2829,1.1858,1.0485,0.9106,0.7918,0.6423,0.4924,0.3419,0.1709,-0.0402,-0.2707,-0.658,-1.0134,-1.2764,-1.5139,-1.7487,-1.953,-2.0497,-2.138,-2.2892,-2.4565,-2.6251,-2.7773,-2.8893,-3.0215,-3.1729,-3.2664,-3.3656,-3.478,-3.5449,-3.6024,-3.6784,-3.7342,-3.7812,-3.8383,-3.8936,-3.9382,-3.9867,-4.0288,-4.0583,-4.0745,-4.084,-4.0776,-4.0745,-4.0697,-4.0745,-4.0745,-4.084,-4.0888,-4.0871,-4.0871,-4.0935,-4.1029,-4.1093,-4.1215,-4.138,-4.1471,-4.1631,-4.1874,-4.2002,-4.2127,-4.2374,-4.2472,-4.2512,-4.257,-4.249,-4.2387,5.0133,5.0031,5.0024,4.9797,4.9396,4.8949,4.8192,4.7314,4.6852,4.6009,4.4741,4.3411,4.1911,4.0334,3.9418,3.8488,3.7449,3.6785,3.6037,3.5234,3.4491,3.3534,3.2403,3.1281,2.9999,2.8779,2.7522,2.6467,2.5538,2.4871,2.4272,2.359,2.3144,2.2715,2.2432,2.1891,2.1266,2.0727,1.9911,1.9546,1.953,1.8427,1.7318,1.6278,1.5527,1.4669,1.3613,1.2823,1.1755,1.0288,0.9103,0.7819,0.6326,0.4924,0.3318,0.1609,-0.0101,-0.2807,-0.6985,-1.0232,-1.2758,-1.4975,-1.7579,-1.9867,-2.1841,-2.3937,-2.5146,-2.5481,-2.6744,-2.8287,-2.9551,-3.0605,-3.1775,-3.3059,-3.4187,-3.5175,-3.5913,-3.6631,-3.7178,-3.746,-3.7927,-3.8423,-3.899,-3.9504,-3.9986,-4.0436,-4.06,-4.0745,-4.084,-4.0888,-4.0935,-4.1,-4.0935,-4.0871,-4.0888,-4.0888,-4.0918,-4.0918,-4.0871,-4.0982,-4.1076,-4.1198,-4.1255,-4.1631,-4.1762,-4.1977,-4.2187,-4.231,-4.2414,-4.2631,-4.2727,-4.2727,-4.2609,-4.249,-4.2328,5.0745,5.0534,4.992,4.9427,4.9094,4.8855,4.8457,4.8034,4.7675,4.6924,4.5874,4.4822,4.3401,4.1665,4.0704,3.9503,3.8138,3.7281,3.6307,3.5184,3.4303,3.3325,3.2187,3.1132,2.9845,2.8383,2.7185,2.6113,2.5105,2.4176,2.3319,2.2715,2.2451,2.2185,2.183,2.1365,2.0718,1.9994,1.8988,1.8241,1.7591,1.703,1.6285,1.5146,1.428,1.3414,1.2452,1.1468,1.0382,0.9106,0.7717,0.6323,0.4924,0.3218,0.1508,-0.0402,-0.36,-0.6973,-1.0334,-1.2758,-1.5063,-1.7238,-1.9686,-2.1841,-2.371,-2.5981,-2.7556,-2.8251,-2.8995,-2.9948,-3.1228,-3.2236,-3.3296,-3.4403,-3.534,-3.6134,-3.686,-3.7342,-3.777,-3.8157,-3.8551,-3.9061,-3.9556,-4.0037,-4.0453,-4.0745,-4.084,-4.084,-4.0888,-4.0982,-4.1047,-4.1093,-4.1123,-4.1152,-4.1088,-4.1076,-4.1029,-4.1059,-4.1076,-4.1093,-4.1335,-4.1471,-4.1657,-4.1984,-4.2169,-4.2374,-4.2631,-4.2652,-4.2729,-4.2842,-4.2804,-4.2783,-4.2745,-4.257,-4.249,5.1405,5.1058,5.0059,4.9332,4.8943,4.8714,4.8624,4.8532,4.8208,4.7565,4.6752,4.6007,4.4799,4.3253,4.1788,4.0326,3.8912,3.7884,3.6814,3.56,3.4632,3.3633,3.2455,3.1454,3.0143,2.8629,2.7444,2.6201,2.4705,2.3436,2.253,2.2008,2.183,2.1562,2.1114,2.0736,1.9994,1.898,1.8048,1.7023,1.5906,1.5527,1.4956,1.41,1.3227,1.2349,1.1287,1.0194,0.9008,0.7816,0.6226,0.4724,0.3318,0.1407,-0.0702,-0.3401,-0.7171,-1.0427,-1.2962,-1.5158,-1.723,-1.9356,-2.1673,-2.369,-2.5503,-2.7556,-2.9397,-3.0631,-3.1093,-3.1815,-3.2706,-3.3685,-3.4633,-3.5642,-3.6384,-3.7071,-3.7637,-3.7985,-3.8399,-3.8843,-3.9152,-3.9592,-4.0087,-4.0551,-4.0858,-4.0965,-4.0965,-4.0995,-4.1012,-4.1123,-4.1215,-4.1307,-4.1471,-4.1453,-4.1318,-4.1244,-4.1215,-4.1244,-4.1244,-4.1307,-4.1587,-4.1805,-4.2002,-4.2315,-4.2516,-4.2729,-4.2882,-4.2957,-4.2864,-4.2882,-4.2824,-4.2783,-4.2783,-4.2688,-4.2649,5.1958,5.1555,5.0517,4.9684,4.9086,4.8876,4.8787,4.8733,4.8324,4.7955,4.7398,4.6628,4.5713,4.4565,4.2384,4.0636,3.9424,3.8546,3.7489,3.6394,3.5611,3.4613,3.3517,3.2397,3.1154,2.9666,2.8385,2.6573,2.4296,2.2856,2.2008,2.167,2.114,2.0671,2.0292,1.9646,1.8812,1.787,1.6842,1.5812,1.4777,1.3823,1.3431,1.3323,1.2554,1.1477,1.0391,0.9106,0.7717,0.6129,0.4826,0.3218,0.1408,-0.0502,-0.3501,-0.7575,-1.0325,-1.2764,-1.507,-1.7331,-1.9364,-2.1346,-2.3451,-2.5419,-2.7059,-2.8917,-3.0568,-3.2132,-3.2989,-3.363,-3.4109,-3.4846,-3.5691,-3.6538,-3.7342,-3.7985,-3.8455,-3.8733,-3.9131,-3.9504,-3.9764,-4.0138,-4.0728,-4.1,-4.1105,-4.118,-4.1209,-4.1255,-4.1363,-4.1363,-4.1542,-4.1762,-4.1831,-4.1762,-4.1498,-4.1471,-4.1471,-4.1542,-4.1587,-4.1542,-4.1788,-4.2068,-4.2356,-4.2616,-4.279,-4.2958,-4.3087,-4.305,-4.2921,-4.2902,-4.2824,-4.2804,-4.2804,-4.2688,-4.2688,5.2348,5.143,5.0342,4.9769,4.9546,4.8955,4.8697,4.866,4.8324,4.7992,4.7506,4.6671,4.58,4.4895,4.3313,4.1699,4.0151,3.9026,3.7724,3.6315,3.5272,3.4224,3.3209,3.2249,3.1034,2.964,2.8516,2.6665,2.4189,2.2917,2.1987,2.1239,2.0735,2.0247,1.9596,1.8988,1.8149,1.7023,1.5994,1.486,1.3721,1.2856,1.217,1.1575,1.0792,0.9998,0.8909,0.7425,0.6027,0.4728,0.3116,0.1408,-0.0402,-0.3604,-0.6976,-1.0325,-1.2475,-1.4785,-1.7323,-1.9273,-2.1248,-2.3278,-2.5314,-2.7047,-2.8591,-3.024,-3.1842,-3.2989,-3.4027,-3.4846,-3.5627,-3.6134,-3.6707,-3.7488,-3.81,-3.8678,-3.9007,-3.9329,-3.9556,-3.9935,-4.0238,-4.06,-4.0935,-4.1105,-4.1226,-4.1408,-4.1525,-4.1596,-4.1709,-4.1796,-4.1966,-4.2092,-4.2274,-4.2396,-4.2274,-4.2002,-4.1892,-4.1977,-4.2002,-4.2086,-4.2292,-4.2476,-4.275,-4.292,-4.3087,-4.316,-4.3232,-4.3123,-4.3032,-4.292,-4.2862,-4.2842,-4.288,-4.2804,-4.2786,5.2802,5.1695,5.0934,5.0398,4.9954,4.9343,4.8936,4.8697,4.8363,4.7974,4.7506,4.6624,4.5767,4.4875,4.3781,4.2372,4.0716,3.9497,3.8154,3.6751,3.5549,3.4411,3.3462,3.2478,3.1304,2.9757,2.8198,2.6152,2.4114,2.2781,2.1846,2.0968,2.0462,1.9894,1.9135,1.8411,1.7421,1.6204,1.5134,1.3998,1.2856,1.1878,1.09,0.9809,0.8913,0.8117,0.7425,0.5829,0.4325,0.3017,0.1307,-0.0803,-0.3407,-0.6694,-0.9853,-1.2475,-1.45,-1.6771,-1.9273,-2.1176,-2.3114,-2.5083,-2.6966,-2.8591,-3.0012,-3.1596,-3.2918,-3.4041,-3.4963,-3.5946,-3.689,-3.7385,-3.7738,-3.8286,-3.8788,-3.9222,-3.9627,-3.9799,-4.007,-4.0387,-4.0662,-4.0965,-4.1215,-4.1335,-4.1542,-4.178,-4.1856,-4.1948,-4.2115,-4.2279,-4.2458,-4.2519,-4.2732,-4.2864,-4.2808,-4.2655,-4.2436,-4.2476,-4.2414,-4.2534,-4.2652,-4.29,-4.305,-4.3196,-4.3322,-4.3358,-4.3305,-4.3196,-4.3086,-4.2938,-4.29,-4.29,-4.29,-4.29,-4.29,5.3216,5.2473,5.236,5.1528,5.0433,5.008,4.9633,4.8952,4.8494,4.8035,4.7488,4.6531,4.5597,4.4674,4.3621,4.2411,4.1166,3.9993,3.8766,3.7609,3.6392,3.5197,3.4074,3.3013,3.1707,3.0314,2.765,2.5417,2.3886,2.2529,2.1482,2.095,2.0168,1.9605,1.8972,1.7978,1.6683,1.5236,1.4328,1.3249,1.2073,1.0998,0.9809,0.8414,0.6921,0.6124,0.6121,0.4522,0.2815,0.1207,-0.0603,-0.3604,-0.7294,-0.9768,-1.1915,-1.4506,-1.6504,-1.8732,-2.1087,-2.3027,-2.4904,-2.6896,-2.8524,-3.0075,-3.1596,-3.2847,-3.4109,-3.5175,-3.5993,-3.6874,-3.7911,-3.8439,-3.8733,-3.8843,-3.9329,-3.9816,-4.0154,-4.0402,-4.0631,-4.0982,-4.1134,-4.1318,-4.156,-4.1692,-4.1909,-4.2187,-4.2333,-4.2476,-4.2634,-4.2788,-4.2975,-4.3105,-4.3214,-4.3286,-4.3267,-4.3267,-4.3124,-4.2995,-4.2826,-4.2806,-4.2975,-4.3142,-4.3196,-4.3358,-4.3375,-4.3428,-4.3322,-4.3233,-4.3105,-4.3013,-4.2975,-4.29,-4.29,-4.29,-4.29,5.3471,5.325,5.2658,5.2196,5.1714,5.0655,4.9951,4.9582,4.8734,4.7977,4.7342,4.6531,4.5665,4.4729,4.3604,4.2427,4.1162,3.9688,3.8324,3.7127,3.5736,3.4441,3.3275,3.2326,3.089,2.8888,2.6896,2.5092,2.3788,2.2498,2.1569,2.067,2.0142,1.946,1.8461,1.7527,1.6393,1.4881,1.3681,1.2428,1.1212,1.0109,0.8817,0.7325,0.5927,0.452,0.2913,0.2113,0.0905,-0.0703,-0.2708,-0.5795,-0.9743,-1.2002,-1.4201,-1.6843,-1.8533,-2.0613,-2.3104,-2.4883,-2.6628,-2.8555,-3.0265,-3.1688,-3.3017,-3.4216,-3.5275,-3.6182,-3.6935,-3.7796,-3.859,-3.9189,-3.9506,-3.961,-3.9901,-4.0271,-4.071,-4.1012,-4.1134,-4.129,-4.1408,-4.1542,-4.1805,-4.1959,-4.2234,-4.2534,-4.2747,-4.2918,-4.305,-4.3178,-4.3304,-4.341,-4.3513,-4.36,-4.3582,-4.3548,-4.3479,-4.3339,-4.3178,-4.3105,-4.3232,-4.3286,-4.3393,-4.341,-4.3479,-4.3444,-4.3322,-4.3251,-4.3178,-4.3068,-4.2994,-4.2938,-4.29,-4.29,-4.29,5.3616,5.3639,5.3159,5.2771,5.2531,5.1435,5.0638,4.9936,4.9042,4.8188,4.7353,4.6436,4.5631,4.4766,4.3588,4.2269,4.0982,3.9215,3.7515,3.6053,3.4815,3.3505,3.2314,3.1069,2.9624,2.7788,2.6264,2.4903,2.3529,2.2417,2.1399,2.0405,1.9882,1.9209,1.8103,1.715,1.5897,1.4259,1.3041,1.1734,1.0423,0.9153,0.7826,0.6226,0.4722,0.2814,0.0604,-0.0402,-0.1507,-0.3008,-0.5402,-0.8856,-1.2373,-1.4201,-1.6275,-1.8776,-2.0604,-2.2387,-2.4988,-2.6546,-2.8215,-3.0265,-3.1834,-3.3129,-3.4269,-3.5484,-3.6368,-3.7115,-3.7838,-3.859,-3.9279,-3.98,-4.0203,-4.0497,-4.0566,-4.0823,-4.1261,-4.1515,-4.1692,-4.1762,-4.1831,-4.1959,-4.211,-4.2315,-4.2537,-4.2844,-4.3068,-4.3233,-4.334,-4.3463,-4.3566,-4.3634,-4.3734,-4.3818,-4.3818,-4.3818,-4.3818,-4.3686,-4.355,-4.3463,-4.3463,-4.3428,-4.3444,-4.3444,-4.3479,-4.3463,-4.3358,-4.334,-4.3269,-4.316,-4.3031,-4.2994,-4.2938,-4.29,-4.29,5.3695,5.3714,5.3774,5.3329,5.2716,5.2381,5.149,5.0213,4.938,4.8496,4.7445,4.6429,4.5546,4.4712,4.3393,4.2045,4.0582,3.8561,3.6456,3.4722,3.3441,3.2364,3.1335,2.9624,2.8154,2.703,2.5877,2.4609,2.3229,2.2232,2.1105,2.0143,1.962,1.8704,1.762,1.6749,1.5372,1.368,1.2461,1.1152,0.9571,0.832,0.6736,0.5129,0.3318,0.1307,-0.0905,-0.321,-0.471,-0.5606,-0.8864,-1.1895,-1.4487,-1.6296,-1.8325,-2.0971,-2.2397,-2.4353,-2.6546,-2.8239,-2.9936,-3.1879,-3.3199,-3.4351,-3.5533,-3.6492,-3.737,-3.8084,-3.8701,-3.9332,-3.9952,-4.0449,-4.0879,-4.1328,-4.1318,-4.1426,-4.178,-4.1977,-4.2169,-4.2292,-4.2374,-4.2476,-4.2573,-4.2786,-4.2975,-4.3142,-4.3305,-4.3411,-4.3497,-4.3618,-4.3753,-4.3851,-4.3897,-4.3929,-4.3897,-4.3897,-4.3897,-4.3832,-4.3719,-4.3652,-4.3566,-4.3532,-4.3479,-4.3479,-4.3479,-4.3463,-4.3411,-4.3376,-4.334,-4.3233,-4.3123,-4.3031,-4.2994,-4.2956,-4.2938,5.3598,5.3695,5.3793,5.3663,5.3326,5.2654,5.194,5.1128,4.9567,4.8638,4.7722,4.6446,4.5546,4.4635,4.3273,4.1676,3.9878,3.7717,3.5479,3.3293,3.1452,3.0237,2.9257,2.806,2.6935,2.6081,2.5314,2.4322,2.302,2.2131,2.1105,2.0078,1.9472,1.861,1.737,1.6405,1.5112,1.343,1.2092,1.0642,0.8995,0.7811,0.6108,0.3822,0.2313,0.0,-0.2912,-0.6694,-0.8875,-0.9363,-1.1604,-1.4303,-1.6858,-1.8609,-2.0685,-2.3075,-2.4639,-2.6218,-2.833,-2.9961,-3.1589,-3.3309,-3.4626,-3.59,-3.6829,-3.7679,-3.8327,-3.892,-3.9385,-3.9952,-4.0497,-4.1036,-4.1596,-4.2074,-4.2068,-4.2019,-4.2151,-4.2436,-4.2691,-4.2729,-4.2788,-4.2902,-4.2995,-4.3087,-4.3178,-4.3322,-4.3393,-4.3516,-4.3566,-4.3686,-4.3786,-4.3883,-4.3929,-4.3942,-4.3974,-4.3974,-4.3974,-4.3942,-4.3832,-4.3686,-4.3618,-4.3532,-4.3513,-4.3479,-4.3479,-4.3463,-4.3463,-4.3446,-4.334,-4.3269,-4.3233,-4.3142,-4.3086,-4.3049,-4.2994,5.3598,5.3734,5.3754,5.3716,5.36,5.2939,5.2289,5.1578,5.0289,4.9198,4.8407,4.7278,4.632,4.5479,4.3633,4.1692,3.9715,3.709,3.4534,3.1981,2.9465,2.8049,2.7515,2.686,2.6187,2.5401,2.4824,2.3935,2.2828,2.1928,2.0909,1.9887,1.916,1.822,1.6842,1.5879,1.4635,1.3103,1.1634,1.0087,0.8452,0.7073,0.5139,0.2844,0.101,-0.1705,-0.58,-0.9457,-1.1526,-1.2297,-1.4028,-1.6397,-1.8899,-2.0622,-2.265,-2.5104,-2.6427,-2.8036,-2.9974,-3.1469,-3.2961,-3.4493,-3.5837,-3.6843,-3.7663,-3.8439,-3.9044,-3.9489,-4.0003,-4.0546,-4.11,-4.1683,-4.2274,-4.2655,-4.2806,-4.2729,-4.2634,-4.2902,-4.3069,-4.3142,-4.3214,-4.325,-4.3339,-4.3339,-4.3375,-4.3428,-4.3463,-4.3532,-4.36,-4.3719,-4.3818,-4.3915,-4.3961,-4.3974,-4.4005,-4.4005,-4.3974,-4.3942,-4.3865,-4.3771,-4.3652,-4.3532,-4.3532,-4.3479,-4.3479,-4.3479,-4.3463,-4.3481,-4.3411,-4.3376,-4.334,-4.3233,-4.316,-4.3086,-4.3031,5.36,5.3813,5.3753,5.3656,5.3576,5.3151,5.2473,5.1796,5.0836,5.0044,4.9185,4.826,4.7185,4.6709,4.4008,4.1928,3.9832,3.6571,3.3386,3.0557,2.7989,2.6456,2.6456,2.6063,2.5421,2.4726,2.4233,2.3529,2.2526,2.1725,2.0609,1.9576,1.8743,1.7582,1.6318,1.5345,1.404,1.2478,1.1074,0.9581,0.7867,0.6225,0.4252,0.1746,-0.1413,-0.4694,-0.8557,-1.1604,-1.3346,-1.4112,-1.6115,-1.8341,-2.0712,-2.2406,-2.4385,-2.6498,-2.8048,-2.9603,-3.1409,-3.2835,-3.4225,-3.5582,-3.6676,-3.7546,-3.8367,-3.899,-3.9575,-4.0053,-4.0563,-4.1082,-4.1709,-4.2356,-4.2826,-4.3178,-4.3428,-4.3428,-4.3339,-4.3321,-4.3426,-4.3532,-4.3597,-4.3563,-4.3582,-4.36,-4.3615,-4.3649,-4.3649,-4.3682,-4.3749,-4.38,-4.3865,-4.3929,-4.3961,-4.4005,-4.4005,-4.4005,-4.3974,-4.3942,-4.3851,-4.3719,-4.3566,-4.3513,-4.3479,-4.3479,-4.3479,-4.3479,-4.3479,-4.3463,-4.3481,-4.3446,-4.3393,-4.3305,-4.3215,-4.316,-4.3105,5.3716,5.3813,5.3753,5.3518,5.3217,5.2857,5.2409,5.195,5.0744,5.0143,4.9485,4.8216,4.7193,4.6301,4.3987,4.1553,3.9061,3.5751,3.2337,2.8509,2.6981,2.5907,2.5543,2.5102,2.4566,2.4062,2.3637,2.312,2.2325,2.142,2.0506,1.9576,1.8541,1.7272,1.5773,1.4809,1.3511,1.1882,1.0534,0.9026,0.718,0.5441,0.3136,0.0206,-0.4038,-0.7779,-1.0715,-1.3442,-1.5732,-1.7502,-1.8883,-2.0506,-2.2562,-2.4385,-2.624,-2.8024,-2.9693,-3.1201,-3.2721,-3.409,-3.5424,-3.6615,-3.7648,-3.8551,-3.9098,-3.9696,-4.0204,-4.0628,-4.1036,-4.1578,-4.2338,-4.2884,-4.3232,-4.3566,-4.3734,-4.38,-4.3814,-4.3781,-4.3749,-4.3781,-4.3814,-4.3846,-4.386,-4.3814,-4.3846,-4.386,-4.386,-4.3892,-4.391,-4.3942,-4.3992,-4.4023,-4.4023,-4.4055,-4.4085,-4.4055,-4.3992,-4.3929,-4.3818,-4.3719,-4.3566,-4.3479,-4.3479,-4.3479,-4.3479,-4.3479,-4.3479,-4.3479,-4.3463,-4.3463,-4.3463,-4.3358,-4.3305,-4.3214,-4.3142,5.3695,5.3716,5.3598,5.3318,5.2987,5.259,5.2304,5.1964,5.1162,5.0712,5.0365,4.9246,4.8282,4.7223,4.4541,4.1805,3.8349,3.3707,2.9958,2.7219,2.5947,2.5136,2.4578,2.423,2.3919,2.3538,2.3108,2.2644,2.203,2.1224,2.0308,1.948,1.8534,1.7166,1.5559,1.4379,1.2861,1.1227,0.9809,0.8329,0.6491,0.4402,0.1042,-0.2652,-0.6924,-1.0347,-1.2855,-1.5422,-1.7864,-2.0065,-2.1655,-2.2882,-2.4139,-2.5931,-2.7716,-2.9437,-3.1114,-3.2579,-3.3984,-3.531,-3.6477,-3.7488,-3.8367,-3.9028,-3.9662,-4.0204,-4.0693,-4.1053,-4.1507,-4.2068,-4.2844,-4.3232,-4.3529,-4.3767,-4.3915,-4.3942,-4.3955,-4.3974,-4.3961,-4.3961,-4.4011,-4.4023,-4.4036,-4.4067,-4.4079,-4.4091,-4.4091,-4.4091,-4.403,-4.4079,-4.4116,-4.4116,-4.4135,-4.4135,-4.4147,-4.4085,-4.4011,-4.3915,-4.3837,-4.3686,-4.3566,-4.3532,-4.3479,-4.3479,-4.3479,-4.3479,-4.3479,-4.3479,-4.3479,-4.3479,-4.3463,-4.3463,-4.3393,-4.334,-4.3251,5.3656,5.3674,5.3378,5.3109,5.285,5.2397,5.2114,5.1987,5.1658,5.1296,5.1158,5.0692,4.955,4.827,4.5027,4.165,3.6764,3.1861,2.7462,2.6153,2.5243,2.4623,2.4029,2.3785,2.3511,2.3281,2.2741,2.2155,2.1546,2.0814,2.0101,1.9272,1.8331,1.6942,1.5339,1.3938,1.2309,1.0566,0.914,0.7362,0.5431,0.3233,-0.0623,-0.5839,-0.9265,-1.2271,-1.4937,-1.7472,-1.9966,-2.2318,-2.4544,-2.5648,-2.6311,-2.7302,-2.8983,-3.0803,-3.2423,-3.3833,-3.518,-3.6353,-3.7429,-3.8214,-3.8903,-3.9542,-4.0103,-4.0611,-4.1036,-4.1534,-4.1984,-4.2534,-4.316,-4.3461,-4.3716,-4.3897,-4.4023,-4.4036,-4.4036,-4.4036,-4.4067,-4.4055,-4.4135,-4.4177,-4.4248,-4.4288,-4.4279,-4.4308,-4.4308,-4.4298,-4.425,-4.424,-4.4277,-4.4266,-4.4255,-4.4255,-4.4237,-4.4165,-4.4073,-4.3934,-4.3804,-4.3686,-4.3566,-4.3532,-4.3479,-4.3479,-4.3479,-4.3479,-4.3479,-4.3479,-4.3479,-4.3479,-4.3479,-4.3463,-4.3428,-4.3411,-4.334,5.3637,5.3499,5.3212,5.2831,5.2454,5.2096,5.1871,5.174,5.1487,5.135,5.1228,5.0675,5.0005,4.8207,4.4532,3.8934,3.2858,2.8485,2.6402,2.5368,2.4732,2.4319,2.4023,2.3528,2.3245,2.2814,2.2328,2.1808,2.1272,2.0601,1.9887,1.9168,1.7996,1.6505,1.49,1.328,1.1651,0.9794,0.8364,0.6586,0.4322,0.1508,-0.2381,-0.81,-1.1385,-1.4254,-1.7072,-1.9653,-2.2007,-2.4193,-2.6349,-2.8032,-2.917,-2.9986,-3.1135,-3.2396,-3.3819,-3.5195,-3.6291,-3.7294,-3.8197,-3.892,-3.9558,-4.0103,-4.0594,-4.1036,-4.1507,-4.2026,-4.2555,-4.3105,-4.341,-4.3701,-4.3897,-4.4073,-4.4184,-4.4195,-4.4226,-4.4237,-4.4255,-4.4226,-4.4285,-4.4354,-4.4449,-4.4568,-4.4655,-4.4688,-4.4732,-4.4681,-4.4648,-4.4541,-4.4477,-4.444,-4.4373,-4.4354,-4.4383,-4.4255,-4.4135,-4.3947,-4.3818,-4.3686,-4.3566,-4.3532,-4.3479,-4.3479,-4.3479,-4.3479,-4.3479,-4.3479,-4.3479,-4.3479,-4.3479,-4.3479,-4.3463,-4.3446,-4.3411,5.3558,5.3258,5.2919,5.2563,5.2257,5.1938,5.179,5.1808,5.1658,5.1607,5.1487,5.1193,5.0642,4.8574,4.3753,3.6775,2.9926,2.676,2.5305,2.4556,2.4239,2.4041,2.388,2.3312,2.2836,2.2371,2.1925,2.1578,2.1248,2.0498,1.9776,1.8833,1.7674,1.608,1.4363,1.2847,1.0996,0.9247,0.759,0.5693,0.3003,-0.0538,-0.5679,-0.9788,-1.3559,-1.6572,-1.9512,-2.203,-2.4386,-2.6467,-2.8482,-3.0224,-3.164,-3.2723,-3.3391,-3.4129,-3.5165,-3.6291,-3.7279,-3.8181,-3.892,-3.9558,-4.007,-4.058,-4.1053,-4.1463,-4.1941,-4.2516,-4.2902,-4.3356,-4.3652,-4.3832,-4.3992,-4.4184,-4.4274,-4.4314,-4.4373,-4.4401,-4.443,-4.4458,-4.4496,-4.456,-4.4719,-4.4846,-4.4991,-4.5061,-4.5129,-4.5061,-4.4967,-4.4846,-4.47,-4.4667,-4.4632,-4.4578,-4.4532,-4.4364,-4.4177,-4.3992,-4.3818,-4.3719,-4.36,-4.3513,-4.3479,-4.3479,-4.3479,-4.3479,-4.3479,-4.3479,-4.3479,-4.3479,-4.3479,-4.3479,-4.3497,-4.3463,-4.3446,5.34,5.303,5.2635,5.2351,5.2054,5.174,5.1758,5.1875,5.1875,5.1907,5.1907,5.1601,5.07,4.7561,4.1205,3.3594,2.6289,2.4948,2.4103,2.3664,2.3456,2.336,2.3151,2.2767,2.2299,2.1842,2.1396,2.1258,2.0972,2.0292,1.9561,1.8513,1.7252,1.566,1.3938,1.2195,1.0453,0.8585,0.6924,0.4686,0.0877,-0.3948,-0.8849,-1.2566,-1.5825,-1.8953,-2.1914,-2.4429,-2.6597,-2.8602,-3.0537,-3.2242,-3.3704,-3.5091,-3.5791,-3.5917,-3.6507,-3.7397,-3.8181,-3.8903,-3.9542,-4.0103,-4.0614,-4.1041,-4.1507,-4.1924,-4.2378,-4.2976,-4.3321,-4.3563,-4.3832,-4.3974,-4.4147,-4.4285,-4.4401,-4.4496,-4.4578,-4.4613,-4.4693,-4.4719,-4.4719,-4.4796,-4.4943,-4.5065,-4.5216,-4.5239,-4.532,-4.5279,-4.5175,-4.5042,-4.4948,-4.4943,-4.4914,-4.484,-4.4719,-4.4541,-4.4288,-4.4036,-4.3865,-4.3719,-4.36,-4.3479,-4.3479,-4.3479,-4.3479,-4.3479,-4.3479,-4.3479,-4.3479,-4.3479,-4.3479,-4.3479,-4.3479,-4.3479,-4.3497,5.3151,5.2806,5.2351,5.2084,5.1907,5.1658,5.1658,5.1907,5.1925,5.1956,5.2084,5.1665,4.917,4.3342,3.4992,2.8757,2.5169,2.3536,2.2788,2.2554,2.2449,2.2449,2.2281,2.1877,2.1736,2.1271,2.094,2.0631,2.0473,1.999,1.9146,1.7989,1.6505,1.5018,1.3068,1.1437,0.9684,0.7479,0.581,0.242,-0.2462,-0.6854,-1.0746,-1.4447,-1.7949,-2.1201,-2.408,-2.6608,-2.8782,-3.0624,-3.254,-3.41,-3.5443,-3.6538,-3.7488,-3.7895,-3.8238,-3.8407,-3.9028,-3.9594,-4.0103,-4.0659,-4.1071,-4.1525,-4.1984,-4.2498,-4.2939,-4.3356,-4.3649,-4.3878,-4.4067,-4.4248,-4.4411,-4.4524,-4.4613,-4.4745,-4.4846,-4.487,-4.4943,-4.5019,-4.5,-4.5065,-4.5192,-4.53,-4.54,-4.5438,-4.5457,-4.5419,-4.5341,-4.5239,-4.5154,-4.5148,-4.5103,-4.5033,-4.4846,-4.4674,-4.4383,-4.4109,-4.3878,-4.3719,-4.36,-4.3479,-4.3479,-4.3479,-4.3479,-4.3479,-4.3479,-4.3479,-4.3479,-4.3479,-4.3479,-4.3479,-4.3479,-4.3479,-4.3479,5.2769,5.2472,5.2114,5.184,5.1658,5.1556,5.1708,5.1938,5.2005,5.215,5.2293,5.2246,4.7752,3.9335,3.1993,2.6778,2.327,2.2222,2.201,2.2002,2.2002,2.2108,2.1971,2.1597,2.12,2.1009,2.0605,2.0061,1.9806,1.925,1.8513,1.7239,1.5642,1.3927,1.2082,1.0453,0.8692,0.6246,0.3227,-0.0878,-0.5367,-0.9406,-1.3333,-1.7124,-2.0598,-2.3607,-2.6337,-2.8782,-3.0813,-3.2524,-3.4278,-3.5649,-3.6675,-3.7648,-3.8511,-3.9115,-3.9365,-3.9506,-3.9714,-4.0153,-4.0642,-4.1082,-4.1507,-4.1941,-4.2476,-4.2902,-4.3356,-4.3682,-4.391,-4.4097,-4.4306,-4.4477,-4.4613,-4.4745,-4.4846,-4.4967,-4.5084,-4.5148,-4.5192,-4.5258,-4.5301,-4.532,-4.536,-4.54,-4.5476,-4.5513,-4.5513,-4.5495,-4.5457,-4.5342,-4.532,-4.5298,-4.5256,-4.5213,-4.4991,-4.4802,-4.4486,-4.417,-4.3929,-4.3753,-4.3566,-4.3479,-4.3479,-4.3479,-4.3479,-4.3479,-4.3479,-4.3479,-4.3479,-4.3479,-4.3479,-4.3479,-4.3479,-4.3479,-4.3479,5.2408,5.206,5.192,5.174,5.1556,5.1556,5.174,5.2102,5.215,5.2293,5.1508,4.9328,4.275,3.4918,2.902,2.4433,2.1281,2.1439,2.1554,2.166,2.1759,2.1714,2.1481,2.1171,2.0854,2.0755,1.9994,1.9524,1.8959,1.8304,1.745,1.628,1.4787,1.295,1.1101,0.9343,0.7357,0.4239,0.0223,-0.3736,-0.7867,-1.1931,-1.5844,-1.962,-2.3207,-2.6363,-2.8706,-3.0973,-3.2886,-3.4143,-3.5664,-3.6933,-3.7921,-3.8629,-3.9259,-3.9833,-4.0154,-4.0385,-4.0466,-4.0737,-4.1128,-4.1534,-4.1966,-4.2418,-4.2902,-4.3286,-4.3597,-4.3942,-4.4158,-4.4364,-4.4551,-4.4738,-4.4827,-4.4972,-4.5084,-4.5173,-4.5237,-4.5279,-4.536,-4.5419,-4.5438,-4.5457,-4.5476,-4.5495,-4.555,-4.5586,-4.5586,-4.5568,-4.5513,-4.5457,-4.5457,-4.5419,-4.538,-4.5319,-4.5148,-4.49,-4.4595,-4.4288,-4.4023,-4.3786,-4.3615,-4.3548,-4.3532,-4.3532,-4.3479,-4.3479,-4.3479,-4.3479,-4.3479,-4.3479,-4.3479,-4.3479,-4.3479,-4.3479,-4.3479,5.1969,5.174,5.174,5.169,5.169,5.169,5.184,5.215,5.2246,5.2119,5.032,4.2738,3.5181,2.8261,2.4571,2.1662,2.0723,2.1081,2.1203,2.1203,2.1189,2.1156,2.0891,2.0553,2.0192,1.9927,1.9447,1.8772,1.8016,1.7147,1.6293,1.5334,1.3819,1.1978,1.0002,0.7904,0.4899,0.1559,-0.2447,-0.6039,-1.0016,-1.4207,-1.8397,-2.2146,-2.5883,-2.9,-3.1035,-3.3193,-3.4752,-3.5733,-3.7074,-3.8035,-3.8865,-3.9454,-3.9969,-4.0483,-4.0772,-4.1007,-4.122,-4.1311,-4.1596,-4.2026,-4.2516,-4.2921,-4.3267,-4.3649,-4.3942,-4.417,-4.4393,-4.4613,-4.484,-4.501,-4.5065,-4.5175,-4.5279,-4.5341,-4.54,-4.5438,-4.5495,-4.5569,-4.5568,-4.5568,-4.5568,-4.5568,-4.5568,-4.5586,-4.5586,-4.5586,-4.5586,-4.5531,-4.5549,-4.5532,-4.5495,-4.54,-4.5277,-4.4995,-4.47,-4.443,-4.4188,-4.391,-4.3682,-4.3615,-4.36,-4.3513,-4.3513,-4.3479,-4.3479,-4.3479,-4.3479,-4.3479,-4.3479,-4.3479,-4.3479,-4.3479,-4.3479,5.1987,5.1808,5.1808,5.1758,5.169,5.1808,5.2005,5.234,5.2397,5.0211,4.6777,3.9732,3.3077,2.7178,2.241,2.0385,2.0723,2.0838,2.0845,2.0967,2.1045,2.0892,2.0601,2.0274,2.0069,1.9747,1.9132,1.8443,1.7694,1.6299,1.5013,1.3825,1.2521,1.0773,0.8682,0.568,0.2228,-0.1001,-0.4657,-0.8346,-1.2679,-1.6863,-2.1056,-2.5117,-2.8423,-3.126,-3.3451,-3.5395,-3.655,-3.753,-3.8631,-3.9303,-3.9729,-4.0204,-4.0594,-4.1036,-4.1328,-4.1578,-4.1796,-4.1899,-4.2068,-4.2595,-4.2976,-4.3303,-4.3597,-4.3846,-4.4128,-4.4393,-4.4613,-4.4821,-4.5038,-4.5192,-4.5298,-4.538,-4.5438,-4.5495,-4.5532,-4.555,-4.5568,-4.5586,-4.5586,-4.5586,-4.5586,-4.5586,-4.5586,-4.5586,-4.5586,-4.5586,-4.5586,-4.5586,-4.5586,-4.5568,-4.5513,-4.5477,-4.5359,-4.5084,-4.4821,-4.4568,-4.4317,-4.4109,-4.386,-4.3734,-4.3719,-4.36,-4.3513,-4.3479,-4.3479,-4.3479,-4.3479,-4.3479,-4.3479,-4.3479,-4.3479,-4.3479,-4.3479,5.1956,5.1925,5.1925,5.1858,5.184,5.1956,5.2198,5.2536,5.2733,4.943,4.3491,3.8824,3.3119,2.7045,2.2049,1.9897,2.0148,2.0378,2.0608,2.0615,2.0709,2.0615,2.0305,1.9996,1.9802,1.9461,1.8801,1.801,1.7047,1.5547,1.3927,1.2413,1.0887,0.913,0.713,0.3232,-0.0446,-0.356,-0.7073,-1.0966,-1.5428,-1.9697,-2.3689,-2.767,-3.1077,-3.3542,-3.5634,-3.7351,-3.8587,-3.9273,-3.9956,-4.0522,-4.0794,-4.0987,-4.1283,-4.1596,-4.1856,-4.2092,-4.2257,-4.2476,-4.2595,-4.3014,-4.3286,-4.3615,-4.3846,-4.4036,-4.4306,-4.4587,-4.4796,-4.4991,-4.5216,-4.536,-4.5438,-4.5476,-4.5495,-4.555,-4.5568,-4.5586,-4.5586,-4.5586,-4.5586,-4.5586,-4.5586,-4.5586,-4.5586,-4.5586,-4.5586,-4.5586,-4.5586,-4.5586,-4.5586,-4.5568,-4.5513,-4.5458,-4.5379,-4.5192,-4.4967,-4.4796,-4.4541,-4.4298,-4.4091,-4.3942,-4.3786,-4.3615,-4.3548,-4.3513,-4.3479,-4.3497,-4.3479,-4.3479,-4.3479,-4.3479,-4.3479,-4.3479,-4.3479,5.1808,5.1925,5.1925,5.2005,5.2132,5.2264,5.2415,5.274,5.3111,4.9551,4.315,3.8267,3.2293,2.6091,2.0726,1.9618,1.9693,2.004,2.0277,2.0277,2.0371,2.0153,1.9932,1.9757,1.9513,1.8801,1.8115,1.7259,1.6293,1.4358,1.2738,1.0765,0.8896,0.7133,0.6137,0.1672,-0.2563,-0.6107,-0.9806,-1.3859,-1.8121,-2.2455,-2.637,-3.0008,-3.3341,-3.5871,-3.7748,-3.9313,-4.0448,-4.1042,-4.1359,-4.1834,-4.2305,-4.1946,-4.2051,-4.2347,-4.2486,-4.2631,-4.2711,-4.2995,-4.3214,-4.3338,-4.3615,-4.3832,-4.4005,-4.4218,-4.4477,-4.477,-4.4967,-4.5173,-4.5341,-4.5457,-4.5513,-4.5531,-4.5568,-4.5586,-4.5586,-4.5586,-4.5586,-4.5586,-4.5586,-4.5586,-4.5586,-4.5586,-4.5586,-4.5586,-4.5586,-4.5586,-4.5586,-4.5586,-4.5586,-4.5568,-4.5513,-4.5476,-4.54,-4.5297,-4.5125,-4.4943,-4.4745,-4.4522,-4.4298,-4.4109,-4.391,-4.3682,-4.3548,-4.3513,-4.3532,-4.3532,-4.3532,-4.3513,-4.3479,-4.3479,-4.3479,-4.3479,-4.3479,5.1907,5.2036,5.2102,5.234,5.2536,5.249,5.2733,5.3343,5.3418,4.86,3.9814,3.6767,3.0218,2.2807,1.9893,1.9004,1.9584,1.97,1.9931,2.0046,2.0155,1.9871,1.9632,1.94,1.9132,1.8478,1.747,1.6299,1.5114,1.328,1.1542,0.9677,0.645,0.4012,0.2116,-0.1336,-0.4886,-0.8397,-1.2276,-1.6396,-2.0599,-2.4804,-2.8765,-3.2386,-3.5437,-3.7855,-3.9703,-4.1198,-4.2103,-4.2651,-4.298,-4.3392,-4.3568,-4.3233,-4.3138,-4.3238,-4.3312,-4.3123,-4.3303,-4.3563,-4.3716,-4.3781,-4.3846,-4.4055,-4.4296,-4.444,-4.4712,-4.4919,-4.5087,-4.5281,-4.5419,-4.5513,-4.5586,-4.5586,-4.5586,-4.5586,-4.5586,-4.5586,-4.5586,-4.5586,-4.5586,-4.5586,-4.5586,-4.5836,-4.5874,-4.5913,-4.5951,-4.5701,-4.5624,-4.5605,-4.5586,-4.5586,-4.555,-4.5495,-4.5438,-4.532,-4.5256,-4.5125,-4.4943,-4.477,-4.4513,-4.4258,-4.4036,-4.3814,-4.3682,-4.3566,-4.3566,-4.3566,-4.3513,-4.3513,-4.3479,-4.3479,-4.3479,-4.3479,-4.3479,5.2023,5.2198,5.2311,5.2599,5.2875,5.2839,5.3244,5.408,5.4694,4.9017,4.0535,3.7571,3.1246,2.2993,1.9203,1.8765,1.9461,1.9591,1.9707,1.9707,1.9815,1.9546,1.9306,1.9078,1.8543,1.7835,1.6723,1.5441,1.4148,1.2191,0.9779,0.6901,0.3674,0.1001,-0.1446,-0.4436,-0.7506,-1.119,-1.5346,-1.9453,-2.342,-2.7345,-3.1093,-3.4268,-3.7073,-3.9466,-4.1317,-4.2671,-4.363,-4.4139,-4.4539,-4.4864,-4.4778,-4.4653,-4.4447,-4.4411,-4.4163,-4.3899,-4.3841,-4.391,-4.4023,-4.4177,-4.4158,-4.4248,-4.4496,-4.4632,-4.4827,-4.5065,-4.5199,-4.5361,-4.5495,-4.5586,-4.5586,-4.5586,-4.5586,-4.5586,-4.5586,-4.5586,-4.5643,-4.5643,-4.5759,-4.572,-4.5778,-4.6009,-4.624,-4.6278,-4.6317,-4.6047,-4.5797,-4.572,-4.5701,-4.5701,-4.5607,-4.5513,-4.5457,-4.538,-4.532,-4.5298,-4.5125,-4.4938,-4.4674,-4.4412,-4.417,-4.3974,-4.3846,-4.3734,-4.3667,-4.3634,-4.3582,-4.3513,-4.3479,-4.3479,-4.3479,-4.3479,-4.3479,5.2071,5.2311,5.2452,5.2743,5.3138,5.3341,5.4006,5.4882,5.4882,5.0869,4.4421,3.7719,3.0813,2.558,2.062,1.8829,1.8997,1.9359,1.9482,1.9455,1.9414,1.9138,1.8952,1.8611,1.805,1.6996,1.5767,1.4471,1.3073,1.0441,0.7462,0.4345,0.1336,-0.1888,-0.4762,-0.7929,-1.0854,-1.4479,-1.8313,-2.2348,-2.6263,-2.9935,-3.3168,-3.6092,-3.8603,-4.0655,-4.2314,-4.3522,-4.4589,-4.5199,-4.5563,-4.5873,-4.5984,-4.5885,-4.5805,-4.559,-4.5199,-4.4794,-4.4326,-4.4377,-4.4381,-4.4477,-4.4477,-4.4524,-4.4659,-4.4821,-4.5019,-4.5178,-4.5322,-4.5438,-4.5568,-4.5586,-4.5586,-4.5586,-4.5586,-4.5586,-4.5586,-4.5624,-4.5701,-4.5797,-4.6009,-4.6105,-4.6297,-4.6509,-4.6913,-4.7009,-4.7048,-4.6894,-4.6567,-4.6028,-4.599,-4.5913,-4.578,-4.5569,-4.5476,-4.5438,-4.5361,-4.5319,-4.5213,-4.5033,-4.4777,-4.4549,-4.4374,-4.4188,-4.4005,-4.3897,-4.3832,-4.3716,-4.3615,-4.3548,-4.3479,-4.3479,-4.3479,-4.3479,-4.3479,5.2415,5.2518,5.2813,5.3244,5.3831,5.4524,5.5052,5.4869,5.0801,4.4984,3.8612,3.2486,2.6979,2.0491,1.9226,1.9047,1.9127,1.9366,1.9366,1.9305,1.9165,1.905,1.8642,1.8141,1.7391,1.6316,1.5013,1.3393,1.1315,0.8575,0.5351,0.2121,-0.1112,-0.4538,-0.8352,-1.2131,-1.4773,-1.7674,-2.1454,-2.5053,-2.871,-3.2251,-3.5182,-3.7736,-3.9925,-4.1789,-4.3207,-4.4249,-4.525,-4.6042,-4.6447,-4.6898,-4.7411,-4.6978,-4.6599,-4.617,-4.599,-4.5774,-4.5208,-4.5215,-4.519,-4.4919,-4.4871,-4.4914,-4.4991,-4.5065,-4.5178,-4.5302,-4.5419,-4.5513,-4.5568,-4.5586,-4.5586,-4.5586,-4.5663,-4.5836,-4.5874,-4.6028,-4.6124,-4.6528,-4.6701,-4.6932,-4.7086,-4.7413,-4.7778,-4.7836,-4.7855,-4.7778,-4.7432,-4.6913,-4.6528,-4.6451,-4.6049,-4.584,-4.5591,-4.5496,-4.5438,-4.536,-4.5235,-4.5103,-4.4919,-4.4726,-4.456,-4.4364,-4.4188,-4.4067,-4.3942,-4.3846,-4.3734,-4.3548,-4.3479,-4.3479,-4.3479,-4.3479,-4.3479,5.2599,5.2769,5.312,5.3775,5.4596,5.5306,5.5615,5.4411,4.8662,4.2252,3.5893,2.9764,2.3548,1.8905,1.859,1.8887,1.9366,1.9359,1.9312,1.9112,1.8871,1.8539,1.8137,1.745,1.647,1.5427,1.4046,1.2313,0.9775,0.6337,0.29,-0.0334,-0.3549,-0.7483,-1.1478,-1.5596,-1.9189,-2.1892,-2.4842,-2.7991,-3.1219,-3.4444,-3.7092,-3.932,-4.1317,-4.2766,-4.4044,-4.4892,-4.5817,-4.6689,-4.7178,-4.7632,-4.8117,-4.7924,-4.755,-4.7163,-4.7024,-4.6738,-4.6244,-4.6243,-4.5919,-4.5634,-4.5559,-4.5481,-4.5333,-4.5281,-4.5361,-4.5438,-4.5514,-4.5568,-4.5586,-4.5586,-4.5586,-4.5586,-4.5855,-4.6124,-4.6317,-4.6509,-4.6874,-4.7336,-4.7625,-4.7875,-4.8125,-4.8432,-4.8663,-4.8779,-4.9048,-4.9298,-4.8759,-4.8009,-4.7567,-4.7336,-4.6722,-4.6185,-4.5937,-4.5726,-4.5534,-4.5435,-4.5275,-4.5125,-4.501,-4.487,-4.4667,-4.4532,-4.4393,-4.4229,-4.4079,-4.3961,-4.38,-4.3667,-4.3479,-4.3479,-4.3479,-4.3479,-4.3479,5.2753,5.3091,5.3452,5.4333,5.5385,5.5691,5.5806,5.4799,4.774,4.1705,3.5503,2.8637,2.2403,1.8512,1.8409,1.8842,1.9156,1.9252,1.9105,1.8771,1.8407,1.802,1.7308,1.6344,1.5406,1.4213,1.2639,1.0769,0.8216,0.4441,0.0222,-0.2998,-0.6725,-1.0625,-1.4878,-1.9008,-2.2725,-2.6339,-2.8654,-3.1329,-3.3983,-3.6801,-3.9294,-4.099,-4.2502,-4.3864,-4.4804,-4.5683,-4.6442,-4.7178,-4.7733,-4.8155,-4.8513,-4.8744,-4.8449,-4.8306,-4.8127,-4.7728,-4.7381,-4.7286,-4.6986,-4.6744,-4.6638,-4.6453,-4.6263,-4.5592,-4.5495,-4.586,-4.6011,-4.6279,-4.6374,-4.6451,-4.649,-4.6528,-4.674,-4.6913,-4.7048,-4.7394,-4.7952,-4.8375,-4.8682,-4.8894,-4.9029,-4.9317,-4.951,-4.9663,-4.9856,-5.0279,-4.9971,-4.9086,-4.8625,-4.8221,-4.7472,-4.6877,-4.6647,-4.6358,-4.5762,-4.5528,-4.5369,-4.5192,-4.508,-4.4943,-4.4796,-4.4693,-4.4568,-4.4374,-4.4181,-4.4036,-4.3865,-4.3634,-4.3532,-4.3479,-4.3479,-4.3479,-4.3479,5.3085,5.3484,5.4346,5.508,5.561,5.5815,5.5804,5.4633,4.2994,3.7559,3.4298,2.5145,1.9175,1.8237,1.8377,1.8764,1.8695,1.8783,1.8618,1.8138,1.774,1.7048,1.6472,1.5327,1.4342,1.3098,1.1424,0.8546,0.4878,0.1108,-0.2654,-0.6396,-1.0085,-1.4134,-1.821,-2.2192,-2.6138,-2.9857,-3.2516,-3.4309,-3.6403,-3.8501,-4.0619,-4.2093,-4.3479,-4.4512,-4.5442,-4.6147,-4.6945,-4.7674,-4.8137,-4.8604,-4.9075,-4.9127,-4.9118,-4.9014,-4.8959,-4.8641,-4.8447,-4.8275,-4.8071,-4.778,-4.7623,-4.7607,-4.7203,-4.6165,-4.5856,-4.6318,-4.6683,-4.6971,-4.7182,-4.7278,-4.7375,-4.7471,-4.7644,-4.774,-4.7855,-4.8452,-4.9048,-4.9356,-4.9683,-4.9837,-4.9952,-5.0087,-5.0317,-5.0414,-5.0452,-5.0606,-5.0567,-5.0029,-4.9586,-4.9106,-4.8241,-4.7703,-4.7452,-4.6835,-4.6181,-4.5776,-4.5621,-4.5404,-4.5148,-4.5038,-4.4919,-4.487,-4.4777,-4.4549,-4.4298,-4.4109,-4.3892,-4.3682,-4.3532,-4.3479,-4.3479,-4.3479,-4.3479,5.2191,5.2661,5.3734,5.4381,5.469,5.4774,5.4711,5.2193,4.0578,3.5023,3.3467,2.3185,1.7067,1.7573,1.8115,1.8307,1.8075,1.8049,1.7751,1.7287,1.6576,1.5908,1.5104,1.4017,1.2891,1.1651,0.8653,0.5331,0.1442,-0.21,-0.5738,-0.9761,-1.3715,-1.7578,-2.1495,-2.5312,-2.8958,-3.2361,-3.5355,-3.7361,-3.869,-4.0467,-4.1965,-4.3284,-4.4328,-4.5268,-4.6014,-4.6717,-4.7367,-4.8059,-4.8604,-4.9005,-4.9352,-4.9402,-4.9434,-4.9506,-4.9502,-4.9457,-4.9345,-4.9257,-4.9114,-4.8771,-4.8605,-4.8587,-4.7914,-4.7029,-4.701,-4.7413,-4.7432,-4.7663,-4.7702,-4.7778,-4.7798,-4.7855,-4.8394,-4.8798,-4.9144,-4.9683,-4.9971,-5.0067,-5.0279,-5.0317,-5.0394,-5.0394,-5.0567,-5.0567,-5.0683,-5.0683,-5.0683,-5.0683,-5.0337,-4.9933,-4.9067,-4.8605,-4.8411,-4.7524,-4.6464,-4.6139,-4.5908,-4.5483,-4.5211,-4.5125,-4.508,-4.4991,-4.4895,-4.4745,-4.4486,-4.4229,-4.3974,-4.3767,-4.36,-4.3479,-4.3479,-4.3479,-4.3479,5.1081,5.1593,5.2593,5.3219,5.3466,5.3442,5.2722,4.9823,3.9221,3.3327,3.1058,2.0931,1.7049,1.6875,1.7255,1.7297,1.7384,1.721,1.6686,1.5961,1.5119,1.4342,1.3376,1.2323,1.0882,0.8546,0.5556,0.2328,-0.122,-0.5078,-0.9219,-1.3214,-1.7081,-2.0917,-2.4659,-2.8239,-3.1588,-3.4512,-3.7272,-3.9561,-4.1103,-4.2316,-4.3224,-4.4215,-4.5233,-4.6017,-4.6689,-4.7273,-4.786,-4.8403,-4.899,-4.9352,-4.9574,-4.9634,-4.9702,-4.9759,-4.9816,-4.9903,-5.0049,-5.0111,-4.9879,-4.964,-4.9567,-4.924,-4.8586,-4.8432,-4.8413,-4.8394,-4.8394,-4.8375,-4.8413,-4.8509,-4.8509,-4.8567,-4.924,-4.9702,-5.0183,-5.0587,-5.0606,-5.0625,-5.0644,-5.0683,-5.0683,-5.0683,-5.0683,-5.0683,-5.0683,-5.0683,-5.0683,-5.0702,-5.0548,-5.0297,-4.9795,-4.9468,-4.9311,-4.8386,-4.7188,-4.6653,-4.6405,-4.5772,-4.5271,-4.5211,-4.5148,-4.5103,-4.4967,-4.4821,-4.4568,-4.4317,-4.4067,-4.3851,-4.3634,-4.3479,-4.3479,-4.3479,-4.3479,5.151,5.2399,5.2893,5.3232,5.3417,5.3341,5.0518,4.4876,3.7212,3.0951,2.5504,1.9398,1.5313,1.6078,1.6428,1.6398,1.6184,1.6026,1.5413,1.457,1.35,1.2574,1.1551,1.0225,0.8125,0.545,0.2445,-0.0998,-0.4416,-0.8573,-1.2685,-1.652,-2.0769,-2.4369,-2.7511,-3.089,-3.3979,-3.6662,-3.8746,-4.099,-4.2282,-4.33,-4.3889,-4.4841,-4.58,-4.6501,-4.7178,-4.7793,-4.8365,-4.8869,-4.9302,-4.9585,-4.9721,-4.9797,-4.9843,-4.9978,-5.0005,-5.0163,-5.0325,-5.0435,-5.0197,-5.0297,-5.024,-5.0221,-4.9856,-4.9894,-4.9837,-4.976,-4.9721,-4.9606,-4.9644,-4.9856,-4.9913,-4.9913,-5.0317,-5.0337,-5.0567,-5.0644,-5.0664,-5.0664,-5.0683,-5.0683,-5.0683,-5.0683,-5.0683,-5.0683,-5.0683,-5.0683,-5.0683,-5.0702,-5.0682,-5.0508,-5.0274,-5.0349,-5.0212,-4.9264,-4.822,-4.757,-4.6768,-4.5906,-4.539,-4.5297,-4.5235,-4.517,-4.508,-4.4914,-4.4648,-4.4383,-4.414,-4.3897,-4.3667,-4.3497,-4.3479,-4.3479,-4.3479]},{"header":{"parameterUnit":"m.s-1","parameterCategory":1,"la1":31.0,"la2":29.5877,"lo1":-88.7671,"lo2":-86.6584,"dy":0.0162,"dx":0.0185,"nx":115,"ny":88,"refTime":"2023-11-06T18:00:00:Z","depth":0,"parameterNumber":3,"parameterNumberName":"V-component_of_WINDS"},"data":[0.0,0.0,0.0,0.0,0.0,0.0,0.0,0.0,0.0,0.0,0.0,0.0,0.0,0.0,0.0,0.0,0.0,0.0,0.0,0.0,0.0,0.0,0.0,0.0,0.0,0.0,0.0,0.0,0.0,0.0,0.0,0.0,0.0,0.0,0.0,0.0,0.0,0.0,0.0,0.0,0.0,0.0,0.0,0.0,0.0,0.0,0.0,0.0,0.0,0.0,0.0,0.0,0.0,0.0,0.0,0.0,0.0,0.0,0.0,0.0,0.0,0.0,0.0,0.0,0.0,0.0,0.0,0.0,0.0,0.0,0.0,0.0,0.0,0.0,0.0,0.0,0.0,0.0,0.0,0.0,0.0,0.0,0.0,0.0,0.0,0.0,0.0,0.0,0.0,0.0,0.0,0.0,0.0,0.0,0.0,0.0,0.0,0.0,0.0,0.0,0.0,0.0,0.0,0.0,0.0,0.0,0.0,0.0,0.0,0.0,0.0,0.0,0.0,0.0,0.0,0.0,0.0,0.0,0.0,0.0,0.0,0.0,0.0,0.0,0.0,0.0,0.0,0.0,0.0,0.0,0.0,0.0,0.0,0.0,0.0,0.0,0.0,0.0,0.0,0.0,0.0,0.0,0.0,0.0,0.0,0.0,0.0,0.0,0.0,0.0,0.0,0.0,0.0,0.0,0.0,0.0,0.0,0.0,0.0,0.0,0.0,0.0,0.0,0.0,0.0,0.0,0.0,0.0,0.0,0.0,0.0,0.0,0.0,0.0,0.0,0.0,0.0,0.0,0.0,0.0,0.0,0.0,0.0,0.0,0.0,0.0,0.0,0.0,0.0,0.0,0.0,0.0,0.0,0.0,0.0,0.0,0.0,0.0,0.0,0.0,0.0,0.0,0.0,0.0,0.0,0.0,0.0,0.0,0.0,0.0,0.0,0.0,0.0,0.0,0.0,0.0,0.0,0.0,0.0,0.0,0.0,0.0,0.0,0.0,0.0,0.0,0.0,0.0,0.0,0.0,0.0,0.0,0.0,0.0,0.0,0.0,0.0,0.0,0.0,0.0,0.0,0.0,0.0,0.0,0.0,0.0,0.0,0.0,0.0,0.0,0.0,0.0,0.0,0.0,0.0,0.0,0.0,0.0,0.0,0.0,0.0,0.0,0.0,0.0,0.0,0.0,0.0,0.0,0.0,0.0,0.0,0.0,0.0,0.0,0.0,0.0,0.0,0.0,0.0,0.0,0.0,0.0,0.0,0.0,0.0,0.0,0.0,0.0,0.0,0.0,0.0,0.0,0.0,0.0,0.0,0.0,0.0,0.0,0.0,0.0,0.0,0.0,0.0,0.0,0.0,0.0,0.0,0.0,0.0,0.0,0.0,0.0,0.0,0.0,0.0,0.0,0.0,0.0,0.0,0.0,0.0,0.0,0.0,0.0,0.0,0.0,0.0,0.0,0.0,0.0,0.0,0.0,0.0,0.0,0.0,0.0,0.0,0.0,0.0,0.0,0.0,0.0,0.0,0.0,0.0,0.0,0.0,0.0,0.0,0.0,0.0,0.0,0.0,0.0,0.0,0.0,0.0,0.0,0.0,0.0,0.0,0.0,0.0,0.0,0.0,0.0,0.0,0.0,0.0,0.0,0.0,0.0,0.0,0.0,0.0,0.0,0.0,0.0,0.0,0.0,0.0,0.0,0.0,0.0,0.0,0.0,0.0,0.0,0.0,0.0,0.0,0.0,0.0,0.0,0.0,0.0,0.0,0.0,0.0,0.0,0.0,0.0,0.0,0.0,0.0,0.0,0.0,0.0,0.0,0.0,0.0,0.0,0.0,0.0,0.0,0.0,0.0,0.0,0.0,0.0,0.0,0.0,0.0,0.0,0.0,0.0,0.0,0.0,0.0,0.0,0.0,0.0,0.0,0.0,0.0,0.0,0.0,0.0,0.0,0.0,0.0,0.0,0.0,0.0,0.0,0.0,0.0,0.0,0.0,0.0,0.0,0.0,0.0,0.0,0.0,0.0,0.0,0.0,0.0,0.0,0.0,0.0,0.0,0.0,0.0,0.0,0.0,0.0,0.0,0.0,0.0,0.0,0.0,0.0,0.0,0.0,0.0,0.0,0.0,0.0,0.0,0.0,0.0,0.0,0.0,0.0,0.0,0.0,0.0,0.0,0.0,0.0,0.0,0.0,0.0,0.0,0.0,0.0,0.0,0.0,0.0,0.0,0.0,0.0,0.0,0.0,0.0,0.0,0.0,0.0,0.0,0.0,0.0,0.0,0.0,0.0,0.0,0.0,0.0,0.0,0.0,0.0,0.0,0.0,0.0,0.0,0.0,0.0,0.0,0.0,0.0,0.0,0.0,0.0,0.0,0.0,0.0,0.0,0.0,0.0,0.0,0.0,0.0,0.0,0.0,0.0,0.0,0.0,0.0,0.0,0.0,0.0,0.0,0.0,0.0,0.0,0.0,0.0,0.0,0.0,0.0,0.0,0.0,0.0,0.0,0.0,0.0,0.0,0.0,0.0,0.0,0.0,0.0,0.0,0.0,0.0,0.0,0.0,0.0,0.0,0.0,0.0,0.0,0.0,0.0,0.0,0.0,0.0,0.0,0.0,0.0,0.0,0.0,0.0,0.0,0.0,0.0,0.0,0.0,0.0,0.0,0.0,0.0,0.0,0.0,0.0,0.0,0.0,0.0,0.0,0.0,0.0,0.0,0.0,0.0,0.0,0.0,0.0,0.0,0.0,0.0,0.0,0.0,0.0,0.0,0.0,0.0,0.0,0.0,0.0,0.0,0.0,0.0,0.0,0.0,0.0,0.0,0.0,0.0,0.0,0.0,0.0,0.0,0.0,0.0,0.0,0.0,0.0,0.0,0.0,0.0,0.0,0.0,0.0,0.0,0.0,0.0,0.0,0.0,0.0,0.0,0.0,0.0,0.0,0.0,0.0,0.0,0.0,0.0,0.0,0.0,0.0,0.0,0.0,0.0,0.0,0.0,0.0,0.0,0.0,0.0,0.0,0.0,0.0,0.0,0.0,0.0,0.0,0.0,0.0,0.0,0.0,0.0,0.0,0.0,0.0,0.0,0.0,0.0,0.0,0.0,0.0,0.0,0.0,0.0,0.0,0.0,0.0,0.0,0.0,0.0,0.0,0.0,0.0,0.0,0.0,0.0,0.0,0.0,0.0,0.0,0.0,0.0,0.0,0.0,0.0,0.0,0.0,0.0,0.0,0.0,0.0,0.0,0.0,0.0,0.0,0.0,0.0,0.0,0.0,0.0,0.0,0.0,0.0,0.0,0.0,0.0,0.0,0.0,0.0,0.0,0.0,0.0,0.0,0.0,0.0,0.0,0.0,0.0,0.0,0.0,0.0,0.0,0.0,0.0,0.0,0.0,0.0,0.0,0.0,0.0,0.0,0.0,0.0,0.0,0.0,0.0,0.0,0.0,0.0,0.0,0.0,0.0,0.0,0.0,0.0,0.0,0.0,0.0,0.0,0.0,0.0,0.0,0.0,0.0,0.0,0.0,0.0,0.0,0.0,0.0,0.0,0.0,0.0,0.0,0.0,0.0,0.0,0.0,0.0,0.0,0.0,0.0,0.0,0.0,0.0,0.0,0.0,0.0,0.0,0.0,0.0,0.0,0.0,0.0,0.0,0.0,0.0,0.0,0.0,0.0,0.0,0.0,0.0,0.0,0.0,0.0,0.0,0.0,0.0,0.0,0.0,0.0,0.0,0.0,0.0,0.0,0.0,0.0,0.0,0.0,0.0,0.0,0.0,0.0,0.0,0.0,0.0,0.0,0.0,0.0,0.0,0.0,0.0,0.0,0.0,0.0,0.0,0.0,0.0,0.0,0.0,0.0,0.0,0.0,0.0,0.0,0.0,0.0,0.0,0.0,0.0,0.0,0.0,0.0,0.0,0.0,0.0,0.0,0.0,0.0,0.0,0.0,0.0,0.0,0.0,0.0,0.0,0.0,0.0,0.0,0.0,0.0,0.0,0.0,0.0,0.0,0.0,0.0,0.0,0.0,0.0,0.0,0.0,0.0,0.0,0.0,0.0,0.0,0.0,0.0,0.0,0.0,0.0,0.0,0.0,0.0,0.0,0.0,0.0,0.0,0.0,0.0,0.0,0.0,0.0,0.0,0.0,0.0,0.0,0.0,0.0,0.0,0.0,0.0,0.0,0.0,0.0,0.0,0.0,0.0,0.0,0.0,0.0,0.0,0.0,0.0,0.0,0.0,0.0,0.0,0.0,0.0,0.0,0.0,0.0,2.0447,0.0,0.0,0.0,0.0,0.0,0.0,0.0,0.0,0.0,0.0,0.0,0.0,0.0,0.0,0.0,0.0,0.0,0.0,0.0,0.0,0.0,0.0,0.0,0.0,0.0,0.0,0.0,0.0,0.0,0.0,0.0,0.0,0.0,0.0,0.0,0.0,0.0,0.0,0.0,0.0,0.0,0.0,0.0,0.0,0.0,0.0,0.0,0.0,0.0,0.0,0.0,0.0,0.0,0.0,0.0,0.0,0.0,0.0,0.0,0.0,0.0,0.0,0.0,0.0,0.0,0.0,0.0,0.0,0.0,0.0,0.0,0.0,0.0,0.0,0.0,0.0,0.0,0.0,0.0,0.0,0.0,0.0,0.0,0.0,0.0,0.0,0.0,0.0,0.0,0.0,0.0,0.0,0.0,0.0,0.0,0.0,0.0,0.0,0.0,0.0,0.0,0.0,0.0,0.0,0.0,0.0,0.0,0.0,0.0,0.0,1.9903,2.0002,2.0093,2.0628,2.1516,0.0,0.0,0.0,0.0,0.0,0.0,0.0,0.0,0.0,0.0,0.0,0.0,0.0,0.0,0.0,0.0,0.0,0.0,0.0,0.0,0.0,0.0,0.0,0.0,0.0,0.0,0.0,0.0,0.0,0.0,0.0,0.0,0.0,0.0,0.0,0.0,0.0,0.0,0.0,0.0,0.0,0.0,0.0,0.0,0.0,0.0,0.0,0.0,0.0,0.0,0.0,0.0,0.0,0.0,0.0,0.0,0.0,0.0,0.0,0.0,0.0,0.0,0.0,0.0,0.0,0.0,0.0,0.0,0.0,0.0,0.0,0.0,0.0,0.0,0.0,0.0,0.0,0.0,0.0,0.0,0.0,0.0,0.0,0.0,0.0,0.0,0.0,0.0,0.0,0.0,0.0,0.0,0.0,0.0,0.0,0.0,0.0,0.0,0.0,0.0,0.0,0.0,0.0,0.0,0.0,0.0,0.0,0.0,0.0,0.0,0.0,0.0,2.1266,2.1793,2.2833,0.0,0.0,0.0,0.0,0.0,0.0,0.0,0.0,0.0,0.0,0.0,0.0,0.0,0.0,0.0,0.0,0.0,0.0,0.0,0.0,0.0,0.0,0.0,0.0,0.0,0.0,0.0,0.0,0.0,0.0,0.0,0.0,0.0,0.0,0.0,0.0,0.0,0.0,0.0,0.0,0.0,0.0,0.0,0.0,0.0,0.0,0.0,0.0,0.0,0.0,0.0,0.0,0.0,0.0,0.0,0.0,0.0,0.0,0.0,0.0,0.0,0.0,0.0,0.0,0.0,0.0,0.0,0.0,0.0,0.0,0.0,0.0,0.0,0.0,0.0,0.0,0.0,0.0,0.0,0.0,0.0,0.0,0.0,0.0,0.0,0.0,0.0,0.0,0.0,0.0,0.0,0.0,0.0,0.0,0.0,0.0,0.0,0.0,0.0,0.0,0.0,0.0,0.0,0.0,0.0,0.0,0.0,0.0,0.0,0.0,2.1562,2.1392,2.1998,0.0,2.4241,0.0,0.0,0.0,0.0,0.0,0.0,0.0,0.0,0.0,0.0,0.0,0.0,0.0,0.0,0.0,0.0,0.0,0.0,0.0,0.0,0.0,0.0,0.0,0.0,0.0,0.0,0.0,0.0,0.0,0.0,0.0,0.0,0.0,0.0,0.0,0.0,0.0,0.0,0.0,0.0,0.0,0.0,0.0,0.0,0.0,0.0,0.0,0.0,0.0,0.0,0.0,0.0,0.0,0.0,0.0,0.0,0.0,0.0,0.0,0.0,0.0,0.0,0.0,0.0,0.0,0.0,0.0,0.0,0.0,0.0,0.0,0.0,0.0,0.0,0.0,0.0,0.0,0.0,0.0,0.0,0.0,0.0,0.0,0.0,0.0,0.0,0.0,0.0,0.0,0.0,0.0,0.0,0.0,0.0,0.0,0.0,0.0,0.0,0.0,0.0,0.0,0.0,0.0,0.0,0.0,0.0,0.0,0.0,0.0,0.0,2.2097,2.2362,2.3474,2.4413,0.0,0.0,0.0,0.0,0.0,0.0,0.0,0.0,0.0,0.0,0.0,0.0,0.0,0.0,0.0,0.0,0.0,0.0,0.0,0.0,0.0,0.0,0.0,0.0,0.0,0.0,0.0,0.0,0.0,0.0,0.0,0.0,0.0,0.0,0.0,0.0,0.0,0.0,0.0,0.0,0.0,0.0,0.0,0.0,0.0,0.0,0.0,0.0,0.0,0.0,0.0,0.0,0.0,0.0,0.0,0.0,0.0,0.0,0.0,0.0,0.0,0.0,0.0,0.0,0.0,0.0,0.0,0.0,0.0,0.0,0.0,0.0,0.0,0.0,0.0,0.0,0.0,0.0,0.0,0.0,0.0,0.0,0.0,0.0,0.0,0.0,0.0,0.0,0.0,0.0,0.0,0.0,0.0,0.0,0.0,0.0,0.0,0.0,0.0,0.0,0.0,0.0,0.0,0.0,0.0,0.0,0.0,0.0,0.0,0.0,2.2097,2.2706,2.357,2.485,2.5768,2.6235,0.0,0.0,0.0,0.0,0.0,0.0,0.0,0.0,0.0,0.0,0.0,0.0,0.0,0.0,0.0,0.0,0.0,0.0,0.0,0.0,0.0,0.0,0.0,0.0,0.0,0.0,0.0,0.0,0.0,0.0,0.0,0.0,0.0,0.0,0.0,0.0,0.0,0.0,0.0,0.0,0.0,0.0,0.0,0.0,0.0,0.0,0.0,0.0,0.0,0.0,0.0,0.0,0.0,0.0,0.0,0.0,0.0,0.0,0.0,0.0,0.0,0.0,0.0,0.0,0.0,0.0,0.0,0.0,0.0,0.0,0.0,0.0,0.0,0.0,0.0,0.0,0.0,0.0,0.0,0.0,0.0,0.0,0.0,0.0,0.0,0.0,0.0,0.0,0.0,0.0,0.0,0.0,0.0,0.0,0.0,0.0,0.0,0.0,0.0,0.0,0.0,0.0,0.0,0.0,0.0,0.0,0.0,0.0,2.2097,2.2539,2.3406,2.4765,2.5695,2.6588,0.0,0.0,0.0,0.0,0.0,0.0,0.0,0.0,0.0,0.0,0.0,0.0,0.0,0.0,0.0,0.0,0.0,0.0,0.0,0.0,0.0,0.0,0.0,0.0,0.0,0.0,0.0,0.0,0.0,0.0,0.0,0.0,0.0,0.0,0.0,0.0,0.0,0.0,0.0,0.0,0.0,0.0,0.0,0.0,0.0,0.0,0.0,0.0,0.0,0.0,0.0,0.0,0.0,0.0,0.0,0.0,0.0,0.0,0.0,0.0,0.0,0.0,0.0,0.0,0.0,0.0,0.0,0.0,0.0,0.0,0.0,0.0,0.0,0.0,0.0,0.0,0.0,0.0,0.0,0.0,0.0,0.0,0.0,0.0,0.0,0.0,0.0,0.0,0.0,0.0,0.0,0.0,0.0,0.0,0.0,0.0,0.0,0.0,0.0,0.0,0.0,0.0,0.0,0.0,0.0,0.0,0.0,0.0,0.0,2.2539,2.358,2.468,2.5684,2.667,2.7718,0.0,0.0,0.0,0.0,0.0,0.0,0.0,0.0,0.0,0.0,0.0,0.0,0.0,0.0,0.0,0.0,0.0,0.0,0.0,0.0,0.0,0.0,0.0,0.0,0.0,0.0,0.0,0.0,0.0,0.0,0.0,0.0,0.0,0.0,0.0,0.0,0.0,0.0,0.0,0.0,0.0,0.0,0.0,0.0,0.0,0.0,0.0,0.0,0.0,0.0,0.0,0.0,0.0,0.0,0.0,0.0,0.0,0.0,0.0,0.0,0.0,0.0,0.0,0.0,0.0,0.0,0.0,0.0,0.0,0.0,0.0,0.0,0.0,0.0,0.0,0.0,0.0,0.0,0.0,0.0,0.0,0.0,0.0,0.0,0.0,0.0,0.0,0.0,0.0,0.0,0.0,0.0,0.0,0.0,0.0,0.0,0.0,0.0,0.0,0.0,0.0,0.0,0.0,0.0,0.0,0.0,0.0,0.0,0.0,2.3396,0.0,2.5768,2.667,2.773,2.8767,0.0,0.0,0.0,0.0,0.0,0.0,0.0,0.0,0.0,0.0,0.0,0.0,0.0,0.0,0.0,0.0,0.0,0.0,0.0,0.0,0.0,0.0,0.0,0.0,0.0,0.0,0.0,0.0,0.0,0.0,0.0,0.0,0.0,0.0,0.0,0.0,0.0,0.0,0.0,0.0,0.0,0.0,0.0,0.0,0.0,0.0,0.0,0.0,0.0,0.0,0.0,0.0,0.0,0.0,0.0,0.0,0.0,0.0,0.0,0.0,0.0,0.0,0.0,0.0,0.0,0.0,0.0,0.0,0.0,0.0,0.0,0.0,0.0,0.0,0.0,0.0,0.0,0.0,0.0,0.0,0.0,0.0,0.0,0.0,0.0,0.0,0.0,0.0,0.0,0.0,0.0,0.0,0.0,0.0,0.0,0.0,0.0,0.0,0.0,0.0,0.0,0.0,0.0,0.0,0.0,0.0,0.0,0.0,2.2746,2.4744,2.5768,2.6753,2.7799,2.8858,2.9716,0.0,0.0,0.0,0.0,0.0,0.0,0.0,0.0,0.0,0.0,0.0,0.0,0.0,0.0,0.0,0.0,0.0,0.0,0.0,0.0,0.0,0.0,0.0,0.0,0.0,0.0,0.0,0.0,0.0,0.0,0.0,0.0,0.0,0.0,0.0,0.0,0.0,0.0,0.0,0.0,0.0,0.0,0.0,0.0,0.0,0.0,0.0,0.0,0.0,0.0,0.0,0.0,0.0,0.0,0.0,0.0,0.0,0.0,0.0,0.0,0.0,0.0,0.0,0.0,0.0,0.0,0.0,0.0,0.0,0.0,0.0,0.0,0.0,0.0,0.0,0.0,0.0,0.0,0.0,0.0,0.0,0.0,0.0,0.0,0.0,0.0,0.0,0.0,0.0,0.0,0.0,0.0,0.0,0.0,0.0,0.0,0.0,0.0,0.0,0.0,0.0,0.0,0.0,0.0,0.0,0.0,0.0,0.0,0.0,2.5768,2.6753,2.7799,2.8846,2.9922,3.0696,0.0,0.0,0.0,0.0,0.0,0.0,0.0,0.0,0.0,0.0,0.0,0.0,0.0,0.0,0.0,0.0,0.0,0.0,0.0,0.0,0.0,0.0,0.0,0.0,0.0,0.0,0.0,0.0,0.0,0.0,0.0,0.0,0.0,0.0,0.0,0.0,0.0,0.0,0.0,0.0,0.0,0.0,0.0,0.0,0.0,0.0,0.0,0.0,0.0,0.0,0.0,0.0,0.0,0.0,0.0,0.0,0.0,0.0,0.0,0.0,0.0,0.0,0.0,0.0,0.0,0.0,0.0,0.0,0.0,0.0,0.0,0.0,0.0,0.0,0.0,0.0,0.0,0.0,0.0,0.0,0.0,0.0,0.0,0.0,0.0,0.0,0.0,0.0,0.0,0.0,0.0,0.0,0.0,0.0,0.0,0.0,0.0,0.0,0.0,0.0,0.0,0.0,0.0,0.0,0.0,0.0,0.0,0.0,0.0,2.7464,2.8039,2.8912,3.0012,3.0846,3.1455,3.1982,0.0,0.0,0.0,0.0,0.0,0.0,0.0,0.0,0.0,0.0,0.0,0.0,0.0,0.0,0.0,0.0,0.0,0.0,0.0,0.0,0.0,0.0,0.0,0.0,0.0,0.0,0.0,0.0,0.0,0.0,0.0,0.0,0.0,0.0,0.0,0.0,0.0,0.0,0.0,0.0,0.0,0.0,0.0,0.0,0.0,0.0,0.0,0.0,0.0,0.0,0.0,0.0,0.0,0.0,0.0,0.0,0.0,0.0,0.0,0.0,0.0,0.0,0.0,0.0,0.0,0.0,0.0,0.0,0.0,0.0,0.0,0.0,0.0,0.0,0.0,0.0,0.0,0.0,0.0,0.0,0.0,0.0,0.0,0.0,0.0,0.0,0.0,0.0,0.0,0.0,0.0,0.0,0.0,0.0,0.0,0.0,0.0,0.0,0.0,0.0,0.0,0.0,0.0,0.0,0.0,0.0,0.0,0.0,2.9781,2.9639,3.0088,3.1145,3.1616,3.2055,0.0,0.0,0.0,0.0,0.0,0.0,0.0,0.0,0.0,0.0,0.0,0.0,0.0,0.0,0.0,0.0,0.0,0.0,0.0,0.0,0.0,0.0,0.0,0.0,0.0,0.0,0.0,0.0,0.0,0.0,0.0,0.0,0.0,0.0,0.0,0.0,0.0,0.0,0.0,0.0,0.0,0.0,0.0,0.0,0.0,0.0,0.0,0.0,0.0,0.0,0.0,0.0,0.0,0.0,0.0,0.0,0.0,0.0,0.0,0.0,0.0,0.0,0.0,0.0,0.0,0.0,0.0,0.0,0.0,0.0,0.0,0.0,0.0,0.0,0.0,0.0,0.0,0.0,0.0,0.0,0.0,0.0,0.0,0.0,0.0,0.0,0.0,0.0,0.0,0.0,0.0,0.0,0.0,0.0,0.0,0.0,0.0,0.0,0.0,0.0,0.0,0.0,0.0,0.0,0.0,0.0,0.0,0.0,0.0,3.0983,3.1294,3.1455,3.169,3.2331,3.2775,0.0,0.0,0.0,0.0,0.0,0.0,0.0,0.0,0.0,0.0,0.0,0.0,0.0,0.0,0.0,0.0,0.0,0.0,0.0,0.0,0.0,0.0,0.0,0.0,0.0,0.0,0.0,0.0,0.0,0.0,0.0,0.0,0.0,0.0,0.0,0.0,0.0,0.0,0.0,0.0,0.0,0.0,0.0,0.0,0.0,0.0,0.0,0.0,0.0,0.0,0.0,0.0,0.0,0.0,0.0,0.0,0.0,0.0,0.0,0.0,0.0,0.0,0.0,0.0,0.0,0.0,0.0,0.0,0.0,0.0,0.0,0.0,0.0,0.0,0.0,0.0,0.0,0.0,0.0,0.0,0.0,0.0,0.0,0.0,0.0,0.0,0.0,0.0,0.0,0.0,0.0,0.0,0.0,0.0,0.0,0.0,0.0,0.0,0.0,0.0,0.0,0.0,0.0,0.0,0.0,0.0,0.0,0.0,3.0996,3.1955,3.2489,3.2717,3.2632,3.3058,3.3353,0.0,0.0,0.0,0.0,0.0,0.0,0.0,0.0,0.0,0.0,0.0,0.0,0.0,0.0,0.0,0.0,0.0,0.0,0.0,0.0,0.0,0.0,0.0,0.0,0.0,0.0,0.0,0.0,0.0,0.0,0.0,0.0,0.0,0.0,0.0,0.0,0.0,0.0,0.0,0.0,0.0,0.0,0.0,0.0,0.0,0.0,0.0,0.0,0.0,0.0,0.0,0.0,0.0,0.0,0.0,0.0,0.0,0.0,0.0,0.0,0.0,0.0,0.0,0.0,0.0,0.0,0.0,0.0,0.0,0.0,0.0,0.0,0.0,0.0,0.0,0.0,0.0,0.0,0.0,0.0,0.0,0.0,0.0,0.0,0.0,0.0,0.0,0.0,0.0,0.0,0.0,0.0,0.0,0.0,0.0,0.0,0.0,0.0,0.0,0.0,0.0,0.0,0.0,0.0,0.0,0.0,0.0,0.0,3.2028,3.2761,3.3382,3.373,3.3908,3.3756,3.3839,0.0,0.0,0.0,0.0,0.0,0.0,0.0,0.0,0.0,0.0,0.0,0.0,0.0,0.0,0.0,0.0,0.0,0.0,0.0,0.0,0.0,0.0,0.0,0.0,0.0,0.0,0.0,0.0,0.0,0.0,0.0,0.0,0.0,0.0,0.0,0.0,0.0,0.0,0.0,0.0,0.0,0.0,0.0,0.0,0.0,0.0,0.0,0.0,0.0,0.0,0.0,0.0,0.0,0.0,0.0,0.0,0.0,0.0,0.0,0.0,0.0,0.0,0.0,0.0,0.0,0.0,0.0,0.0,0.0,0.0,0.0,0.0,0.0,0.0,0.0,0.0,0.0,0.0,0.0,0.0,0.0,0.0,0.0,0.0,0.0,0.0,0.0,0.0,0.0,0.0,0.0,0.0,0.0,0.0,0.0,0.0,0.0,0.0,0.0,0.0,0.0,0.0,0.0,0.0,0.0,0.0,0.0,0.0,3.2988,3.3548,3.3991,3.4332,3.4654,3.4399,3.4452,0.0,0.0,0.0,0.0,0.0,0.0,0.0,0.0,0.0,0.0,0.0,0.0,0.0,0.0,0.0,0.0,0.0,0.0,0.0,0.0,0.0,0.0,0.0,0.0,0.0,0.0,0.0,0.0,0.0,0.0,0.0,0.0,0.0,0.0,0.0,0.0,0.0,0.0,0.0,0.0,0.0,0.0,0.0,0.0,0.0,0.0,0.0,0.0,3.8422,0.0,0.0,0.0,0.0,0.0,0.0,0.0,0.0,0.0,0.0,0.0,0.0,0.0,0.0,0.0,0.0,0.0,0.0,0.0,0.0,0.0,0.0,0.0,0.0,0.0,0.0,0.0,0.0,0.0,0.0,0.0,0.0,0.0,0.0,0.0,0.0,0.0,0.0,0.0,0.0,0.0,0.0,0.0,0.0,0.0,0.0,0.0,0.0,0.0,0.0,0.0,0.0,0.0,0.0,0.0,0.0,0.0,0.0,0.0,3.3811,3.4303,3.4721,3.5037,3.5394,3.5314,3.5379,0.0,0.0,0.0,0.0,0.0,0.0,0.0,0.0,0.0,0.0,0.0,0.0,0.0,0.0,0.0,0.0,0.0,0.0,0.0,0.0,0.0,0.0,0.0,0.0,0.0,0.0,0.0,0.0,0.0,0.0,0.0,0.0,0.0,0.0,0.0,0.0,0.0,0.0,0.0,0.0,0.0,0.0,0.0,0.0,0.0,0.0,0.0,0.0,0.0,0.0,0.0,0.0,0.0,0.0,0.0,0.0,0.0,0.0,0.0,0.0,0.0,0.0,0.0,0.0,0.0,0.0,0.0,0.0,0.0,0.0,0.0,0.0,0.0,0.0,0.0,0.0,0.0,0.0,0.0,0.0,0.0,0.0,0.0,0.0,0.0,0.0,0.0,0.0,0.0,0.0,0.0,0.0,0.0,0.0,0.0,0.0,0.0,0.0,0.0,0.0,0.0,0.0,0.0,0.0,0.0,0.0,0.0,3.3506,3.4491,3.4986,3.535,3.5752,3.61,3.6226,3.6274,3.6211,0.0,0.0,0.0,0.0,0.0,0.0,0.0,0.0,0.0,0.0,0.0,0.0,0.0,0.0,0.0,0.0,0.0,0.0,0.0,0.0,0.0,0.0,0.0,0.0,0.0,0.0,0.0,0.0,0.0,0.0,0.0,0.0,0.0,0.0,0.0,0.0,0.0,0.0,4.0711,4.0896,0.0,0.0,0.0,0.0,0.0,0.0,0.0,0.0,4.0935,0.0,0.0,0.0,0.0,0.0,0.0,0.0,0.0,0.0,0.0,0.0,0.0,0.0,0.0,0.0,0.0,0.0,0.0,0.0,0.0,0.0,0.0,0.0,0.0,0.0,0.0,0.0,0.0,0.0,0.0,0.0,0.0,0.0,0.0,0.0,0.0,0.0,0.0,0.0,0.0,0.0,0.0,0.0,0.0,0.0,0.0,0.0,0.0,0.0,0.0,0.0,0.0,0.0,0.0,0.0,0.0,3.2618,3.4056,3.5023,3.5559,3.6085,3.6399,3.66,3.6739,3.6984,3.7178,0.0,0.0,0.0,0.0,0.0,0.0,0.0,0.0,0.0,0.0,0.0,0.0,0.0,0.0,0.0,0.0,0.0,0.0,0.0,0.0,0.0,0.0,0.0,0.0,0.0,0.0,0.0,0.0,0.0,0.0,0.0,0.0,0.0,0.0,0.0,0.0,0.0,0.0,0.0,4.0957,4.1009,0.0,0.0,0.0,0.0,0.0,0.0,0.0,0.0,4.0595,0.0,0.0,0.0,0.0,0.0,0.0,0.0,0.0,0.0,0.0,0.0,0.0,0.0,0.0,0.0,0.0,0.0,0.0,0.0,0.0,0.0,0.0,0.0,0.0,0.0,0.0,0.0,0.0,0.0,0.0,0.0,0.0,0.0,0.0,0.0,0.0,0.0,0.0,0.0,0.0,0.0,0.0,0.0,0.0,0.0,0.0,0.0,0.0,0.0,0.0,0.0,0.0,0.0,0.0,0.0,3.3353,3.4633,3.5578,3.629,3.6754,3.7013,3.721,3.721,3.7329,0.0,0.0,0.0,0.0,0.0,0.0,0.0,0.0,0.0,0.0,0.0,0.0,0.0,0.0,0.0,0.0,0.0,0.0,0.0,0.0,0.0,0.0,0.0,0.0,0.0,0.0,0.0,0.0,0.0,0.0,0.0,0.0,0.0,0.0,0.0,0.0,0.0,0.0,0.0,0.0,4.0976,4.0976,4.0961,0.0,0.0,0.0,0.0,0.0,0.0,4.0662,4.0482,0.0,0.0,0.0,0.0,0.0,0.0,0.0,0.0,0.0,0.0,0.0,0.0,0.0,0.0,0.0,0.0,0.0,0.0,0.0,0.0,0.0,0.0,0.0,0.0,0.0,0.0,0.0,0.0,0.0,0.0,0.0,0.0,0.0,0.0,0.0,0.0,0.0,0.0,0.0,0.0,0.0,0.0,0.0,0.0,0.0,0.0,0.0,0.0,0.0,0.0,0.0,0.0,0.0,0.0,0.0,3.4081,3.5225,3.6197,3.7011,3.7385,3.761,3.7743,3.7551,3.761,0.0,0.0,0.0,0.0,0.0,0.0,0.0,0.0,0.0,0.0,0.0,0.0,0.0,0.0,0.0,0.0,0.0,0.0,0.0,0.0,0.0,0.0,0.0,0.0,0.0,0.0,0.0,0.0,0.0,0.0,0.0,0.0,0.0,0.0,0.0,0.0,0.0,0.0,0.0,0.0,0.0,4.0961,4.0882,4.081,0.0,0.0,0.0,0.0,4.0655,4.0457,0.0,0.0,0.0,0.0,0.0,0.0,0.0,0.0,0.0,0.0,0.0,0.0,0.0,0.0,0.0,0.0,0.0,0.0,0.0,0.0,0.0,0.0,0.0,0.0,0.0,0.0,0.0,0.0,0.0,0.0,0.0,0.0,0.0,0.0,0.0,0.0,0.0,0.0,0.0,0.0,0.0,0.0,0.0,0.0,0.0,0.0,0.0,0.0,0.0,0.0,0.0,0.0,0.0,0.0,0.0,0.0,3.4389,3.5773,3.6814,3.7519,3.7886,3.8059,3.8059,3.7801,3.7817,0.0,0.0,0.0,0.0,0.0,0.0,0.0,0.0,0.0,0.0,0.0,0.0,0.0,0.0,0.0,0.0,0.0,0.0,0.0,0.0,0.0,0.0,0.0,0.0,0.0,0.0,0.0,0.0,0.0,0.0,0.0,0.0,0.0,0.0,0.0,0.0,0.0,0.0,0.0,0.0,0.0,4.0904,4.0819,4.0725,4.0615,0.0,0.0,4.0519,4.0454,4.023,0.0,0.0,0.0,0.0,0.0,0.0,0.0,0.0,0.0,0.0,0.0,0.0,0.0,0.0,0.0,0.0,0.0,0.0,0.0,0.0,0.0,0.0,0.0,0.0,0.0,0.0,0.0,0.0,0.0,0.0,0.0,0.0,0.0,0.0,0.0,0.0,0.0,0.0,0.0,0.0,0.0,0.0,0.0,0.0,0.0,0.0,0.0,0.0,0.0,0.0,0.0,0.0,0.0,0.0,0.0,3.3268,3.502,3.6276,3.7251,3.8017,3.8246,3.8359,3.8262,3.7976,3.7992,0.0,0.0,0.0,0.0,0.0,0.0,0.0,0.0,0.0,0.0,0.0,0.0,0.0,0.0,0.0,0.0,0.0,0.0,0.0,0.0,0.0,0.0,0.0,0.0,0.0,0.0,0.0,0.0,0.0,0.0,0.0,0.0,0.0,0.0,0.0,0.0,0.0,0.0,0.0,0.0,0.0,0.0,4.0584,4.0496,0.0,0.0,0.0,4.0139,4.0023,0.0,0.0,0.0,0.0,0.0,0.0,0.0,0.0,0.0,0.0,0.0,0.0,0.0,0.0,0.0,0.0,0.0,0.0,0.0,0.0,0.0,0.0,0.0,0.0,0.0,0.0,0.0,0.0,0.0,0.0,0.0,0.0,0.0,0.0,0.0,0.0,0.0,0.0,0.0,0.0,0.0,0.0,0.0,0.0,0.0,0.0,0.0,0.0,0.0,0.0,0.0,0.0,0.0,0.0,0.0,0.0,0.0,3.5649,3.6737,3.7637,3.8448,3.8576,3.856,3.8448,3.8164,0.0,0.0,0.0,0.0,0.0,0.0,0.0,0.0,0.0,0.0,0.0,0.0,0.0,0.0,0.0,0.0,0.0,0.0,0.0,0.0,0.0,0.0,0.0,0.0,0.0,0.0,0.0,3.9475,0.0,0.0,0.0,0.0,0.0,0.0,0.0,0.0,0.0,0.0,0.0,0.0,0.0,0.0,4.0491,4.031,4.0193,4.012,0.0,0.0,3.9645,3.9491,3.9141,3.8783,0.0,0.0,0.0,0.0,0.0,0.0,0.0,0.0,0.0,0.0,0.0,0.0,0.0,0.0,0.0,0.0,0.0,0.0,0.0,0.0,0.0,0.0,0.0,0.0,0.0,0.0,0.0,0.0,0.0,0.0,0.0,0.0,0.0,0.0,0.0,0.0,0.0,0.0,0.0,0.0,0.0,0.0,0.0,0.0,0.0,0.0,0.0,0.0,0.0,0.0,0.0,0.0,0.0,0.0,3.4263,3.6183,3.7147,3.8033,3.875,3.8672,3.8632,3.856,3.8335,3.8237,0.0,0.0,0.0,0.0,0.0,0.0,0.0,0.0,0.0,0.0,0.0,0.0,0.0,0.0,0.0,0.0,0.0,0.0,0.0,0.0,0.0,0.0,0.0,0.0,0.0,0.0,0.0,0.0,0.0,0.0,0.0,0.0,0.0,0.0,0.0,0.0,0.0,0.0,0.0,0.0,0.0,4.0151,3.9967,3.9823,3.969,0.0,3.9258,3.9005,3.8888,3.8481,3.8107,3.8013,0.0,0.0,0.0,0.0,0.0,0.0,0.0,0.0,0.0,0.0,0.0,0.0,0.0,0.0,0.0,0.0,0.0,0.0,0.0,0.0,0.0,0.0,0.0,0.0,0.0,0.0,0.0,0.0,0.0,0.0,0.0,0.0,0.0,0.0,0.0,0.0,0.0,0.0,0.0,0.0,0.0,0.0,0.0,0.0,0.0,0.0,0.0,0.0,0.0,0.0,0.0,0.0,0.0,3.433,3.626,3.7222,3.7992,3.8544,3.8576,3.8504,3.8335,3.8221,3.8294,0.0,0.0,0.0,0.0,0.0,0.0,0.0,0.0,0.0,0.0,0.0,0.0,0.0,0.0,0.0,0.0,0.0,0.0,0.0,0.0,0.0,0.0,0.0,0.0,0.0,0.0,0.0,0.0,4.0295,4.0354,4.0792,0.0,0.0,0.0,0.0,0.0,0.0,0.0,0.0,0.0,0.0,3.9498,3.9271,3.9051,0.0,0.0,3.8499,3.8264,3.8089,3.7666,3.7287,3.7023,3.6591,0.0,0.0,0.0,0.0,0.0,0.0,0.0,0.0,0.0,0.0,0.0,0.0,0.0,0.0,0.0,0.0,0.0,0.0,0.0,0.0,0.0,0.0,0.0,0.0,0.0,0.0,0.0,0.0,0.0,0.0,0.0,0.0,0.0,0.0,0.0,0.0,0.0,0.0,0.0,0.0,0.0,0.0,0.0,0.0,0.0,0.0,0.0,0.0,0.0,0.0,0.0,0.0,3.4493,3.6384,3.7222,3.7918,3.8448,3.8504,3.8464,3.8278,3.8278,3.8391,0.0,0.0,0.0,0.0,0.0,0.0,0.0,0.0,0.0,0.0,0.0,0.0,0.0,0.0,0.0,0.0,0.0,0.0,0.0,0.0,0.0,0.0,0.0,0.0,0.0,0.0,0.0,0.0,4.081,4.0922,4.1023,0.0,0.0,0.0,0.0,0.0,0.0,0.0,0.0,0.0,0.0,3.8822,3.8504,3.8282,3.8041,3.7943,3.7811,3.7681,3.7474,3.7213,3.693,3.6566,0.0,0.0,0.0,0.0,0.0,0.0,0.0,0.0,0.0,0.0,0.0,0.0,0.0,0.0,0.0,0.0,0.0,0.0,0.0,0.0,0.0,0.0,0.0,0.0,0.0,0.0,0.0,0.0,0.0,0.0,1.4746,0.0,0.0,0.0,0.0,0.0,0.0,0.0,0.0,0.0,0.0,0.0,0.0,0.0,0.0,0.0,0.0,0.0,0.0,0.0,0.0,0.0,0.0,3.4868,3.6538,3.7147,3.777,3.856,3.8464,3.8391,3.8408,3.8504,3.8576,3.8632,0.0,0.0,0.0,0.0,0.0,0.0,0.0,0.0,0.0,0.0,0.0,0.0,0.0,0.0,0.0,0.0,0.0,0.0,0.0,0.0,0.0,0.0,0.0,0.0,0.0,0.0,4.0876,4.1003,4.1072,0.0,0.0,0.0,0.0,0.0,0.0,0.0,0.0,0.0,0.0,3.8586,3.8164,3.7753,3.7524,3.7342,3.7076,3.726,3.7353,3.7127,3.7195,3.7186,0.0,0.0,0.0,0.0,0.0,0.0,0.0,0.0,0.0,0.0,0.0,0.0,0.0,0.0,0.0,0.0,0.0,0.0,0.0,0.0,0.0,0.0,0.0,0.0,0.0,0.0,0.0,1.2068,1.2459,0.0,0.0,0.0,0.0,0.0,0.0,0.0,0.0,0.0,0.0,0.0,2.4861,2.5179,0.0,0.0,0.0,0.0,0.0,0.0,0.0,0.0,0.0,0.0,0.0,0.0,3.5145,3.6461,3.7254,3.7801,3.8107,3.8335,3.8391,3.8391,3.852,3.8838,3.9292,0.0,0.0,0.0,0.0,0.0,0.0,0.0,0.0,0.0,0.0,0.0,0.0,0.0,0.0,0.0,0.0,0.0,0.0,0.0,0.0,0.0,0.0,0.0,0.0,0.0,4.087,0.0,0.0,0.0,0.0,0.0,0.0,0.0,0.0,0.0,0.0,0.0,3.872,3.8199,3.7522,3.6991,3.6619,3.6679,3.6705,0.0,0.0,0.0,0.0,0.0,0.0,0.0,0.0,0.0,0.0,0.0,0.0,0.0,0.0,3.0879,3.1265,3.0591,2.9833,2.9402,0.0,0.0,0.0,0.0,0.0,0.0,0.0,0.0,0.0,0.0,0.0,0.0,0.0,0.0,1.2467,0.0,1.3817,0.0,0.0,0.0,0.0,0.0,0.0,0.0,0.0,2.4573,2.5253,2.5863,2.6445,2.701,0.0,2.8199,2.8664,0.0,0.0,0.0,0.0,0.0,0.0,0.0,0.0,3.5563,3.6677,3.7329,3.7817,3.8049,3.8351,3.8448,3.8464,3.8727,3.9164,3.9816,4.0353,4.0819,0.0,0.0,0.0,0.0,0.0,0.0,0.0,0.0,0.0,0.0,0.0,0.0,0.0,0.0,0.0,0.0,0.0,0.0,0.0,0.0,0.0,0.0,0.0,4.0947,0.0,0.0,0.0,0.0,0.0,0.0,0.0,0.0,0.0,3.9177,3.8567,3.7863,3.7219,3.6771,3.6362,3.5859,0.0,0.0,0.0,0.0,0.0,0.0,0.0,3.4787,3.418,3.3275,3.2382,3.173,3.1075,3.0525,3.0043,0.0,0.0,2.9581,2.9048,2.8288,2.7851,2.7143,2.645,2.5645,2.504,2.4508,0.0,0.0,0.0,0.0,0.0,0.0,0.0,0.0,1.198,1.2845,0.0,1.4388,0.0,0.0,0.0,0.0,0.0,2.2746,0.0,0.0,2.5516,2.6102,2.6599,2.7185,2.7822,2.8505,2.9303,3.0215,3.118,3.0683,0.0,0.0,0.0,0.0,0.0,0.0,3.6039,3.7178,3.7508,3.7934,3.8391,3.8504,3.8632,3.8632,3.9056,3.9573,4.0087,4.0434,4.0866,4.1373,4.1675,0.0,0.0,0.0,0.0,0.0,0.0,0.0,0.0,0.0,0.0,0.0,0.0,0.0,0.0,0.0,0.0,0.0,0.0,0.0,0.0,4.0957,0.0,0.0,0.0,0.0,0.0,0.0,0.0,0.0,0.0,0.0,3.8227,3.7769,3.7064,3.6229,0.0,0.0,0.0,0.0,3.5732,3.5093,3.5007,3.4897,3.4418,3.4336,3.4071,3.3611,0.0,0.0,3.0443,3.0063,2.9564,2.8573,2.7912,2.7775,2.8645,2.8171,2.7498,2.6849,2.6157,2.5652,2.5179,2.4596,2.4135,0.9924,0.0,0.0,0.0,0.0,1.0117,1.0703,1.1194,1.2355,1.3414,1.4376,1.5337,0.0,0.0,0.0,0.0,0.0,0.0,2.4488,2.5274,2.6207,2.694,2.7487,2.8143,2.8846,2.9768,3.0456,3.1281,3.2245,3.2492,3.2648,3.2747,0.0,0.0,0.0,0.0,3.66,3.7194,3.7759,3.818,3.8408,3.852,3.8727,3.911,3.9537,3.9986,4.0434,4.1024,4.1498,4.1892,4.2181,0.0,0.0,0.0,0.0,0.0,0.0,0.0,0.0,0.0,0.0,0.0,0.0,0.0,0.0,0.0,0.0,0.0,0.0,0.0,4.0823,4.0799,4.0723,0.0,0.0,0.0,0.0,0.0,0.0,0.0,0.0,0.0,3.6646,3.675,3.6618,0.0,0.0,3.5535,3.4991,3.4934,3.4759,3.4332,3.4164,0.0,3.3518,3.2821,3.2096,3.1675,3.0618,2.9601,2.8937,2.8609,2.8187,2.7476,2.6917,2.6494,2.6152,2.5997,2.5841,2.5516,2.502,2.4605,2.4262,2.3927,2.3677,0.9821,0.9624,0.9624,0.9624,0.9628,1.0019,1.0609,1.1292,1.2446,1.3698,1.5045,1.6001,1.703,1.8342,1.9803,0.0,0.0,0.0,2.5274,2.6135,2.6798,2.7452,2.8063,2.8858,2.9704,3.062,3.1442,3.2318,3.3395,3.3919,3.4274,3.4356,0.0,0.0,3.5657,3.6477,3.7058,3.7508,3.7992,3.8351,3.8464,3.8672,3.8931,3.9395,3.9798,4.0238,4.0659,4.1283,4.1788,4.2145,4.2427,4.2526,0.0,0.0,0.0,0.0,0.0,0.0,0.0,0.0,0.0,0.0,0.0,4.1682,4.108,0.0,0.0,0.0,4.0894,4.0844,4.0654,4.0493,0.0,0.0,0.0,0.0,0.0,0.0,0.0,3.7598,3.724,3.6639,3.5656,3.5866,3.5912,3.5336,3.5316,3.5074,3.4288,0.0,3.3937,3.3341,3.289,3.2423,3.1906,3.1114,3.024,2.9551,2.8743,2.7983,2.751,2.7244,2.6823,2.6351,2.5852,2.5263,2.4605,2.4519,2.4519,2.4348,2.411,2.3851,2.358,2.3396,2.3319,0.9821,0.9624,0.9624,0.9624,0.9628,0.9924,1.0511,1.1292,1.2349,1.3794,1.5432,1.6292,1.7699,1.9455,2.1498,0.0,2.4221,2.5179,2.6052,2.6974,2.736,2.7926,2.859,2.9328,3.0317,3.1294,3.2259,3.3325,3.4438,3.4957,3.5509,3.6037,3.5672,3.5879,3.6554,3.7013,3.7433,3.7876,3.8221,3.8504,3.8616,3.8876,3.9202,3.9537,3.9884,4.0353,4.0849,4.1445,4.1941,4.2328,4.253,4.2609,4.2609,0.0,0.0,0.0,0.0,0.0,0.0,0.0,0.0,0.0,0.0,0.0,0.0,0.0,0.0,0.0,4.0955,0.0,4.054,4.0267,0.0,0.0,0.0,3.8902,3.9037,3.8376,3.7857,3.767,0.0,0.0,3.5172,3.5146,3.5018,3.4583,3.491,3.474,3.3579,3.3407,3.3101,3.2092,3.1254,3.0519,3.005,2.9369,2.8609,2.7568,2.7174,2.6764,2.6185,2.5935,2.56,2.52,2.4754,2.4337,2.3831,2.3667,2.3503,2.3503,2.3493,2.3416,2.3232,2.3135,2.3135,0.9628,0.9624,0.9624,0.9624,0.9628,1.0122,1.0605,1.1292,1.2737,1.4172,1.5798,1.6756,1.8427,2.0628,2.2385,2.3694,2.4659,2.5957,2.6798,2.7196,2.7938,2.8498,2.8973,2.9819,3.0797,3.1909,3.2775,3.3687,3.4787,3.5299,3.5831,3.6352,3.6538,3.6677,3.6877,3.7345,3.7685,3.7876,3.8335,3.8672,3.8876,3.9094,3.9432,3.9798,4.0087,4.0614,4.1363,4.177,4.221,4.2667,4.2745,4.2783,4.2824,4.2783,0.0,0.0,0.0,0.0,0.0,0.0,0.0,0.0,0.0,4.385,4.3194,0.0,4.2832,0.0,4.1535,4.1336,4.1532,4.1167,0.0,0.0,3.9568,3.9037,3.8614,3.7865,3.7129,3.6481,3.6078,3.5533,3.4622,3.4377,3.3978,3.3254,3.3638,3.3686,3.2737,3.1983,3.1315,3.0581,2.9654,2.8978,2.8779,2.8087,2.7103,2.608,2.5663,2.5242,2.4999,2.4744,2.4594,2.4444,2.4186,2.3841,2.358,2.3406,2.3232,2.3232,2.3222,2.3144,2.3144,2.3144,2.3144,0.9624,0.9624,0.9624,0.9628,0.9826,1.0117,1.0703,1.1683,1.2834,1.437,1.6089,1.787,1.9621,2.1338,2.2911,2.4221,2.5359,2.6385,2.7208,2.7684,2.8271,2.8828,2.9456,3.0216,3.1233,3.2403,3.3325,3.437,3.5379,3.5831,3.6336,3.6892,3.7089,3.7285,3.7405,3.7642,3.7934,3.8107,3.8544,3.8876,3.9148,3.9309,3.959,3.9986,4.032,4.0884,4.1613,4.2002,4.2409,4.2783,4.2878,4.2974,4.3013,4.3123,4.3286,0.0,0.0,0.0,0.0,0.0,0.0,0.0,0.0,0.0,0.0,0.0,4.3499,4.2342,4.1835,4.1524,4.1428,4.0922,4.0395,3.9837,3.9071,3.8439,3.8122,3.7283,3.6551,3.609,3.5582,3.4913,3.4054,3.3471,3.2763,3.1815,3.1729,3.1702,3.1436,3.0644,2.982,2.9213,2.8426,2.7718,2.7429,2.6787,2.5957,2.5084,2.4573,2.4251,2.3897,2.381,2.3734,2.3667,2.358,2.3493,2.3319,2.3222,2.3144,2.3057,2.3057,2.296,2.3047,2.3047,2.2969,0.9697,0.9693,0.9673,0.9859,1.0151,1.0126,1.0904,1.2073,1.2931,1.4459,1.6567,1.9171,2.0817,2.1784,2.327,2.4669,2.5979,2.6727,2.7452,2.8259,2.851,2.9077,2.9869,3.0659,3.1676,3.2832,3.3934,3.5037,3.6037,3.6414,3.6846,3.7417,3.7433,3.761,3.7918,3.7992,3.8148,3.8448,3.8805,3.9077,3.9325,3.9484,3.9746,4.0171,4.0628,4.1174,4.1735,4.2192,4.2591,4.2842,4.3067,4.3196,4.3268,4.3511,4.3726,0.0,4.4252,0.0,0.0,0.0,0.0,0.0,0.0,0.0,0.0,4.4668,4.393,4.2631,4.2096,4.1585,4.1001,4.0382,3.9767,3.912,3.8223,3.7619,3.7556,3.6733,3.6053,3.5902,3.4949,3.4041,3.3325,3.242,3.1415,3.043,2.9666,2.9344,2.9564,2.911,2.8493,2.7971,2.7418,2.6682,2.6019,2.5527,2.502,2.4251,2.382,2.3484,2.3047,2.3047,2.3047,2.3047,2.3135,2.3144,2.3144,2.3057,2.3047,2.2969,2.2794,2.2794,2.2969,2.2794,2.2715,1.0063,1.0046,0.9896,1.0146,1.0541,1.0879,1.1487,1.237,1.3528,1.5337,1.7527,1.9463,2.0817,2.1784,2.3531,2.4999,2.6196,2.7441,2.8099,2.8498,2.9234,2.9856,3.0368,3.1233,3.2232,3.3367,3.4327,3.5285,3.6211,3.6769,3.7178,3.7417,3.7669,3.7976,3.8294,0.0,0.0,0.0,3.8985,3.9131,3.9432,3.9694,4.0037,4.0483,4.1007,0.0,4.2216,4.2516,4.2826,4.316,4.3339,0.0,0.0,0.0,0.0,0.0,0.0,0.0,0.0,0.0,0.0,0.0,4.6054,4.5987,4.5743,4.4608,4.3819,4.3753,4.265,4.1882,4.1751,4.1041,4.0215,3.9478,3.8393,3.7552,3.7026,3.6153,3.5299,3.467,3.3642,3.2678,3.1974,3.0882,2.9833,2.8966,2.8119,2.7487,2.7058,2.7221,2.7162,2.6857,2.6268,2.5695,2.52,2.468,2.4166,2.3474,2.296,2.2608,2.2353,2.2325,2.2501,2.2794,2.296,2.3047,2.3057,2.2969,2.2794,2.2618,2.2353,2.2362,2.2706,2.253,2.2185,1.016,0.0,1.0059,1.0335,0.0,1.133,1.2132,1.3117,1.4057,1.5724,1.7815,1.9554,2.0817,2.1784,2.3531,2.4999,2.6268,2.7418,2.8315,2.8816,2.9481,3.0164,3.0885,3.1736,3.2706,3.3905,3.4876,3.5785,3.6693,3.7118,3.7476,3.7902,3.8033,3.8278,3.86,3.8766,3.8931,3.9148,3.9202,3.9415,3.9781,4.002,4.0417,4.1001,4.1472,0.0,0.0,0.0,0.0,0.0,0.0,0.0,0.0,4.4337,0.0,4.4947,4.5207,4.5447,4.5717,4.5861,4.5982,4.6054,4.5811,4.5641,4.5551,4.4572,4.3856,4.3592,4.2613,4.1765,4.127,4.0521,3.9631,3.8783,3.7716,3.6783,3.59,3.5014,3.4163,3.3255,3.2249,3.1315,3.0556,2.9589,2.8597,2.7799,2.6999,2.6268,2.5684,2.5852,2.5935,2.56,2.5179,2.468,2.4262,2.3907,2.3387,2.2794,2.2451,2.2176,2.1909,2.1989,2.2246,2.2441,2.2618,2.2696,2.2618,2.253,2.2362,2.1989,2.1722,2.1553,2.1633,2.1544,2.1544,1.0257,1.0253,1.0225,1.0523,1.1132,1.174,1.2825,1.4173,0.0,0.0,0.0,1.9554,2.0817,2.1863,2.3521,2.4999,2.6362,2.7406,2.8383,2.9209,2.9702,3.0457,3.1394,3.2232,3.3283,3.4447,3.5385,3.6305,3.7238,3.7476,3.7844,3.8335,3.8448,3.86,3.8914,3.9218,3.9415,3.9432,3.9537,3.9746,4.0154,4.0417,4.0861,4.1569,4.1931,4.24,4.2957,4.316,4.3375,4.3597,4.3868,4.4125,4.4411,4.4781,4.508,4.5304,4.5584,4.5803,4.593,4.5972,4.5976,4.5855,4.5351,4.5008,4.4938,4.438,4.3675,4.2959,4.2149,4.1278,4.0329,3.9493,3.8603,3.7632,3.66,3.5533,3.4618,3.3616,3.272,3.1856,3.0895,2.9986,2.9201,2.8279,2.7487,2.667,2.6019,2.5348,2.4659,2.468,2.4765,2.4327,2.4069,2.382,2.3493,2.3154,2.2706,2.2274,2.2097,2.1919,2.183,2.1909,2.1998,2.2097,2.2167,2.2167,2.2078,2.1998,2.1722,2.1257,2.0898,2.0637,2.0192,2.0374,2.0546,1.0615,1.0607,1.0461,1.0715,1.134,1.2161,1.3674,1.555,1.6341,1.7153,1.8179,1.9654,2.0907,2.2041,2.3867,2.5432,2.688,2.7938,2.8736,2.9419,3.0216,3.0973,3.1736,3.2861,3.3905,3.4978,3.6024,3.686,3.7358,3.796,3.8335,3.8391,3.8639,3.8914,3.9202,3.9625,3.9884,3.9986,3.9884,4.002,4.0368,4.0849,4.1356,4.1888,4.236,4.2808,4.3232,4.3461,4.3712,4.4072,4.4299,4.4553,4.4872,4.5165,4.5396,4.5626,4.584,4.5994,4.6054,4.6074,4.5877,4.5345,4.4722,4.4342,4.4317,4.3606,4.2832,4.2044,4.1098,4.0199,3.9337,3.8437,3.7424,3.6384,3.5115,3.4013,3.3199,3.2205,3.1281,3.0607,2.9626,2.8767,2.7867,2.6999,2.6257,2.5516,2.484,2.4155,2.3484,2.3503,2.357,2.3309,2.3135,2.2969,2.2882,2.2539,2.2264,2.2097,2.1919,2.1741,2.1651,2.1713,2.1793,2.1998,2.1882,2.1774,2.1695,2.1436,2.0898,2.0257,1.9903,1.9637,1.9188,1.9188,1.9279,1.0907,1.0903,1.1042,1.1328,1.1958,1.3325,1.473,1.611,1.6953,1.7567,1.8187,1.9646,2.0988,2.2306,2.4049,2.56,2.6974,2.803,2.8882,2.9561,3.0368,3.1185,3.2173,3.3157,3.4312,3.5514,3.6538,3.7282,3.796,3.8432,3.8711,3.8892,3.9148,3.9451,3.9729,3.9935,4.0155,4.0404,4.0288,4.0451,4.096,4.1356,4.1924,4.2501,4.2865,4.3232,4.3597,4.3791,4.4072,4.4346,4.4669,4.4947,4.5204,4.5468,4.5689,4.5847,4.5998,4.6058,4.6094,4.5832,4.5399,4.4763,4.4065,4.3435,4.2976,4.2553,4.192,4.0983,4.0067,3.911,3.8036,3.714,3.6136,3.4904,3.3848,3.282,3.1769,3.0895,3.0088,2.9238,2.845,2.7568,2.6753,2.5924,2.5179,2.4519,2.3734,2.3038,2.2539,2.2441,2.2618,2.2706,2.253,2.2451,2.2451,2.2087,2.1919,2.1919,2.1731,2.1642,2.1571,2.1544,2.1454,2.1374,2.1266,2.0979,2.0718,2.0357,1.9911,1.9355,1.908,1.8819,1.8542,1.855,1.8835,1.1236,1.135,1.1568,1.211,1.2965,1.4495,1.5634,1.6315,1.7209,1.7884,1.844,1.9711,2.1077,2.2473,2.4049,2.56,2.6962,2.803,2.8973,2.9793,3.0508,3.1408,3.2547,3.3506,3.4662,3.5976,3.6876,3.7727,3.8375,3.8766,3.9094,3.9432,3.9677,3.9969,4.0171,4.0271,4.0468,4.0823,4.0871,4.1053,4.1507,4.1881,4.24,4.3032,4.3267,4.3579,4.3942,4.4151,4.4374,4.4643,4.4966,4.5265,4.5488,4.5703,4.5889,4.6006,4.6062,4.6053,4.5897,4.5385,4.4786,4.4149,4.3351,4.2479,4.1644,4.1111,4.0637,3.985,3.8933,3.7841,3.6689,3.5839,3.4758,3.3435,3.2522,3.1523,3.0367,2.9614,2.8912,2.7971,2.7255,2.6599,2.5768,2.4925,2.4251,2.3484,2.2794,2.2264,2.2008,2.183,2.1909,2.2008,2.2097,2.2008,2.2008,2.183,2.1741,2.1731,2.1731,2.1651,2.1472,2.1392,2.1114,2.0744,2.0564,2.0192,1.9637,1.9363,1.9088,1.8535,1.8357,1.8265,1.8179,1.8365,1.8651,1.1459,1.1896,1.201,1.2762,1.4164,1.5316,1.6008,1.6407,1.7517,1.8239,1.8761,1.9898,2.1125,2.2473,2.4155,2.5717,2.7208,2.8099,2.9052,2.996,3.0784,3.1823,3.2974,3.3988,3.5124,3.618,3.7194,3.7976,3.8583,3.904,3.9415,3.9849,4.0087,4.0355,4.0468,4.0741,4.1071,4.1346,4.1744,4.1917,4.1881,4.2378,4.2864,4.3249,4.3545,4.3841,4.4181,4.4355,4.465,4.5011,4.5246,4.5505,4.5736,4.5889,4.6013,4.6085,4.6094,4.5891,4.5383,4.4763,4.413,4.349,4.2441,4.1419,4.0435,3.9254,3.8537,3.8316,3.7494,3.6369,3.5374,3.4441,3.3338,3.2064,3.0917,2.9909,2.9081,2.8235,2.751,2.7092,2.6434,2.5673,2.484,2.409,2.3319,2.253,2.2274,2.2008,2.183,2.1741,2.1651,2.1571,2.1651,2.1731,2.1741,2.1741,2.1642,2.1642,2.1731,2.1562,2.1383,2.1105,2.0907,2.0192,1.992,1.9463,1.9004,1.8727,1.8442,1.7986,1.7807,1.7807,1.8087,1.8365,1.8735,1.2183,1.2717,1.3143,1.4056,1.5244,1.5992,1.6567,1.6892,1.7825,1.8366,1.8885,2.0191,2.1639,2.3214,2.4822,2.6271,2.7455,2.8607,2.9401,3.005,3.1022,3.2042,3.3185,3.4124,3.5255,3.6492,3.7417,3.8173,3.8843,3.9451,3.9986,4.0355,4.0502,4.0648,4.084,4.1041,4.1328,4.1683,4.2151,4.2458,4.2732,4.2958,4.3267,4.3679,4.3949,4.4221,4.4522,4.4745,4.4969,4.5265,4.5503,4.5717,4.5889,4.602,4.6049,4.6014,4.5737,4.5306,4.476,4.413,4.3439,4.2665,4.1505,4.0435,3.946,3.7979,3.6901,3.6322,3.5806,3.5065,3.393,3.2947,3.1874,3.0706,2.9654,2.8743,2.7903,2.7255,2.6693,2.6102,2.5516,2.4765,2.4003,2.3232,2.2539,2.2008,2.183,2.183,2.1741,2.1562,2.1482,2.1392,2.1293,2.1195,2.1275,2.1383,2.1472,2.1374,2.1383,2.1392,2.0835,2.0564,2.0093,1.9355,1.8996,1.8535,1.7986,1.7885,1.7699,1.7527,1.7621,1.7721,1.7815,1.8179,1.8365,1.3175,1.38,1.4473,1.52,1.5785,1.6418,1.6743,1.7067,1.7905,1.8497,1.9008,2.0604,2.2336,2.3975,2.5483,2.6691,2.7884,2.9201,3.0078,3.0675,3.1734,3.2763,3.3903,3.4781,3.5923,3.7141,3.8122,3.8845,3.9537,3.9986,4.0436,4.0745,4.084,4.0982,4.1215,4.1363,4.1683,4.2133,4.2519,4.294,4.3408,4.3545,4.3744,4.4048,4.4298,4.453,4.4852,4.5052,4.5285,4.5486,4.575,4.591,4.6013,4.6053,4.5971,4.5772,4.5275,4.4718,4.4112,4.3406,4.2647,4.1747,4.0548,3.9426,3.8349,3.6901,3.5503,3.447,3.4081,3.338,3.2563,3.1549,3.0506,2.9381,2.8426,2.7557,2.6846,2.6351,2.5779,2.5105,2.4584,2.3907,2.3144,2.2362,2.1839,2.1553,2.1553,2.1454,2.1463,2.1293,2.1114,2.0934,2.0564,2.0555,2.0826,2.1015,2.1114,2.1015,2.1015,2.0934,2.0283,1.9828,1.9363,1.8619,1.8156,1.7699,1.7326,1.7138,1.7318,1.7326,1.752,1.7721,1.7721,1.79,1.7994,1.4287,1.5271,1.5928,1.5904,1.5595,1.6117,1.6324,1.6543,1.7589,1.8408,1.9391,2.1127,2.3041,2.483,2.5593,2.6896,2.8643,2.9846,3.1041,3.2199,3.3063,3.4163,3.5319,3.6297,3.7293,3.8314,3.9249,4.0147,4.0838,4.0813,4.0745,4.097,4.1267,4.1461,4.1604,4.1892,4.2251,4.2616,4.3032,4.3442,4.3846,4.4177,4.4277,4.4269,4.4513,4.4783,4.5007,4.5265,4.5503,4.5783,4.5919,4.602,4.6072,4.6032,4.5765,4.5269,4.4722,4.4149,4.3457,4.2627,4.1764,4.0787,3.9614,3.8404,3.7243,3.5869,3.4551,3.3129,3.2277,3.1636,3.1119,3.0291,2.9291,2.8291,2.7255,2.6351,2.5695,2.5274,2.469,2.409,2.3657,2.3057,2.1998,2.1571,2.1284,2.1096,2.0997,2.0907,2.0736,2.0736,2.0374,1.992,1.9729,1.992,2.0464,2.0564,2.0564,2.0374,2.0283,2.0374,1.982,1.9171,1.8527,1.787,1.7397,1.703,1.6756,1.685,1.7124,1.7225,1.752,1.7621,1.7621,1.79,1.79,1.5134,1.6216,1.6722,1.6773,1.6578,1.6499,1.653,1.6636,1.7589,1.8422,1.9435,2.1269,2.3085,2.4758,2.6283,2.7731,2.9171,3.0628,3.1795,3.2698,3.3765,3.4827,3.5769,3.6611,3.7647,3.8803,3.9612,4.0671,4.1897,4.2207,4.2237,4.2137,4.2279,4.2212,4.2023,4.2151,4.2498,4.294,4.3355,4.3777,4.4188,4.4468,4.464,4.4758,4.4953,4.5096,4.5304,4.5591,4.5777,4.5949,4.6008,4.6072,4.6072,4.5796,4.5326,4.4722,4.4231,4.3555,4.2609,4.1806,4.0816,3.9716,3.8427,3.7227,3.6105,3.4787,3.3408,3.2277,3.118,3.0291,2.9369,2.8743,2.8039,2.6987,2.6185,2.5359,2.485,2.4337,2.4003,2.3406,2.2882,2.2274,2.1651,2.1284,2.1006,2.0645,2.0365,2.0175,1.9894,1.9712,1.9347,1.9072,1.8711,1.8434,1.8711,1.9363,1.9646,1.9463,1.9363,1.918,1.8719,1.8249,1.7598,1.7232,1.6756,1.6567,1.6487,1.677,1.6951,1.7232,1.7426,1.7527,1.7434,1.7621,1.7613,1.6143,1.6922,1.729,1.7108,1.6836,1.663,1.6493,1.653,1.7483,1.8415,1.9435,2.1371,2.3194,2.4875,2.6829,2.8446,2.9854,3.1417,3.2586,3.3382,3.463,3.5789,3.6678,3.7526,3.8485,3.9669,4.0459,4.165,4.2839,4.3299,4.3341,4.323,4.3385,4.3154,4.2727,4.2853,4.3118,4.3339,4.3642,4.406,4.4468,4.4719,4.4967,4.5178,4.5323,4.5453,4.5591,4.5822,4.5969,4.6034,4.6056,4.6009,4.585,4.5467,4.4908,4.4231,4.3651,4.285,4.1806,4.0897,3.9834,3.8625,3.7286,3.6105,3.4984,3.3587,3.2349,3.1193,3.0126,2.8978,2.7799,2.7162,2.667,2.5946,2.5189,2.4509,2.381,2.356,2.3135,2.2618,2.2078,2.1553,2.1114,2.0835,2.0374,1.9928,1.9629,1.9338,1.8972,1.8603,1.8241,1.8048,1.7591,1.7318,1.7404,1.7777,1.8342,1.8249,1.8442,1.8164,1.7885,1.7333,1.6958,1.6581,1.6305,1.6211,1.6407,1.669,1.6972,1.7239,1.7333,1.7333,1.7333,1.7333,1.7333,1.7548,1.7557,1.7647,1.7116,1.6508,1.6393,1.6127,1.626,1.7173,1.8199,1.9428,2.1574,2.3484,2.5275,2.7125,2.8877,3.0461,3.1955,3.3403,3.4614,3.5919,3.709,3.8177,3.8996,4.004,4.1154,4.2174,4.3149,4.3992,4.3979,4.4044,4.417,4.4511,4.4293,4.3632,4.3945,4.4035,4.3937,4.4098,4.4373,4.4667,4.4943,4.5178,4.5399,4.563,4.5744,4.5725,4.5911,4.6027,4.6078,4.6031,4.5796,4.5414,4.4987,4.4466,4.3669,4.2996,4.2073,4.0943,3.9884,3.8717,3.7361,3.6183,3.4904,3.3587,3.242,3.1119,2.9909,2.8888,2.7787,2.6423,2.5684,2.5274,2.5105,2.4337,2.357,2.295,2.2511,2.2176,2.1562,2.1186,2.0826,2.0382,2.011,1.9654,1.9004,1.8627,1.8249,1.7878,1.7505,1.7145,1.6763,1.648,1.6292,1.6285,1.6285,1.6662,1.7044,1.7412,1.7512,1.7145,1.6777,1.6581,1.6211,1.6109,1.6021,1.6305,1.6595,1.6871,1.7052,1.7145,1.7333,1.7333,1.7333,1.7333,1.8021,1.7817,1.7619,1.7338,1.6803,1.6459,1.635,1.647,1.7258,1.8297,1.9731,2.1574,2.3393,2.5178,2.7115,2.8888,3.0598,3.2426,3.4056,3.5386,3.6844,3.8084,3.9133,3.992,4.0992,4.2427,4.3464,4.4351,4.4975,4.5373,4.5476,4.5356,4.5507,4.5293,4.4845,4.5071,4.5039,4.48,4.5099,4.5197,4.4971,4.5132,4.5362,4.5607,4.579,4.5891,4.5982,4.6084,4.6104,4.6049,4.5916,4.5551,4.4872,4.4403,4.3708,4.2759,4.2119,4.1119,3.9817,3.8684,3.7504,3.6059,3.4662,3.3393,3.2164,3.0944,2.9731,2.8652,2.7706,2.6588,2.5421,2.4488,2.3973,2.38,2.3387,2.2784,2.1989,2.1463,2.1186,2.0925,2.0645,2.0374,1.9828,1.9455,1.8804,1.8164,1.7707,1.734,1.6958,1.6574,1.6298,1.6015,1.573,1.5547,1.554,1.5635,1.5825,1.6204,1.6574,1.6763,1.6487,1.64,1.6116,1.6015,1.5825,1.592,1.6305,1.6494,1.6683,1.6965,1.7153,1.7239,1.7333,1.7333,1.7333,1.82,1.7948,1.7658,1.7401,1.7068,1.6837,1.6698,1.6829,1.7729,1.8618,1.9857,2.1777,2.3502,2.507,2.7105,2.905,3.0742,3.2905,3.4831,3.6369,3.7663,3.8884,3.9905,4.0857,4.1917,4.3202,4.4145,4.4927,4.5684,4.6217,4.6418,4.6373,4.6557,4.6374,4.5957,4.6176,4.6168,4.5923,4.5857,4.5786,4.5601,4.5495,4.5543,4.575,4.589,4.6008,4.6109,4.6092,4.603,4.5898,4.5638,4.5036,4.424,4.3708,4.2958,4.1925,4.1101,4.018,3.8663,3.7562,3.6276,3.4662,3.3254,3.1992,3.0856,2.9512,2.8414,2.7464,2.6494,2.5421,2.4307,2.3444,2.2746,2.2217,2.2255,2.182,2.1024,2.0473,2.011,1.992,1.9729,1.9455,1.908,1.8619,1.8056,1.7419,1.6965,1.6595,1.6312,1.5927,1.5642,1.5452,1.5166,1.4981,1.4981,1.4981,1.4981,1.5363,1.5743,1.5927,1.5927,1.6021,1.592,1.592,1.5825,1.5927,1.6211,1.6312,1.6501,1.6784,1.7059,1.7153,1.7239,1.7333,1.7333,1.7966,1.7972,1.7602,1.7456,1.7256,1.7399,1.7353,1.7167,1.834,1.9225,2.0139,2.2021,2.371,2.5168,2.7379,2.9304,3.114,3.352,3.5826,3.7562,3.881,3.9788,4.0653,4.1917,4.2941,4.368,4.4373,4.5089,4.5837,4.635,4.6852,4.7168,4.7367,4.7484,4.7126,4.7298,4.7311,4.6934,4.6504,4.6453,4.6526,4.6011,4.5757,4.5906,4.6013,4.6075,4.6065,4.5903,4.5774,4.5653,4.5074,4.4391,4.3614,4.3012,4.2145,4.0937,4.0197,3.8974,3.7562,3.6307,3.4896,3.3156,3.192,3.0794,2.9422,2.8255,2.7151,2.6174,2.5253,2.4221,2.3183,2.2306,2.1507,2.0718,2.0826,2.0654,1.9928,1.9463,1.8996,1.8719,1.8535,1.8249,1.8071,1.7613,1.7145,1.6777,1.6407,1.6123,1.5832,1.5553,1.5172,1.4885,1.4688,1.4592,1.4688,1.4688,1.4688,1.4879,1.5267,1.5458,1.5642,1.5737,1.5825,1.5825,1.5825,1.5927,1.6123,1.6218,1.6312,1.6595,1.6878,1.7059,1.7153,1.7246,1.7239,1.8194,1.7966,1.7608,1.7566,1.7713,1.7874,1.8266,1.8736,1.9276,2.0022,2.1122,2.2528,2.3963,2.5382,2.7568,2.9727,3.2005,3.441,3.674,3.8809,4.0439,4.1428,4.2173,4.3003,4.3739,4.4276,4.4742,4.5266,4.592,4.6398,4.6852,4.7302,4.7597,4.7856,4.805,4.8327,4.8296,4.802,4.8053,4.7514,4.6819,4.6675,4.6396,4.5994,4.6055,4.6055,4.5962,4.5467,4.5132,4.5013,4.4468,4.3695,4.2795,4.2042,4.1039,3.9767,3.8863,3.7792,3.6261,3.4925,3.3433,3.1748,3.0366,2.8942,2.7879,2.6753,2.5852,2.4914,2.4135,2.3183,2.2217,2.1248,2.0175,1.9063,1.9171,1.9371,1.8988,1.8342,1.7792,1.7699,1.7505,1.7225,1.7044,1.6864,1.6683,1.6305,1.6116,1.5838,1.5642,1.5363,1.5077,1.479,1.4592,1.449,1.4394,1.4394,1.4394,1.449,1.4879,1.5363,1.5553,1.5737,1.573,1.5825,1.5825,1.5927,1.5927,1.6028,1.6312,1.6501,1.6595,1.6777,1.6972,1.7066,1.7153,1.8194,1.7849,1.7726,1.7843,1.8064,1.8487,1.9032,1.9541,2.0318,2.101,2.1933,2.3315,2.4629,2.5993,2.8201,3.057,3.2884,3.5197,3.7523,3.9847,4.1885,4.2986,4.3399,4.3831,4.4236,4.4669,4.5015,4.5494,4.6038,4.6495,4.6962,4.7425,4.7723,4.809,4.8569,4.8872,4.9014,4.89,4.8929,4.8493,4.7932,4.7326,4.6926,4.6495,4.6278,4.5945,4.5589,4.4973,4.4569,4.4342,4.3825,4.2995,4.1955,4.1136,4.0033,3.8657,3.7742,3.6538,3.494,3.3599,3.2109,3.0517,2.902,2.7763,2.6741,2.5684,2.4754,2.3963,2.3096,2.2129,2.1168,1.9994,1.8711,1.7777,1.7512,1.7699,1.7878,1.7225,1.6857,1.6669,1.648,1.6386,1.6204,1.6204,1.6109,1.6021,1.5927,1.5737,1.5547,1.5267,1.4981,1.4694,1.4496,1.4394,1.4298,1.4298,1.4394,1.449,1.4783,1.5178,1.5458,1.5737,1.5737,1.5825,1.5825,1.5825,1.5927,1.5933,1.6123,1.6218,1.6312,1.6595,1.6784,1.6972,1.7059,1.8064,1.7485,1.7855,1.8083,1.8317,1.9345,1.988,2.0012,2.1448,2.215,2.2675,2.4193,2.5619,2.6832,2.9267,3.1595,3.402,3.6571,3.909,4.1484,4.3514,4.469,4.469,4.4468,4.4703,4.5069,4.5336,4.5684,4.6186,4.659,4.7116,4.7554,4.7888,4.8306,4.8768,4.9042,4.937,4.9587,4.9439,4.9292,4.8981,4.8095,4.7407,4.7057,4.6248,4.5618,4.5074,4.4468,4.3997,4.3757,4.3101,4.2181,4.1091,4.0214,3.9023,3.7668,3.6553,3.528,3.3682,3.2266,3.0817,2.9332,2.8016,2.6905,2.5757,2.484,2.3897,2.3008,2.2138,2.1159,1.9894,1.8527,1.7412,1.6574,1.6021,1.6021,1.6204,1.6197,1.5913,1.5737,1.5439,1.5534,1.554,1.5547,1.5445,1.535,1.535,1.5255,1.5064,1.4975,1.4783,1.4592,1.4496,1.4298,1.4298,1.4298,1.4394,1.449,1.4885,1.5267,1.5642,1.573,1.5825,1.5825,1.5825,1.5825,1.5825,1.5927,1.5933,1.6028,1.6116,1.6407,1.6697,1.6784,1.6871,1.7843,1.7485,1.7855,1.8428,1.9107,2.0026,2.0909,2.1518,2.2593,2.3116,2.3736,2.4966,2.6294,2.7683,3.0515,3.335,3.595,3.8845,4.1952,4.4966,4.6035,4.6737,4.6559,4.5754,4.5245,4.5493,4.5649,4.587,4.6284,4.6731,4.716,4.7554,4.7988,4.8438,4.8906,4.9206,4.9558,4.9974,5.0096,4.9913,4.9521,4.8701,4.7846,4.7246,4.6152,4.5274,4.463,4.3968,4.3222,4.2515,4.192,4.1128,4.0082,3.9023,3.7825,3.6522,3.523,3.3901,3.2437,3.0966,2.9462,2.8096,2.673,2.5516,2.4669,2.3734,2.2862,2.2059,2.1248,2.0167,1.8519,1.7217,1.6379,1.5642,1.5166,1.4975,1.4873,1.4968,1.5064,1.4968,1.4873,1.4777,1.4675,1.4873,1.4777,1.4675,1.4675,1.458,1.4586,1.449,1.44,1.4304,1.4304,1.4208,1.4112,1.4208,1.44,1.4592,1.4981,1.5267,1.5642,1.5825,1.5825,1.5825,1.5825,1.5825,1.5825,1.5825,1.5927,1.5927,1.5927,1.6211,1.6407,1.6588,1.6777,1.7966,1.7843,1.8194,1.8881,1.9679,2.0716,2.1531,2.2191,2.3047,2.3513,2.4023,2.5228,2.6625,2.8234,3.1188,3.4156,3.7522,4.144,4.4415,4.6439,4.7295,4.7775,4.7977,4.7299,4.6691,4.6446,4.6095,4.6172,4.6447,4.6842,4.7267,4.7615,4.797,4.8476,4.8974,4.9334,4.9731,5.0125,5.0462,5.045,5.0148,4.908,4.7742,4.6702,4.565,4.4817,4.4102,4.3251,4.2343,4.1367,4.0513,3.9833,3.9199,3.8084,3.6781,3.5394,3.3955,3.2579,3.114,2.9628,2.8243,2.6987,2.5757,2.4744,2.3714,2.2862,2.198,2.1257,2.0357,1.9171,1.7419,1.6379,1.5629,1.507,1.4694,1.449,1.4388,1.4394,1.4496,1.4496,1.4406,1.4304,1.4202,1.4106,1.4004,1.3902,1.3902,1.3902,1.4094,1.4004,1.4016,1.4016,1.4022,1.4022,1.3919,1.4112,1.4406,1.4694,1.4987,1.5363,1.5642,1.5737,1.5825,1.5825,1.5825,1.5825,1.5825,1.5825,1.5825,1.5825,1.5927,1.5927,1.6116,1.6312,1.6494,1.8083,1.8089,1.8771,1.9461,2.0155,2.1303,2.1987,2.2335,2.3135,2.3648,2.4128,2.5136,2.6624,2.8575,3.1822,3.5259,3.9771,4.3652,4.7089,4.7917,4.8491,4.8852,4.8995,4.8766,4.8205,4.7469,4.6885,4.6711,4.6737,4.7025,4.7356,4.7699,4.8068,4.8514,4.9023,4.942,4.983,5.0249,5.0547,5.0778,5.0608,4.9328,4.7613,4.5899,4.5033,4.4248,4.3379,4.2443,4.1393,4.0263,3.89,3.8205,3.7751,3.7065,3.5791,3.4211,3.2707,3.1275,2.9782,2.8402,2.7069,2.6019,2.4904,2.3877,2.2921,2.205,2.1248,2.0257,1.9355,1.8164,1.6676,1.5818,1.5159,1.4688,1.4304,1.4202,1.4202,1.4202,1.4106,1.4208,1.4022,1.3823,1.3528,1.3329,1.3221,1.3125,1.3125,1.3227,1.3318,1.342,1.3431,1.3534,1.3636,1.3636,1.363,1.3925,1.4214,1.47,1.5083,1.5363,1.5642,1.5737,1.5825,1.5825,1.5825,1.5825,1.5825,1.5825,1.5825,1.5825,1.5825,1.5927,1.6021,1.6123,1.6312,1.8077,1.8421,1.9236,2.0148,2.106,2.1979,2.2554,2.2901,2.3464,2.3809,2.4024,2.5128,2.6309,2.868,3.3103,3.8765,4.4203,4.7642,4.9137,4.9788,5.0151,5.0418,5.0365,4.9886,4.9286,4.8647,4.7882,4.7305,4.6949,4.7098,4.7425,4.7741,4.8132,4.8623,4.9118,4.956,4.9968,5.0385,5.0662,5.0884,5.0675,4.9371,4.7401,4.5357,4.4423,4.3547,4.2521,4.1435,4.0323,3.9096,3.763,3.6368,3.5386,3.4801,3.383,3.268,3.1262,2.9795,2.8481,2.7221,2.6008,2.4914,2.3887,2.2921,2.2041,2.1248,2.0357,1.9263,1.8064,1.6763,1.6015,1.5261,1.4688,1.4214,1.3931,1.3829,1.3732,1.363,1.3636,1.3732,1.3539,1.3244,1.2851,1.236,1.1965,1.1765,1.1673,1.1868,1.2068,1.2457,1.2754,1.2953,1.3249,1.3244,1.3147,1.3636,1.4022,1.4598,1.4981,1.5363,1.5642,1.5737,1.5825,1.5825,1.5825,1.5825,1.5825,1.5825,1.5825,1.5825,1.5825,1.5825,1.5927,1.6028,1.6123,1.8311,1.8991,1.9917,2.0838,2.1645,2.2449,2.2788,2.2796,2.3135,2.3247,2.3464,2.4008,2.4974,2.7622,3.297,4.0133,4.675,4.9543,5.0477,5.091,5.1105,5.1264,5.121,5.0569,4.982,4.9088,4.839,4.7625,4.6895,4.7143,4.745,4.7811,4.8231,4.8765,4.9277,4.9674,5.0116,5.0508,5.0784,5.0952,5.0927,4.9294,4.71,4.5082,4.3666,4.2614,4.1372,4.0155,3.8838,3.7451,3.5967,3.4464,3.3196,3.2157,3.1548,3.0865,2.977,2.8481,2.7209,2.5997,2.4914,2.3887,2.3018,2.2148,2.1257,2.0447,1.9446,1.8156,1.7225,1.6103,1.5458,1.4879,1.44,1.3931,1.3642,1.3443,1.3249,1.3152,1.3055,1.2958,1.2759,1.2462,1.1878,1.1389,1.0801,1.0507,1.0212,1.0507,1.09,1.1389,1.1873,1.2073,1.2273,1.2467,1.2559,1.3141,1.3823,1.44,1.4981,1.5267,1.5547,1.573,1.5825,1.5825,1.5825,1.5825,1.5825,1.5825,1.5825,1.5825,1.5825,1.5825,1.5832,1.5927,1.6028,1.8648,1.9564,2.0601,2.1417,2.223,2.2901,2.2909,2.2691,2.2691,2.257,2.257,2.2974,2.4183,2.7737,3.4422,4.2233,4.9441,5.0589,5.1105,5.1331,5.147,5.1556,5.1393,5.0838,5.0084,4.9347,4.8626,4.7747,4.7105,4.7232,4.7518,4.7915,4.8383,4.8922,4.942,4.9838,5.0252,5.0625,5.0879,5.0996,5.0227,4.8805,4.6609,4.4185,4.2896,4.1588,4.0151,3.8718,3.7287,3.5797,3.4214,3.2667,3.1156,2.9706,2.8983,2.8827,2.814,2.7046,2.5997,2.4904,2.3877,2.2921,2.2167,2.1365,2.0357,1.9438,1.8427,1.7037,1.6197,1.5534,1.4879,1.4394,1.3919,1.3539,1.3152,1.2759,1.2467,1.2268,1.1975,1.1878,1.1878,1.1585,1.0998,1.0404,0.9817,0.9616,0.9324,0.9521,0.9912,1.0502,1.0895,1.0998,1.1198,1.1492,1.1878,1.2457,1.3329,1.4202,1.4783,1.5267,1.5547,1.5825,1.5825,1.5825,1.5825,1.5825,1.5825,1.5825,1.5825,1.5825,1.5825,1.5825,1.5825,1.5825,1.5832,1.9345,2.027,2.1417,2.2108,2.257,2.3135,2.3135,2.257,2.2578,2.2456,2.2108,2.2733,2.546,3.149,4.0077,4.647,4.9933,5.1347,5.179,5.1871,5.1938,5.1938,5.1861,5.1227,5.0289,4.9511,4.8739,4.8021,4.7366,4.7381,4.7687,4.8114,4.8623,4.9123,4.9637,5.0038,5.0406,5.08,5.0998,5.0371,4.902,4.8009,4.6088,4.3812,4.2031,4.051,3.8913,3.7303,3.5702,3.4161,3.2398,3.0839,2.9347,2.8164,2.6987,2.6412,2.5913,2.5663,2.4744,2.379,2.2921,2.1961,2.1266,2.0365,1.9355,1.8149,1.7131,1.6103,1.535,1.4682,1.4106,1.3528,1.305,1.2662,1.2268,1.178,1.1389,1.1292,1.0998,1.06,1.0596,1.0404,1.0019,0.9422,0.8928,0.873,0.863,0.8829,0.9122,0.9616,1.001,1.0216,1.0413,1.0708,1.1389,1.197,1.2937,1.3908,1.4682,1.5267,1.5547,1.5825,1.5825,1.5825,1.5825,1.5825,1.5825,1.5825,1.5825,1.5825,1.5825,1.5825,1.5825,1.5825,1.5825,2.0256,2.1067,2.1987,2.2675,2.3135,2.336,2.3022,2.2449,2.2343,2.2002,2.166,2.1774,2.6333,3.48,4.2264,4.7571,5.1061,5.2036,5.2168,5.215,5.215,5.2084,5.176,5.0879,4.9944,4.9495,4.8542,4.7839,4.7522,4.7645,4.7915,4.8346,4.8866,4.9382,4.9846,5.0252,5.0587,5.0868,5.0933,5.0305,4.9004,4.7834,4.6119,4.3194,4.1541,3.968,3.7614,3.5702,3.4071,3.2524,3.0729,2.9127,2.7888,2.673,2.5611,2.468,2.4241,2.3973,2.3627,2.2833,2.1952,2.1159,2.0357,1.9446,1.8249,1.7225,1.6103,1.5255,1.4586,1.401,1.3335,1.2754,1.2268,1.178,1.1389,1.09,1.0408,1.0216,1.0019,0.962,0.932,0.9324,0.9229,0.8928,0.8531,0.8333,0.8333,0.8432,0.863,0.9019,0.9324,0.9525,0.9723,0.992,1.0801,1.1482,1.2651,1.3715,1.4592,1.5172,1.5642,1.5825,1.5825,1.5825,1.5825,1.5825,1.5825,1.5825,1.5825,1.5825,1.5825,1.5825,1.5825,1.5825,1.5825,2.1174,2.1964,2.2441,2.2901,2.336,2.336,2.2901,2.2116,2.2002,2.166,2.2263,2.4326,3.0776,3.8442,4.4475,4.9275,5.2343,5.2405,5.2358,5.2293,5.2209,5.2101,5.1542,5.0487,4.973,4.9496,4.8269,4.7723,4.7824,4.7995,4.8271,4.8657,4.9132,4.9627,5.0073,5.0411,5.0739,5.1015,5.1015,5.0271,4.8981,4.7851,4.569,4.3302,4.1019,3.8901,3.6413,3.4399,3.2742,3.0878,2.9139,2.7579,2.6307,2.5326,2.4413,2.3464,2.295,2.2501,2.2315,2.1774,2.1069,2.0257,1.9347,1.8334,1.7225,1.6292,1.5439,1.449,1.3817,1.3141,1.2565,1.1883,1.1385,1.0797,1.0408,1.0015,0.9719,0.9521,0.9229,0.8931,0.873,0.863,0.8531,0.8432,0.8237,0.8038,0.8038,0.8137,0.8333,0.8528,0.863,0.8931,0.913,0.9426,1.0216,1.1091,1.2262,1.3329,1.4304,1.5077,1.5445,1.5635,1.5737,1.5737,1.5825,1.5825,1.5825,1.5825,1.5825,1.5825,1.5825,1.5825,1.5825,1.5825,1.5825,2.2328,2.2901,2.2901,2.3014,2.3014,2.3014,2.2675,2.2002,2.1774,2.1722,2.3198,3.0626,3.7562,4.436,4.8485,5.1658,5.2608,5.2508,5.248,5.248,5.2444,5.2036,5.1384,5.0552,4.9665,4.9014,4.8134,4.7961,4.8187,4.8421,4.8694,4.9005,4.9412,4.9891,5.0284,5.0617,5.0878,5.1031,5.0937,5.0086,4.8687,4.7205,4.5251,4.277,4.0433,3.8136,3.5545,3.3484,3.1428,2.9456,2.7684,2.6141,2.4999,2.4059,2.3193,2.2325,2.1793,2.1347,2.0889,2.0709,2.0175,1.9263,1.8156,1.7124,1.6285,1.535,1.449,1.3715,1.3044,1.2268,1.1492,1.0806,1.0404,0.9912,0.9521,0.9225,0.8928,0.873,0.8535,0.824,0.8137,0.8137,0.8137,0.8137,0.8137,0.8038,0.8038,0.8038,0.8038,0.8233,0.8134,0.8336,0.8432,0.8928,0.9624,1.0699,1.1873,1.2845,1.3721,1.4586,1.5255,1.5445,1.5547,1.573,1.573,1.5825,1.5825,1.5825,1.5825,1.5825,1.5825,1.5825,1.5825,1.5825,1.5825,2.2335,2.2796,2.2796,2.2909,2.3014,2.2796,2.2343,2.1546,2.1303,2.3015,2.5795,3.2031,3.8557,4.5009,5.0334,5.2761,5.2608,5.2563,5.2581,5.2554,5.2417,5.2037,5.1312,5.0496,4.9673,4.8876,4.826,4.8046,4.8286,4.8713,4.9104,4.9431,4.9757,5.0145,5.0529,5.0836,5.1025,5.0967,5.0685,4.9873,4.8588,4.6967,4.4898,4.2009,3.9847,3.7255,3.4489,3.2434,3.0398,2.841,2.655,2.5039,2.3754,2.2862,2.2041,2.1248,2.0718,2.0167,1.9712,1.9538,1.9171,1.7971,1.7037,1.619,1.5439,1.4777,1.3913,1.3044,1.2268,1.1487,1.0605,1.0019,0.9525,0.9027,0.873,0.8535,0.8336,0.8237,0.8137,0.8038,0.8038,0.8038,0.8038,0.8038,0.8038,0.8038,0.8038,0.8038,0.8038,0.8038,0.8038,0.8137,0.8333,0.8634,0.9331,1.0408,1.1487,1.236,1.3232,1.3908,1.4675,1.5166,1.5267,1.5547,1.573,1.5825,1.5825,1.5825,1.5825,1.5825,1.5825,1.5825,1.5825,1.5825,1.5825,2.2456,2.2578,2.2578,2.2683,2.2675,2.2456,2.1888,2.096,2.0242,2.175,2.5874,3.0061,3.5985,4.3072,5.011,5.2864,5.2831,5.2743,5.2654,5.2672,5.2572,5.2,5.122,5.0439,4.9633,4.8781,4.8348,4.8169,4.8476,4.8937,4.9382,4.9784,5.014,5.049,5.0732,5.1011,5.1131,5.0911,5.0326,4.9463,4.8196,4.6403,4.432,4.1411,3.9069,3.6445,3.3668,3.148,2.9343,2.7372,2.5577,2.3988,2.2729,2.1679,2.0808,2.0175,1.9629,1.9072,1.8703,1.8249,1.7971,1.6943,1.6292,1.5445,1.4777,1.4202,1.3335,1.2365,1.1585,1.0801,0.9817,0.9229,0.8832,0.8531,0.8432,0.8237,0.8137,0.8038,0.8038,0.8038,0.8038,0.8038,0.8038,0.8038,0.8038,0.8038,0.8038,0.8038,0.8038,0.8038,0.8038,0.8137,0.8333,0.8733,0.9232,1.0019,1.09,1.1585,1.2457,1.3227,1.3902,1.449,1.5077,1.5445,1.5635,1.573,1.5825,1.5832,1.5825,1.5825,1.5825,1.5825,1.5825,1.5825,1.5825,2.2796,2.2578,2.2578,2.2343,2.1995,2.1782,2.131,2.0113,1.8288,1.8773,2.1397,2.7676,3.403,4.0369,5.0037,5.2822,5.3023,5.2893,5.2824,5.2824,5.2725,5.1825,5.0926,5.0155,4.9537,4.8348,4.813,4.8402,4.8694,4.9259,4.9702,5.0107,5.0452,5.0751,5.0901,5.1086,5.1029,5.0649,4.9865,4.8732,4.7208,4.5285,4.3032,4.0554,3.8018,3.5251,3.2669,3.0577,2.8453,2.6272,2.4606,2.307,2.1556,2.0572,1.972,1.9076,1.8473,1.7986,1.7692,1.7044,1.648,1.6096,1.5445,1.4879,1.4298,1.3624,1.2754,1.1683,1.09,1.0015,0.9225,0.863,0.8333,0.8233,0.8137,0.8038,0.8038,0.8038,0.8038,0.8038,0.8038,0.8038,0.8038,0.8038,0.8038,0.8038,0.8038,0.8038,0.8038,0.8038,0.8038,0.8137,0.8333,0.8531,0.9031,0.9628,1.0314,1.0998,1.178,1.2452,1.3227,1.3908,1.4586,1.5255,1.5635,1.573,1.5737,1.5737,1.5737,1.573,1.5825,1.5825,1.5825,1.5825,1.5825,2.257,2.2222,2.2116,2.1546,2.096,2.1074,2.0242,1.7848,1.3815,1.6143,2.4999,2.7832,3.6013,4.5743,5.05,5.3295,5.3085,5.3042,5.2955,5.2912,5.285,5.1766,5.0812,5.0211,4.9518,4.8452,4.8326,4.8713,4.9052,4.956,4.9993,5.0368,5.0705,5.0975,5.103,5.1018,5.0742,5.0181,4.9235,4.7958,4.6266,4.4065,4.1659,3.9113,3.6536,3.3936,3.144,2.9522,2.7473,2.5375,2.3702,2.2348,2.0897,1.9817,1.8981,1.8354,1.772,1.677,1.619,1.5534,1.5159,1.4968,1.4777,1.4208,1.3437,1.2953,1.198,1.1096,1.0306,0.9418,0.8726,0.8333,0.8038,0.8038,0.8038,0.8038,0.8038,0.8038,0.8038,0.8038,0.8038,0.8038,0.8038,0.8082,0.8089,0.8096,0.8102,0.8058,0.8045,0.8041,0.8038,0.8038,0.8237,0.8432,0.873,0.9324,0.9723,1.0314,1.0998,1.1683,1.2554,1.3426,1.4202,1.4873,1.5255,1.5642,1.5642,1.5642,1.573,1.573,1.5825,1.5825,1.5825,1.5825,1.5825,2.2351,2.1888,2.1668,2.0852,2.0033,2.0019,1.8203,1.3986,0.7565,1.1768,2.178,2.4051,3.2356,4.4883,5.1705,5.3359,5.3109,5.3103,5.306,5.306,5.2999,5.1932,5.0957,5.0355,4.9596,4.8671,4.8569,4.8971,4.934,4.9819,5.0308,5.0704,5.0942,5.0986,5.0956,5.0705,5.0223,4.9453,4.8304,4.6675,4.475,4.2512,3.9976,3.7397,3.4875,3.2389,3.0157,2.8244,2.6476,2.4592,2.3062,2.1761,2.0289,1.9069,1.8297,1.7606,1.6842,1.587,1.5096,1.4586,1.4304,1.3823,1.3817,1.3528,1.2759,1.2273,1.1385,1.0404,0.971,0.9023,0.8432,0.8038,0.8038,0.8038,0.8038,0.8038,0.8038,0.8038,0.8048,0.8048,0.8069,0.8062,0.8072,0.8113,0.8153,0.816,0.8167,0.8119,0.8075,0.8062,0.8058,0.8058,0.8144,0.8333,0.863,0.9027,0.9324,0.9525,1.0314,1.11,1.197,1.284,1.3715,1.4394,1.4777,1.5166,1.5356,1.5452,1.554,1.573,1.5825,1.5825,1.5825,1.5825,1.5825,2.2237,2.1668,2.1325,2.0378,1.921,1.7977,1.4345,0.8815,0.3597,0.5908,1.2948,2.1777,3.1769,3.9769,4.9172,5.3171,5.3277,5.3188,5.3164,5.3091,5.2981,5.1875,5.1028,5.0446,4.9591,4.9012,4.8887,4.9246,4.9655,5.0195,5.0684,5.0948,5.1018,5.0883,5.0616,5.0059,4.9468,4.849,4.7092,4.5316,4.328,4.0826,3.8324,3.5778,3.3263,3.0915,2.8811,2.7063,2.5227,2.3529,2.1977,2.0664,1.9283,1.8074,1.7468,1.6819,1.6006,1.5206,1.4509,1.4098,1.3357,1.2964,1.2754,1.2662,1.2175,1.1487,1.06,0.9809,0.9118,0.8627,0.8137,0.8038,0.8038,0.8038,0.8038,0.8038,0.8038,0.8045,0.8058,0.8075,0.8113,0.813,0.8163,0.8201,0.8272,0.8289,0.8296,0.8269,0.8211,0.8116,0.8109,0.8096,0.8175,0.824,0.8531,0.8832,0.9126,0.9426,0.992,1.0708,1.158,1.2355,1.3039,1.3721,1.4298,1.4688,1.4879,1.5159,1.5445,1.5635,1.5825,1.5825,1.5825,1.5825,1.5825,2.131,2.0952,2.0141,1.8855,1.6586,1.1589,0.7248,0.4318,0.6914,1.2899,2.053,2.9508,3.7998,4.8866,5.2113,5.3051,5.3272,5.3206,5.3206,5.3041,5.2656,5.1637,5.0872,5.0181,4.9453,4.9119,4.9104,4.955,5.0005,5.0567,5.0911,5.1128,5.0945,5.0598,4.9911,4.911,4.8319,4.7273,4.5747,4.3834,4.1578,3.9124,3.6592,3.4127,3.1758,2.9534,2.7526,2.5935,2.4187,2.2332,2.129,2.0028,1.8676,1.7681,1.6961,1.601,1.5388,1.4983,1.4254,1.3501,1.2745,1.2036,1.1605,1.1198,1.0801,1.0404,0.9809,0.9217,0.8726,0.8333,0.8137,0.8038,0.8038,0.8038,0.8052,0.8082,0.8089,0.8116,0.8133,0.8204,0.8235,0.8275,0.8303,0.836,0.8425,0.8435,0.8438,0.8425,0.8364,0.8272,0.8204,0.8191,0.8223,0.8392,0.845,0.8741,0.8935,0.9229,0.9821,1.0413,1.1096,1.1775,1.2462,1.3141,1.3721,1.4106,1.449,1.4777,1.5166,1.5635,1.5825,1.5825,1.5825,1.5825,1.5825,2.0852,2.0256,1.9203,1.6569,1.2354,0.6301,0.1821,0.0594,0.7381,1.5483,2.387,3.3202,4.3597,5.194,5.3234,5.3336,5.3206,5.3188,5.3059,5.2509,5.2201,5.1283,5.0515,4.997,4.9582,4.9303,4.9389,4.9849,5.0289,5.0699,5.107,5.1034,5.0755,5.0069,4.9226,4.7999,4.6615,4.5387,4.3909,4.2089,3.9779,3.7261,3.474,3.2413,3.0157,2.8172,2.6204,2.4884,2.3094,2.1277,2.0269,1.9124,1.7871,1.6853,1.6141,1.5324,1.5053,1.4401,1.3808,1.3042,1.2304,1.1378,1.0518,0.9979,0.9739,0.9418,0.9023,0.873,0.8435,0.8137,0.8038,0.8038,0.8038,0.8038,0.8085,0.8133,0.8167,0.8201,0.8265,0.8347,0.8397,0.8442,0.8486,0.854,0.8581,0.8601,0.8648,0.8693,0.8598,0.8465,0.8387,0.8347,0.8343,0.8456,0.8618,0.8785,0.9057,0.9347,0.9727,1.0314,1.0806,1.1292,1.2073,1.2559,1.3044,1.3522,1.4004,1.4496,1.4975,1.5356,1.5825,1.5825,1.5825,1.5825,1.5825,2.0515,1.9455,1.8015,1.3547,0.7414,0.2797,-0.1949,-0.4915,0.6073,1.4871,2.361,3.4433,4.518,5.2641,5.3462,5.3208,5.2991,5.2894,5.2491,5.1926,5.1621,5.0888,5.0267,4.9932,4.9616,4.9565,4.9768,5.0126,5.0449,5.0763,5.0917,5.083,5.0235,4.9457,4.8287,4.6752,4.5085,4.2982,4.1498,3.9741,3.7577,3.5076,3.2536,3.047,2.8533,2.6617,2.4963,2.3402,2.1903,2.0269,1.8923,1.7765,1.6704,1.5956,1.5276,1.4884,1.4599,1.4025,1.3251,1.256,1.1606,1.0684,0.9701,0.924,0.8993,0.8759,0.8535,0.85,0.832,0.8264,0.8177,0.8191,0.8197,0.8204,0.8241,0.8272,0.8296,0.8357,0.8455,0.853,0.8584,0.8621,0.8645,0.8696,0.873,0.8757,0.8791,0.8866,0.8811,0.8655,0.8574,0.8503,0.8584,0.8688,0.8962,0.9116,0.931,0.9573,0.985,1.0019,1.0511,1.0998,1.1585,1.1975,1.236,1.3039,1.3613,1.4202,1.4783,1.5452,1.5737,1.5825,1.5825,1.5825,1.5825,1.9584,1.8286,1.4435,1.0084,0.5477,0.0731,-0.4392,-0.7435,1.1219,1.9552,2.4464,4.0045,5.061,5.2964,5.337,5.2987,5.243,5.2316,5.1856,5.1219,5.08,5.0583,4.9952,4.9743,4.9609,4.975,4.998,5.0394,5.0664,5.0789,5.0634,5.0278,4.957,4.849,4.7132,4.5501,4.3287,4.0907,3.8751,3.7279,3.5462,3.3321,3.1027,2.9065,2.7169,2.5441,2.3782,2.2383,2.0656,1.902,1.7759,1.6499,1.5238,1.5137,1.49,1.4635,1.427,1.3604,1.2755,1.1925,1.1098,1.0156,0.9365,0.8931,0.8536,0.8348,0.8189,0.8271,0.8337,0.8282,0.8319,0.8336,0.8353,0.837,0.8401,0.8418,0.8438,0.8543,0.8648,0.8703,0.876,0.8788,0.8808,0.8832,0.8872,0.8889,0.8896,0.8923,0.8916,0.8821,0.8743,0.8659,0.8832,0.8949,0.9224,0.9422,0.9501,0.9626,0.9697,0.9962,1.0216,1.0605,1.1096,1.1292,1.158,1.2355,1.3227,1.3908,1.458,1.5255,1.5737,1.5825,1.5825,1.5825,1.5825,1.861,1.6984,1.1913,0.7401,0.3225,-0.1076,-0.563,-0.5486,1.2503,2.1044,2.3543,4.2261,5.3721,5.3291,5.2985,5.2423,5.1759,5.1685,5.1189,5.0564,5.0267,5.0073,4.9791,4.9702,4.9844,4.9968,5.0356,5.0717,5.0839,5.064,5.0358,4.9635,4.863,4.7329,4.5835,4.3842,4.1549,3.9083,3.6452,3.4537,3.3191,3.1192,2.9248,2.7442,2.5722,2.407,2.2567,2.1167,1.962,1.7969,1.6499,1.5334,1.4385,1.4283,1.4175,1.3846,1.3496,1.3136,1.2075,1.1259,1.0551,0.9701,0.9118,0.8676,0.8556,0.8398,0.8395,0.836,0.8364,0.8404,0.8411,0.8425,0.8428,0.8438,0.8533,0.8604,0.8665,0.876,0.8811,0.8828,0.8866,0.8872,0.8886,0.8886,0.8916,0.8916,0.8937,0.8937,0.8937,0.8937,0.8876,0.8917,0.8983,0.9118,0.9301,0.9561,0.977,0.9702,0.9758,0.9875,1.0023,1.0314,1.0511,1.0801,1.1194,1.178,1.2651,1.3522,1.4394,1.507,1.5547,1.5825,1.5825,1.5825,1.5825,1.7464,1.5282,1.0104,0.5242,0.105,-0.2801,-0.5309,-0.3703,1.246,2.1334,2.4927,4.4632,5.2085,5.2716,5.2326,5.1695,5.1212,5.1065,5.0601,5.024,5.0235,5.0016,4.9919,4.9887,5.0121,5.0394,5.0732,5.0786,5.0825,5.0428,4.9739,4.889,4.7573,4.6166,4.4258,4.2064,3.9711,3.7171,3.4605,3.2179,3.0415,2.8947,2.7537,2.5915,2.4177,2.2693,2.1277,1.9945,1.8492,1.7022,1.5446,1.4385,1.3748,1.3532,1.3202,1.2985,1.2767,1.2096,1.121,1.0651,1.0035,0.9425,0.8963,0.8682,0.8567,0.854,0.8537,0.8533,0.8533,0.853,0.8537,0.8554,0.8554,0.8564,0.8682,0.8764,0.8849,0.892,0.8923,0.8927,0.893,0.8937,0.8937,0.8937,0.8937,0.8937,0.8937,0.8937,0.8937,0.894,0.8913,0.9095,0.9341,0.9392,0.9585,0.9734,1.003,0.9916,0.9864,0.9834,0.9933,1.0023,1.0216,1.0413,1.09,1.1487,1.236,1.3232,1.4106,1.4885,1.5452,1.5825,1.5825,1.5825,1.5825,1.5625,1.1977,0.8141,0.3956,-0.035,-0.4315,-0.2979,0.3828,1.4565,2.4181,3.3237,4.4085,5.2113,5.178,5.1711,5.1228,5.0559,5.0445,5.0023,4.9583,4.9946,4.9966,5.0032,5.0259,5.0582,5.0783,5.0898,5.081,5.0471,4.9894,4.905,4.7978,4.6104,4.4418,4.2567,4.0256,3.7738,3.525,3.2946,3.047,2.8789,2.7453,2.6502,2.4856,2.3085,2.1684,2.0269,1.8826,1.7246,1.5761,1.4487,1.3635,1.3207,1.2994,1.2659,1.2114,1.2005,1.1236,1.0582,1.0147,0.953,0.9208,0.8859,0.8855,0.8791,0.8798,0.8788,0.8774,0.8767,0.8747,0.8754,0.8791,0.8801,0.8801,0.8872,0.8876,0.8916,0.893,0.8933,0.8933,0.8937,0.8937,0.8937,0.8937,0.8937,0.8937,0.8937,0.8937,0.8937,0.894,0.9051,0.9247,0.9545,0.9673,0.976,1.0023,1.0249,1.0111,0.9941,0.9862,0.9751,0.9628,0.9821,1.0117,1.0511,1.1198,1.2068,1.2937,1.3811,1.4688,1.5356,1.5832,1.5825,1.5825,1.5825]}]]